[[{"header":{"parameterUnit":"m.s-1","parameterCategory":1,"la1":31.0,"la2":29.5877,"lo1":-88.7671,"lo2":-86.6584,"dy":0.0162,"dx":0.0185,"nx":115,"ny":88,"refTime":"2024-04-28T12:00:00:Z","depth":0,"parameterNumber":2,"parameterNumberName":"U-component_of_WINDS"},"data":[0.0,0.0,0.0,0.0,0.0,0.0,0.0,0.0,0.0,0.0,0.0,0.0,0.0,0.0,0.0,0.0,0.0,0.0,0.0,0.0,0.0,0.0,0.0,0.0,0.0,0.0,0.0,0.0,0.0,0.0,0.0,0.0,0.0,0.0,0.0,0.0,0.0,0.0,0.0,0.0,0.0,0.0,0.0,0.0,0.0,0.0,0.0,0.0,0.0,0.0,0.0,0.0,0.0,0.0,0.0,0.0,0.0,0.0,0.0,0.0,0.0,0.0,0.0,0.0,0.0,0.0,0.0,0.0,0.0,0.0,0.0,0.0,0.0,0.0,0.0,0.0,0.0,0.0,0.0,0.0,0.0,0.0,0.0,0.0,0.0,0.0,0.0,0.0,0.0,0.0,0.0,0.0,0.0,0.0,0.0,0.0,0.0,0.0,0.0,0.0,0.0,0.0,0.0,0.0,0.0,0.0,0.0,0.0,0.0,0.0,0.0,0.0,0.0,0.0,0.0,0.0,0.0,0.0,0.0,0.0,0.0,0.0,0.0,0.0,0.0,0.0,0.0,0.0,0.0,0.0,0.0,0.0,0.0,0.0,0.0,0.0,0.0,0.0,0.0,0.0,0.0,0.0,0.0,0.0,0.0,0.0,0.0,0.0,0.0,0.0,0.0,0.0,0.0,0.0,0.0,0.0,0.0,0.0,0.0,0.0,0.0,0.0,0.0,0.0,0.0,0.0,0.0,0.0,0.0,0.0,0.0,0.0,0.0,0.0,0.0,0.0,0.0,0.0,0.0,0.0,0.0,0.0,0.0,0.0,0.0,0.0,0.0,0.0,0.0,0.0,0.0,0.0,0.0,0.0,0.0,0.0,0.0,0.0,0.0,0.0,0.0,0.0,0.0,0.0,0.0,0.0,0.0,0.0,0.0,0.0,0.0,0.0,0.0,0.0,0.0,0.0,0.0,0.0,0.0,0.0,0.0,0.0,0.0,0.0,0.0,0.0,0.0,0.0,0.0,0.0,0.0,0.0,0.0,0.0,0.0,0.0,0.0,0.0,0.0,0.0,0.0,0.0,0.0,0.0,0.0,0.0,0.0,0.0,0.0,0.0,0.0,0.0,0.0,0.0,0.0,0.0,0.0,0.0,0.0,0.0,0.0,0.0,0.0,0.0,0.0,0.0,0.0,0.0,0.0,0.0,0.0,0.0,0.0,0.0,0.0,0.0,0.0,0.0,0.0,0.0,0.0,0.0,0.0,0.0,0.0,0.0,0.0,0.0,0.0,0.0,0.0,0.0,0.0,0.0,0.0,0.0,0.0,0.0,0.0,0.0,0.0,0.0,0.0,0.0,0.0,0.0,0.0,0.0,0.0,0.0,0.0,0.0,0.0,0.0,0.0,0.0,0.0,0.0,0.0,0.0,0.0,0.0,0.0,0.0,0.0,0.0,0.0,0.0,0.0,0.0,0.0,0.0,0.0,0.0,0.0,0.0,0.0,0.0,0.0,0.0,0.0,0.0,0.0,0.0,0.0,0.0,0.0,0.0,0.0,0.0,0.0,0.0,0.0,0.0,0.0,0.0,0.0,0.0,0.0,0.0,0.0,0.0,0.0,0.0,0.0,0.0,0.0,0.0,0.0,0.0,0.0,0.0,0.0,0.0,0.0,0.0,0.0,0.0,0.0,0.0,0.0,0.0,0.0,0.0,0.0,0.0,0.0,0.0,0.0,0.0,0.0,0.0,0.0,0.0,0.0,0.0,0.0,0.0,0.0,0.0,0.0,0.0,0.0,0.0,0.0,0.0,0.0,0.0,0.0,0.0,0.0,0.0,0.0,0.0,0.0,0.0,0.0,0.0,0.0,0.0,0.0,0.0,0.0,0.0,0.0,0.0,0.0,0.0,0.0,0.0,0.0,0.0,0.0,0.0,0.0,0.0,0.0,0.0,0.0,0.0,0.0,0.0,0.0,0.0,0.0,0.0,0.0,0.0,0.0,0.0,0.0,0.0,0.0,0.0,0.0,0.0,0.0,0.0,0.0,0.0,0.0,0.0,0.0,0.0,0.0,0.0,0.0,0.0,0.0,0.0,0.0,0.0,0.0,0.0,0.0,0.0,0.0,0.0,0.0,0.0,0.0,0.0,0.0,0.0,0.0,0.0,0.0,0.0,0.0,0.0,0.0,0.0,0.0,0.0,0.0,0.0,0.0,0.0,0.0,0.0,0.0,0.0,0.0,0.0,0.0,0.0,0.0,0.0,0.0,0.0,0.0,0.0,0.0,0.0,0.0,0.0,0.0,0.0,0.0,0.0,0.0,0.0,0.0,0.0,0.0,0.0,0.0,0.0,0.0,0.0,0.0,0.0,0.0,0.0,0.0,0.0,0.0,0.0,0.0,0.0,0.0,0.0,0.0,0.0,0.0,0.0,0.0,0.0,0.0,0.0,0.0,0.0,0.0,0.0,0.0,0.0,0.0,0.0,0.0,0.0,0.0,0.0,0.0,0.0,0.0,0.0,0.0,0.0,0.0,0.0,0.0,0.0,0.0,0.0,0.0,0.0,0.0,0.0,0.0,0.0,0.0,0.0,0.0,0.0,0.0,0.0,0.0,0.0,0.0,0.0,0.0,0.0,0.0,0.0,0.0,0.0,0.0,0.0,0.0,0.0,0.0,0.0,0.0,0.0,0.0,0.0,0.0,0.0,0.0,0.0,0.0,0.0,0.0,0.0,0.0,0.0,0.0,0.0,0.0,0.0,0.0,0.0,0.0,0.0,0.0,0.0,0.0,0.0,0.0,0.0,0.0,0.0,0.0,0.0,0.0,0.0,0.0,0.0,0.0,0.0,0.0,0.0,0.0,0.0,0.0,0.0,0.0,0.0,0.0,0.0,0.0,0.0,0.0,0.0,0.0,0.0,0.0,0.0,0.0,0.0,0.0,0.0,0.0,0.0,0.0,0.0,0.0,0.0,0.0,0.0,0.0,0.0,0.0,0.0,0.0,0.0,0.0,0.0,0.0,0.0,0.0,0.0,0.0,0.0,0.0,0.0,0.0,0.0,0.0,0.0,0.0,0.0,0.0,0.0,0.0,0.0,0.0,0.0,0.0,0.0,0.0,0.0,0.0,0.0,0.0,0.0,0.0,0.0,0.0,0.0,0.0,0.0,0.0,0.0,0.0,0.0,0.0,0.0,0.0,0.0,0.0,0.0,0.0,0.0,0.0,0.0,0.0,0.0,0.0,0.0,0.0,0.0,0.0,0.0,0.0,0.0,0.0,0.0,0.0,0.0,0.0,0.0,0.0,0.0,0.0,0.0,0.0,0.0,0.0,0.0,0.0,0.0,0.0,0.0,0.0,0.0,0.0,0.0,0.0,0.0,0.0,0.0,0.0,0.0,0.0,0.0,0.0,0.0,0.0,0.0,0.0,0.0,0.0,0.0,0.0,0.0,0.0,0.0,0.0,0.0,0.0,0.0,0.0,0.0,0.0,0.0,0.0,0.0,0.0,0.0,0.0,0.0,0.0,0.0,0.0,0.0,0.0,0.0,0.0,0.0,0.0,0.0,0.0,0.0,0.0,0.0,0.0,0.0,0.0,0.0,0.0,0.0,0.0,0.0,0.0,0.0,0.0,0.0,0.0,0.0,0.0,0.0,0.0,0.0,0.0,0.0,0.0,0.0,0.0,0.0,0.0,0.0,0.0,0.0,0.0,0.0,0.0,0.0,0.0,0.0,0.0,0.0,0.0,0.0,0.0,0.0,0.0,0.0,0.0,0.0,0.0,0.0,0.0,0.0,0.0,0.0,0.0,0.0,0.0,0.0,0.0,0.0,0.0,0.0,0.0,0.0,0.0,0.0,0.0,0.0,0.0,0.0,0.0,0.0,0.0,0.0,0.0,0.0,0.0,0.0,0.0,0.0,0.0,0.0,0.0,0.0,0.0,0.0,0.0,0.0,0.0,0.0,0.0,0.0,0.0,0.0,0.0,0.0,0.0,0.0,0.0,0.0,0.0,0.0,0.0,0.0,0.0,0.0,0.0,0.0,0.0,0.0,0.0,0.0,0.0,0.0,0.0,0.0,0.0,0.0,0.0,0.0,0.0,0.0,0.0,0.0,0.0,0.0,0.0,0.0,0.0,0.0,0.0,0.0,0.0,0.0,0.0,0.0,0.0,0.0,0.0,0.0,0.0,0.0,0.0,0.0,0.0,0.0,0.0,0.0,0.0,0.0,0.0,0.0,0.0,0.0,0.0,0.0,0.0,0.0,0.0,0.0,0.0,0.0,0.0,0.0,-2.6185,0.0,0.0,0.0,0.0,0.0,0.0,0.0,0.0,0.0,0.0,0.0,0.0,0.0,0.0,0.0,0.0,0.0,0.0,0.0,0.0,0.0,0.0,0.0,0.0,0.0,0.0,0.0,0.0,0.0,0.0,0.0,0.0,0.0,0.0,0.0,0.0,0.0,0.0,0.0,0.0,0.0,0.0,0.0,0.0,0.0,0.0,0.0,0.0,0.0,0.0,0.0,0.0,0.0,0.0,0.0,0.0,0.0,0.0,0.0,0.0,0.0,0.0,0.0,0.0,0.0,0.0,0.0,0.0,0.0,0.0,0.0,0.0,0.0,0.0,0.0,0.0,0.0,0.0,0.0,0.0,0.0,0.0,0.0,0.0,0.0,0.0,0.0,0.0,0.0,0.0,0.0,0.0,0.0,0.0,0.0,0.0,0.0,0.0,0.0,0.0,0.0,0.0,0.0,0.0,0.0,0.0,0.0,0.0,0.0,0.0,-2.6185,-2.6185,-2.6185,-2.6185,-2.6185,0.0,0.0,0.0,0.0,0.0,0.0,0.0,0.0,0.0,0.0,0.0,0.0,0.0,0.0,0.0,0.0,0.0,0.0,0.0,0.0,0.0,0.0,0.0,0.0,0.0,0.0,0.0,0.0,0.0,0.0,0.0,0.0,0.0,0.0,0.0,0.0,0.0,0.0,0.0,0.0,0.0,0.0,0.0,0.0,0.0,0.0,0.0,0.0,0.0,0.0,0.0,0.0,0.0,0.0,0.0,0.0,0.0,0.0,0.0,0.0,0.0,0.0,0.0,0.0,0.0,0.0,0.0,0.0,0.0,0.0,0.0,0.0,0.0,0.0,0.0,0.0,0.0,0.0,0.0,0.0,0.0,0.0,0.0,0.0,0.0,0.0,0.0,0.0,0.0,0.0,0.0,0.0,0.0,0.0,0.0,0.0,0.0,0.0,0.0,0.0,0.0,0.0,0.0,0.0,0.0,0.0,0.0,0.0,0.0,0.0,0.0,0.0,-2.6185,-2.6185,-2.6185,0.0,0.0,0.0,0.0,0.0,0.0,0.0,0.0,0.0,0.0,0.0,0.0,0.0,0.0,0.0,0.0,0.0,0.0,0.0,0.0,0.0,0.0,0.0,0.0,0.0,0.0,0.0,0.0,0.0,0.0,0.0,0.0,0.0,0.0,0.0,0.0,0.0,0.0,0.0,0.0,0.0,0.0,0.0,0.0,0.0,0.0,0.0,0.0,0.0,0.0,0.0,0.0,0.0,0.0,0.0,0.0,0.0,0.0,0.0,0.0,0.0,0.0,0.0,0.0,0.0,0.0,0.0,0.0,0.0,0.0,0.0,0.0,0.0,0.0,0.0,0.0,0.0,0.0,0.0,0.0,0.0,0.0,0.0,0.0,0.0,0.0,0.0,0.0,0.0,0.0,0.0,0.0,0.0,0.0,0.0,0.0,0.0,0.0,0.0,0.0,0.0,0.0,0.0,0.0,0.0,0.0,0.0,0.0,0.0,0.0,-2.6185,-2.6185,-2.6185,0.0,-2.6185,0.0,0.0,0.0,0.0,0.0,0.0,0.0,0.0,0.0,0.0,0.0,0.0,0.0,0.0,0.0,0.0,0.0,0.0,0.0,0.0,0.0,0.0,0.0,0.0,0.0,0.0,0.0,0.0,0.0,0.0,0.0,0.0,0.0,0.0,0.0,0.0,0.0,0.0,0.0,0.0,0.0,0.0,0.0,0.0,0.0,0.0,0.0,0.0,0.0,0.0,0.0,0.0,0.0,0.0,0.0,0.0,0.0,0.0,0.0,0.0,0.0,0.0,0.0,0.0,0.0,0.0,0.0,0.0,0.0,0.0,0.0,0.0,0.0,0.0,0.0,0.0,0.0,0.0,0.0,0.0,0.0,0.0,0.0,0.0,0.0,0.0,0.0,0.0,0.0,0.0,0.0,0.0,0.0,0.0,0.0,0.0,0.0,0.0,0.0,0.0,0.0,0.0,0.0,0.0,0.0,0.0,0.0,0.0,0.0,0.0,-2.6185,-2.6185,-2.6185,-2.6185,0.0,0.0,0.0,0.0,0.0,0.0,0.0,0.0,0.0,0.0,0.0,0.0,0.0,0.0,0.0,0.0,0.0,0.0,0.0,0.0,0.0,0.0,0.0,0.0,0.0,0.0,0.0,0.0,0.0,0.0,0.0,0.0,0.0,0.0,0.0,0.0,0.0,0.0,0.0,0.0,0.0,0.0,0.0,0.0,0.0,0.0,0.0,0.0,0.0,0.0,0.0,0.0,0.0,0.0,0.0,0.0,0.0,0.0,0.0,0.0,0.0,0.0,0.0,0.0,0.0,0.0,0.0,0.0,0.0,0.0,0.0,0.0,0.0,0.0,0.0,0.0,0.0,0.0,0.0,0.0,0.0,0.0,0.0,0.0,0.0,0.0,0.0,0.0,0.0,0.0,0.0,0.0,0.0,0.0,0.0,0.0,0.0,0.0,0.0,0.0,0.0,0.0,0.0,0.0,0.0,0.0,0.0,0.0,0.0,0.0,-2.6884,-2.6419,-2.6202,-2.6185,-2.6185,-2.6185,0.0,0.0,0.0,0.0,0.0,0.0,0.0,0.0,0.0,0.0,0.0,0.0,0.0,0.0,0.0,0.0,0.0,0.0,0.0,0.0,0.0,0.0,0.0,0.0,0.0,0.0,0.0,0.0,0.0,0.0,0.0,0.0,0.0,0.0,0.0,0.0,0.0,0.0,0.0,0.0,0.0,0.0,0.0,0.0,0.0,0.0,0.0,0.0,0.0,0.0,0.0,0.0,0.0,0.0,0.0,0.0,0.0,0.0,0.0,0.0,0.0,0.0,0.0,0.0,0.0,0.0,0.0,0.0,0.0,0.0,0.0,0.0,0.0,0.0,0.0,0.0,0.0,0.0,0.0,0.0,0.0,0.0,0.0,0.0,0.0,0.0,0.0,0.0,0.0,0.0,0.0,0.0,0.0,0.0,0.0,0.0,0.0,0.0,0.0,0.0,0.0,0.0,0.0,0.0,0.0,0.0,0.0,0.0,-2.8359,-2.763,-2.6934,-2.6235,-2.6185,-2.6185,0.0,0.0,0.0,0.0,0.0,0.0,0.0,0.0,0.0,0.0,0.0,0.0,0.0,0.0,0.0,0.0,0.0,0.0,0.0,0.0,0.0,0.0,0.0,0.0,0.0,0.0,0.0,0.0,0.0,0.0,0.0,0.0,0.0,0.0,0.0,0.0,0.0,0.0,0.0,0.0,0.0,0.0,0.0,0.0,0.0,0.0,0.0,0.0,0.0,0.0,0.0,0.0,0.0,0.0,0.0,0.0,0.0,0.0,0.0,0.0,0.0,0.0,0.0,0.0,0.0,0.0,0.0,0.0,0.0,0.0,0.0,0.0,0.0,0.0,0.0,0.0,0.0,0.0,0.0,0.0,0.0,0.0,0.0,0.0,0.0,0.0,0.0,0.0,0.0,0.0,0.0,0.0,0.0,0.0,0.0,0.0,0.0,0.0,0.0,0.0,0.0,0.0,0.0,0.0,0.0,0.0,0.0,0.0,0.0,-2.9019,-2.8376,-2.7663,-2.695,-2.6901,-2.6702,0.0,0.0,0.0,0.0,0.0,0.0,0.0,0.0,0.0,0.0,0.0,0.0,0.0,0.0,0.0,0.0,0.0,0.0,0.0,0.0,0.0,0.0,0.0,0.0,0.0,0.0,0.0,0.0,0.0,0.0,0.0,0.0,0.0,0.0,0.0,0.0,0.0,0.0,0.0,0.0,0.0,0.0,0.0,0.0,0.0,0.0,0.0,0.0,0.0,0.0,0.0,0.0,0.0,0.0,0.0,0.0,0.0,0.0,0.0,0.0,0.0,0.0,0.0,0.0,0.0,0.0,0.0,0.0,0.0,0.0,0.0,0.0,0.0,0.0,0.0,0.0,0.0,0.0,0.0,0.0,0.0,0.0,0.0,0.0,0.0,0.0,0.0,0.0,0.0,0.0,0.0,0.0,0.0,0.0,0.0,0.0,0.0,0.0,0.0,0.0,0.0,0.0,0.0,0.0,0.0,0.0,0.0,0.0,0.0,-2.9417,0.0,-2.8392,-2.7696,-2.7647,-2.7415,0.0,0.0,0.0,0.0,0.0,0.0,0.0,0.0,0.0,0.0,0.0,0.0,0.0,0.0,0.0,0.0,0.0,0.0,0.0,0.0,0.0,0.0,0.0,0.0,0.0,0.0,0.0,0.0,0.0,0.0,0.0,0.0,0.0,0.0,0.0,0.0,0.0,0.0,0.0,0.0,0.0,0.0,0.0,0.0,0.0,0.0,0.0,0.0,0.0,0.0,0.0,0.0,0.0,0.0,0.0,0.0,0.0,0.0,0.0,0.0,0.0,0.0,0.0,0.0,0.0,0.0,0.0,0.0,0.0,0.0,0.0,0.0,0.0,0.0,0.0,0.0,0.0,0.0,0.0,0.0,0.0,0.0,0.0,0.0,0.0,0.0,0.0,0.0,0.0,0.0,0.0,0.0,0.0,0.0,0.0,0.0,0.0,0.0,0.0,0.0,0.0,0.0,0.0,0.0,0.0,0.0,0.0,0.0,-3.0158,-2.9479,-2.9479,-2.9185,-2.8459,-2.8442,-2.8409,0.0,0.0,0.0,0.0,0.0,0.0,0.0,0.0,0.0,0.0,0.0,0.0,0.0,0.0,0.0,0.0,0.0,0.0,0.0,0.0,0.0,0.0,0.0,0.0,0.0,0.0,0.0,0.0,0.0,0.0,0.0,0.0,0.0,0.0,0.0,0.0,0.0,0.0,0.0,0.0,0.0,0.0,0.0,0.0,0.0,0.0,0.0,0.0,0.0,0.0,0.0,0.0,0.0,0.0,0.0,0.0,0.0,0.0,0.0,0.0,0.0,0.0,0.0,0.0,0.0,0.0,0.0,0.0,0.0,0.0,0.0,0.0,0.0,0.0,0.0,0.0,0.0,0.0,0.0,0.0,0.0,0.0,0.0,0.0,0.0,0.0,0.0,0.0,0.0,0.0,0.0,0.0,0.0,0.0,0.0,0.0,0.0,0.0,0.0,0.0,0.0,0.0,0.0,0.0,0.0,0.0,0.0,0.0,0.0,-3.0868,-3.1313,-3.1004,-2.9914,-2.9864,-2.9383,0.0,0.0,0.0,0.0,0.0,0.0,0.0,0.0,0.0,0.0,0.0,0.0,0.0,0.0,0.0,0.0,0.0,0.0,0.0,0.0,0.0,0.0,0.0,0.0,0.0,0.0,0.0,0.0,0.0,0.0,0.0,0.0,0.0,0.0,0.0,0.0,0.0,0.0,0.0,0.0,0.0,0.0,0.0,0.0,0.0,0.0,0.0,0.0,0.0,0.0,0.0,0.0,0.0,0.0,0.0,0.0,0.0,0.0,0.0,0.0,0.0,0.0,0.0,0.0,0.0,0.0,0.0,0.0,0.0,0.0,0.0,0.0,0.0,0.0,0.0,0.0,0.0,0.0,0.0,0.0,0.0,0.0,0.0,0.0,0.0,0.0,0.0,0.0,0.0,0.0,0.0,0.0,0.0,0.0,0.0,0.0,0.0,0.0,0.0,0.0,0.0,0.0,0.0,0.0,0.0,0.0,0.0,0.0,0.0,-3.239,-3.2459,-3.2226,-3.1682,-3.1427,-3.0754,-2.9608,0.0,0.0,0.0,0.0,0.0,0.0,0.0,0.0,0.0,0.0,0.0,0.0,0.0,0.0,0.0,0.0,0.0,0.0,0.0,0.0,0.0,0.0,0.0,0.0,0.0,0.0,0.0,0.0,0.0,0.0,0.0,0.0,0.0,0.0,0.0,0.0,0.0,0.0,0.0,0.0,0.0,0.0,0.0,0.0,0.0,0.0,0.0,0.0,0.0,0.0,0.0,0.0,0.0,0.0,0.0,0.0,0.0,0.0,0.0,0.0,0.0,0.0,0.0,0.0,0.0,0.0,0.0,0.0,0.0,0.0,0.0,0.0,0.0,0.0,0.0,0.0,0.0,0.0,0.0,0.0,0.0,0.0,0.0,0.0,0.0,0.0,0.0,0.0,0.0,0.0,0.0,0.0,0.0,0.0,0.0,0.0,0.0,0.0,0.0,0.0,0.0,0.0,0.0,0.0,0.0,0.0,0.0,0.0,-3.3986,-3.311,-3.3008,-3.3649,-3.3079,-3.2381,0.0,0.0,0.0,0.0,0.0,0.0,0.0,0.0,0.0,0.0,0.0,0.0,0.0,0.0,0.0,0.0,0.0,0.0,0.0,0.0,0.0,0.0,0.0,0.0,0.0,0.0,0.0,0.0,0.0,0.0,0.0,0.0,0.0,0.0,0.0,0.0,0.0,0.0,0.0,0.0,0.0,0.0,0.0,0.0,0.0,0.0,0.0,0.0,0.0,0.0,0.0,0.0,0.0,0.0,0.0,0.0,0.0,0.0,0.0,0.0,0.0,0.0,0.0,0.0,0.0,0.0,0.0,0.0,0.0,0.0,0.0,0.0,0.0,0.0,0.0,0.0,0.0,0.0,0.0,0.0,0.0,0.0,0.0,0.0,0.0,0.0,0.0,0.0,0.0,0.0,0.0,0.0,0.0,0.0,0.0,0.0,0.0,0.0,0.0,0.0,0.0,0.0,0.0,0.0,0.0,0.0,0.0,0.0,0.0,-3.4954,-3.4915,-3.4807,-3.4704,-3.4014,-3.312,0.0,0.0,0.0,0.0,0.0,0.0,0.0,0.0,0.0,0.0,0.0,0.0,0.0,0.0,0.0,0.0,0.0,0.0,0.0,0.0,0.0,0.0,0.0,0.0,0.0,0.0,0.0,0.0,0.0,0.0,0.0,0.0,0.0,0.0,0.0,0.0,0.0,0.0,0.0,0.0,0.0,0.0,0.0,0.0,0.0,0.0,0.0,0.0,0.0,0.0,0.0,0.0,0.0,0.0,0.0,0.0,0.0,0.0,0.0,0.0,0.0,0.0,0.0,0.0,0.0,0.0,0.0,0.0,0.0,0.0,0.0,0.0,0.0,0.0,0.0,0.0,0.0,0.0,0.0,0.0,0.0,0.0,0.0,0.0,0.0,0.0,0.0,0.0,0.0,0.0,0.0,0.0,0.0,0.0,0.0,0.0,0.0,0.0,0.0,0.0,0.0,0.0,0.0,0.0,0.0,0.0,0.0,0.0,-3.4293,-3.5166,-3.5802,-3.6039,-3.59,-3.4957,-3.3969,0.0,0.0,0.0,0.0,0.0,0.0,0.0,0.0,0.0,0.0,0.0,0.0,0.0,0.0,0.0,0.0,0.0,0.0,0.0,0.0,0.0,0.0,0.0,0.0,0.0,0.0,0.0,0.0,0.0,0.0,0.0,0.0,0.0,0.0,0.0,0.0,0.0,0.0,0.0,0.0,0.0,0.0,0.0,0.0,0.0,0.0,0.0,0.0,0.0,0.0,0.0,0.0,0.0,0.0,0.0,0.0,0.0,0.0,0.0,0.0,0.0,0.0,0.0,0.0,0.0,0.0,0.0,0.0,0.0,0.0,0.0,0.0,0.0,0.0,0.0,0.0,0.0,0.0,0.0,0.0,0.0,0.0,0.0,0.0,0.0,0.0,0.0,0.0,0.0,0.0,0.0,0.0,0.0,0.0,0.0,0.0,0.0,0.0,0.0,0.0,0.0,0.0,0.0,0.0,0.0,0.0,0.0,0.0,-3.4754,-3.4961,-3.6087,-3.6785,-3.6952,-3.5752,-3.4736,0.0,0.0,0.0,0.0,0.0,0.0,0.0,0.0,0.0,0.0,0.0,0.0,0.0,0.0,0.0,0.0,0.0,0.0,0.0,0.0,0.0,0.0,0.0,0.0,0.0,0.0,0.0,0.0,0.0,0.0,0.0,0.0,0.0,0.0,0.0,0.0,0.0,0.0,0.0,0.0,0.0,0.0,0.0,0.0,0.0,0.0,0.0,0.0,0.0,0.0,0.0,0.0,0.0,0.0,0.0,0.0,0.0,0.0,0.0,0.0,0.0,0.0,0.0,0.0,0.0,0.0,0.0,0.0,0.0,0.0,0.0,0.0,0.0,0.0,0.0,0.0,0.0,0.0,0.0,0.0,0.0,0.0,0.0,0.0,0.0,0.0,0.0,0.0,0.0,0.0,0.0,0.0,0.0,0.0,0.0,0.0,0.0,0.0,0.0,0.0,0.0,0.0,0.0,0.0,0.0,0.0,0.0,0.0,-3.4632,-3.5365,-3.6153,-3.6677,-3.6969,-3.566,-3.4711,0.0,0.0,0.0,0.0,0.0,0.0,0.0,0.0,0.0,0.0,0.0,0.0,0.0,0.0,0.0,0.0,0.0,0.0,0.0,0.0,0.0,0.0,0.0,0.0,0.0,0.0,0.0,0.0,0.0,0.0,0.0,0.0,0.0,0.0,0.0,0.0,0.0,0.0,0.0,0.0,0.0,0.0,0.0,0.0,0.0,0.0,0.0,0.0,-2.4373,0.0,0.0,0.0,0.0,0.0,0.0,0.0,0.0,0.0,0.0,0.0,0.0,0.0,0.0,0.0,0.0,0.0,0.0,0.0,0.0,0.0,0.0,0.0,0.0,0.0,0.0,0.0,0.0,0.0,0.0,0.0,0.0,0.0,0.0,0.0,0.0,0.0,0.0,0.0,0.0,0.0,0.0,0.0,0.0,0.0,0.0,0.0,0.0,0.0,0.0,0.0,0.0,0.0,0.0,0.0,0.0,0.0,0.0,0.0,-3.4379,-3.5248,-3.5812,-3.6273,-3.6492,-3.5491,-3.4833,0.0,0.0,0.0,0.0,0.0,0.0,0.0,0.0,0.0,0.0,0.0,0.0,0.0,0.0,0.0,0.0,0.0,0.0,0.0,0.0,0.0,0.0,0.0,0.0,0.0,0.0,0.0,0.0,0.0,0.0,0.0,0.0,0.0,0.0,0.0,0.0,0.0,0.0,0.0,0.0,0.0,0.0,0.0,0.0,0.0,0.0,0.0,0.0,0.0,0.0,0.0,0.0,0.0,0.0,0.0,0.0,0.0,0.0,0.0,0.0,0.0,0.0,0.0,0.0,0.0,0.0,0.0,0.0,0.0,0.0,0.0,0.0,0.0,0.0,0.0,0.0,0.0,0.0,0.0,0.0,0.0,0.0,0.0,0.0,0.0,0.0,0.0,0.0,0.0,0.0,0.0,0.0,0.0,0.0,0.0,0.0,0.0,0.0,0.0,0.0,0.0,0.0,0.0,0.0,0.0,0.0,0.0,-3.3185,-3.4151,-3.5077,-3.5497,-3.5784,-3.599,-3.5412,-3.5003,-3.4736,0.0,0.0,0.0,0.0,0.0,0.0,0.0,0.0,0.0,0.0,0.0,0.0,0.0,0.0,0.0,0.0,0.0,0.0,0.0,0.0,0.0,0.0,0.0,0.0,0.0,0.0,0.0,0.0,0.0,0.0,0.0,0.0,0.0,0.0,0.0,0.0,0.0,0.0,-2.365,-2.4513,0.0,0.0,0.0,0.0,0.0,0.0,0.0,0.0,-2.6415,0.0,0.0,0.0,0.0,0.0,0.0,0.0,0.0,0.0,0.0,0.0,0.0,0.0,0.0,0.0,0.0,0.0,0.0,0.0,0.0,0.0,0.0,0.0,0.0,0.0,0.0,0.0,0.0,0.0,0.0,0.0,0.0,0.0,0.0,0.0,0.0,0.0,0.0,0.0,0.0,0.0,0.0,0.0,0.0,0.0,0.0,0.0,0.0,0.0,0.0,0.0,0.0,0.0,0.0,0.0,0.0,-3.3034,-3.3502,-3.4301,-3.5555,-3.5659,-3.5784,-3.5973,-3.5725,-3.5121,-3.4134,0.0,0.0,0.0,0.0,0.0,0.0,0.0,0.0,0.0,0.0,0.0,0.0,0.0,0.0,0.0,0.0,0.0,0.0,0.0,0.0,0.0,0.0,0.0,0.0,0.0,0.0,0.0,0.0,0.0,0.0,0.0,0.0,0.0,0.0,0.0,0.0,0.0,0.0,0.0,-2.541,-2.6298,0.0,0.0,0.0,0.0,0.0,0.0,0.0,0.0,-2.6648,0.0,0.0,0.0,0.0,0.0,0.0,0.0,0.0,0.0,0.0,0.0,0.0,0.0,0.0,0.0,0.0,0.0,0.0,0.0,0.0,0.0,0.0,0.0,0.0,0.0,0.0,0.0,0.0,0.0,0.0,0.0,0.0,0.0,0.0,0.0,0.0,0.0,0.0,0.0,0.0,0.0,0.0,0.0,0.0,0.0,0.0,0.0,0.0,0.0,0.0,0.0,0.0,0.0,0.0,0.0,-3.3195,-3.3735,-3.4488,-3.5544,-3.5604,-3.5636,-3.5748,-3.5322,-3.4676,0.0,0.0,0.0,0.0,0.0,0.0,0.0,0.0,0.0,0.0,0.0,0.0,0.0,0.0,0.0,0.0,0.0,0.0,0.0,0.0,0.0,0.0,0.0,0.0,0.0,0.0,0.0,0.0,0.0,0.0,0.0,0.0,0.0,0.0,0.0,0.0,0.0,0.0,0.0,0.0,-2.5396,-2.6524,-2.6385,0.0,0.0,0.0,0.0,0.0,0.0,-2.74,-2.6961,0.0,0.0,0.0,0.0,0.0,0.0,0.0,0.0,0.0,0.0,0.0,0.0,0.0,0.0,0.0,0.0,0.0,0.0,0.0,0.0,0.0,0.0,0.0,0.0,0.0,0.0,0.0,0.0,0.0,0.0,0.0,0.0,0.0,0.0,0.0,0.0,0.0,0.0,0.0,0.0,0.0,0.0,0.0,0.0,0.0,0.0,0.0,0.0,0.0,0.0,0.0,0.0,0.0,0.0,0.0,-3.313,-3.386,-3.4609,-3.5409,-3.5472,-3.5489,-3.5489,-3.4831,-3.4189,0.0,0.0,0.0,0.0,0.0,0.0,0.0,0.0,0.0,0.0,0.0,0.0,0.0,0.0,0.0,0.0,0.0,0.0,0.0,0.0,0.0,0.0,0.0,0.0,0.0,0.0,0.0,0.0,0.0,0.0,0.0,0.0,0.0,0.0,0.0,0.0,0.0,0.0,0.0,0.0,0.0,-2.653,-2.6608,-2.7294,0.0,0.0,0.0,0.0,-2.8517,-2.7818,0.0,0.0,0.0,0.0,0.0,0.0,0.0,0.0,0.0,0.0,0.0,0.0,0.0,0.0,0.0,0.0,0.0,0.0,0.0,0.0,0.0,0.0,0.0,0.0,0.0,0.0,0.0,0.0,0.0,0.0,0.0,0.0,0.0,0.0,0.0,0.0,0.0,0.0,0.0,0.0,0.0,0.0,0.0,0.0,0.0,0.0,0.0,0.0,0.0,0.0,0.0,0.0,0.0,0.0,0.0,0.0,-3.2832,-3.3765,-3.453,-3.5216,-3.5392,-3.5489,-3.5489,-3.4831,-3.4173,0.0,0.0,0.0,0.0,0.0,0.0,0.0,0.0,0.0,0.0,0.0,0.0,0.0,0.0,0.0,0.0,0.0,0.0,0.0,0.0,0.0,0.0,0.0,0.0,0.0,0.0,0.0,0.0,0.0,0.0,0.0,0.0,0.0,0.0,0.0,0.0,0.0,0.0,0.0,0.0,0.0,-2.6584,-2.6085,-2.7226,-2.7898,0.0,0.0,-2.8545,-2.831,-2.8232,0.0,0.0,0.0,0.0,0.0,0.0,0.0,0.0,0.0,0.0,0.0,0.0,0.0,0.0,0.0,0.0,0.0,0.0,0.0,0.0,0.0,0.0,0.0,0.0,0.0,0.0,0.0,0.0,0.0,0.0,0.0,0.0,0.0,0.0,0.0,0.0,0.0,0.0,0.0,0.0,0.0,0.0,0.0,0.0,0.0,0.0,0.0,0.0,0.0,0.0,0.0,0.0,0.0,0.0,0.0,-3.1785,-3.2781,-3.3924,-3.4669,-3.5019,-3.5115,-3.5148,-3.5148,-3.4528,-3.3921,0.0,0.0,0.0,0.0,0.0,0.0,0.0,0.0,0.0,0.0,0.0,0.0,0.0,0.0,0.0,0.0,0.0,0.0,0.0,0.0,0.0,0.0,0.0,0.0,0.0,0.0,0.0,0.0,0.0,0.0,0.0,0.0,0.0,0.0,0.0,0.0,0.0,0.0,0.0,0.0,0.0,0.0,-2.6606,-2.768,0.0,0.0,0.0,-2.8806,-2.8474,0.0,0.0,0.0,0.0,0.0,0.0,0.0,0.0,0.0,0.0,0.0,0.0,0.0,0.0,0.0,0.0,0.0,0.0,0.0,0.0,0.0,0.0,0.0,0.0,0.0,0.0,0.0,0.0,0.0,0.0,0.0,0.0,0.0,0.0,0.0,0.0,0.0,0.0,0.0,0.0,0.0,0.0,0.0,0.0,0.0,0.0,0.0,0.0,0.0,0.0,0.0,0.0,0.0,0.0,0.0,0.0,0.0,-3.2733,-3.4021,-3.475,-3.485,-3.4868,-3.4902,-3.4887,-3.4301,0.0,0.0,0.0,0.0,0.0,0.0,0.0,0.0,0.0,0.0,0.0,0.0,0.0,0.0,0.0,0.0,0.0,0.0,0.0,0.0,0.0,0.0,0.0,0.0,0.0,0.0,0.0,-2.5643,0.0,0.0,0.0,0.0,0.0,0.0,0.0,0.0,0.0,0.0,0.0,0.0,0.0,0.0,-2.6847,-2.7074,-2.8048,-2.8716,0.0,0.0,-2.8798,-2.849,-2.8316,-2.7857,0.0,0.0,0.0,0.0,0.0,0.0,0.0,0.0,0.0,0.0,0.0,0.0,0.0,0.0,0.0,0.0,0.0,0.0,0.0,0.0,0.0,0.0,0.0,0.0,0.0,0.0,0.0,0.0,0.0,0.0,0.0,0.0,0.0,0.0,0.0,0.0,0.0,0.0,0.0,0.0,0.0,0.0,0.0,0.0,0.0,0.0,0.0,0.0,0.0,0.0,0.0,0.0,0.0,0.0,0.0,-3.2556,-3.3941,-3.4698,-3.4731,-3.4835,-3.4902,-3.4887,-3.4301,-3.3682,0.0,0.0,0.0,0.0,0.0,0.0,0.0,0.0,0.0,0.0,0.0,0.0,0.0,0.0,0.0,0.0,0.0,0.0,0.0,0.0,0.0,0.0,0.0,0.0,0.0,0.0,0.0,0.0,0.0,0.0,0.0,0.0,0.0,0.0,0.0,0.0,0.0,0.0,0.0,0.0,0.0,-2.675,-2.7143,-2.8002,-2.8503,0.0,0.0,-2.83,-2.8177,-2.8118,-2.7878,-2.724,0.0,0.0,0.0,0.0,0.0,0.0,0.0,0.0,0.0,0.0,0.0,0.0,0.0,0.0,0.0,0.0,0.0,0.0,0.0,0.0,0.0,0.0,0.0,0.0,0.0,0.0,0.0,0.0,0.0,0.0,0.0,0.0,0.0,0.0,0.0,0.0,0.0,0.0,0.0,0.0,0.0,0.0,0.0,0.0,0.0,0.0,0.0,0.0,0.0,0.0,0.0,0.0,0.0,-3.2145,-3.2191,-3.3594,-3.4312,-3.4346,-3.4501,-3.4582,-3.4601,-3.4353,-3.3944,0.0,0.0,0.0,0.0,0.0,0.0,0.0,0.0,0.0,0.0,0.0,0.0,0.0,0.0,0.0,0.0,0.0,0.0,0.0,0.0,0.0,0.0,0.0,0.0,0.0,0.0,0.0,0.0,-2.6811,-2.6269,-2.517,0.0,0.0,0.0,0.0,0.0,0.0,0.0,0.0,0.0,0.0,-2.6799,-2.7328,-2.796,0.0,0.0,-2.8384,-2.8319,-2.7822,-2.7934,-2.7781,-2.6843,-2.6619,0.0,0.0,0.0,0.0,0.0,0.0,0.0,0.0,0.0,0.0,0.0,0.0,0.0,0.0,0.0,0.0,0.0,0.0,0.0,0.0,0.0,0.0,0.0,0.0,0.0,0.0,0.0,0.0,0.0,0.0,0.0,0.0,0.0,0.0,0.0,0.0,0.0,0.0,0.0,0.0,0.0,0.0,0.0,0.0,0.0,0.0,0.0,0.0,0.0,0.0,0.0,0.0,-3.1707,-3.1754,-3.3075,-3.3805,-3.3839,-3.3991,-3.4094,-3.4094,-3.4142,-3.3874,0.0,0.0,0.0,0.0,0.0,0.0,0.0,0.0,0.0,0.0,0.0,0.0,0.0,0.0,0.0,0.0,0.0,0.0,0.0,0.0,0.0,0.0,0.0,0.0,0.0,0.0,0.0,0.0,-2.6749,-2.6033,-2.499,0.0,0.0,0.0,0.0,0.0,0.0,0.0,0.0,0.0,0.0,-2.6808,-2.7309,-2.7924,-2.8285,-2.8285,-2.827,-2.8126,-2.7668,-2.7687,-2.7537,-2.6837,0.0,0.0,0.0,0.0,0.0,0.0,0.0,0.0,0.0,0.0,0.0,0.0,0.0,0.0,0.0,0.0,0.0,0.0,0.0,0.0,0.0,0.0,0.0,0.0,0.0,0.0,0.0,-3.2618,0.0,0.0,-3.0357,0.0,0.0,0.0,0.0,0.0,0.0,0.0,0.0,0.0,0.0,0.0,0.0,0.0,0.0,0.0,0.0,0.0,0.0,0.0,0.0,0.0,0.0,-3.0995,-3.1224,-3.2409,-3.3129,-3.3304,-3.3304,-3.3339,-3.3339,-3.3521,-3.3293,-3.2656,0.0,0.0,0.0,0.0,0.0,0.0,0.0,0.0,0.0,0.0,0.0,0.0,0.0,0.0,0.0,0.0,0.0,0.0,0.0,0.0,0.0,0.0,0.0,0.0,0.0,0.0,-2.7151,-2.6849,-2.636,0.0,0.0,0.0,0.0,0.0,0.0,0.0,0.0,0.0,0.0,-2.6164,-2.6741,-2.7168,-2.7816,-2.829,-2.829,-2.7883,-2.7599,-2.7771,-2.737,-2.7135,0.0,0.0,0.0,0.0,0.0,0.0,0.0,0.0,0.0,0.0,0.0,0.0,0.0,0.0,0.0,0.0,0.0,0.0,0.0,0.0,0.0,0.0,0.0,0.0,0.0,0.0,0.0,-3.3363,-3.2828,0.0,0.0,0.0,0.0,0.0,0.0,0.0,0.0,0.0,0.0,0.0,-3.0556,-2.9876,0.0,0.0,0.0,0.0,0.0,0.0,0.0,0.0,0.0,0.0,0.0,0.0,-3.0506,-3.0829,-3.1864,-3.2453,-3.2525,-3.2775,-3.2917,-3.2881,-3.2952,-3.2744,-3.2234,0.0,0.0,0.0,0.0,0.0,0.0,0.0,0.0,0.0,0.0,0.0,0.0,0.0,0.0,0.0,0.0,0.0,0.0,0.0,0.0,0.0,0.0,0.0,0.0,0.0,-2.7273,0.0,0.0,0.0,0.0,0.0,0.0,0.0,0.0,0.0,0.0,0.0,-2.4637,-2.5194,-2.5985,-2.6723,-2.7206,-2.7612,-2.7973,0.0,0.0,0.0,0.0,0.0,0.0,0.0,0.0,0.0,0.0,0.0,0.0,0.0,0.0,-2.2923,-2.2487,-2.2253,-2.2072,-2.1931,0.0,0.0,0.0,0.0,0.0,0.0,0.0,0.0,0.0,0.0,0.0,0.0,0.0,0.0,-3.4282,0.0,-3.3758,0.0,0.0,0.0,0.0,0.0,0.0,0.0,0.0,-3.1061,-3.1012,-3.061,-3.0078,-2.9772,0.0,-2.9149,-2.8244,0.0,0.0,0.0,0.0,0.0,0.0,0.0,0.0,-3.0019,-3.0243,-3.0979,-3.1381,-3.1492,-3.1723,-3.1846,-3.1882,-3.1992,-3.2046,-3.2053,-3.1882,-3.1481,0.0,0.0,0.0,0.0,0.0,0.0,0.0,0.0,0.0,0.0,0.0,0.0,0.0,0.0,0.0,0.0,0.0,0.0,0.0,0.0,0.0,0.0,0.0,-2.722,0.0,0.0,0.0,0.0,0.0,0.0,0.0,0.0,0.0,-2.4054,-2.4494,-2.4932,-2.5228,-2.5957,-2.6593,-2.6933,0.0,0.0,0.0,0.0,0.0,0.0,0.0,-2.7384,-2.7203,-2.7057,-2.6899,-2.656,-2.5887,-2.5249,-2.4837,0.0,0.0,-2.3304,-2.3109,-2.2946,-2.2759,-2.2724,-2.2794,-2.3155,-2.319,-2.3398,0.0,0.0,0.0,0.0,0.0,0.0,0.0,0.0,-3.5723,-3.5599,0.0,-3.5317,0.0,0.0,0.0,0.0,0.0,-3.2283,0.0,0.0,-3.1283,-3.1158,-3.1093,-3.0396,-2.9868,-2.9448,-2.8705,-2.8257,-2.806,-2.8785,0.0,0.0,0.0,0.0,0.0,0.0,-2.9461,-2.9512,-2.9847,-3.0101,-3.0292,-3.0317,-3.0292,-3.0317,-3.0658,-3.1233,-3.1955,-3.1299,-3.0954,-3.1113,-2.9812,0.0,0.0,0.0,0.0,0.0,0.0,0.0,0.0,0.0,0.0,0.0,0.0,0.0,0.0,0.0,0.0,0.0,0.0,0.0,0.0,-2.6884,0.0,0.0,0.0,0.0,0.0,0.0,0.0,0.0,0.0,0.0,-2.4732,-2.5219,-2.5588,-2.5584,0.0,0.0,0.0,0.0,-2.7226,-2.7418,-2.7172,-2.6976,-2.6991,-2.6724,-2.6544,-2.6658,0.0,0.0,-2.5943,-2.5572,-2.5222,-2.5044,-2.4684,-2.4203,-2.3585,-2.3449,-2.3294,-2.3008,-2.2944,-2.3056,-2.3342,-2.3479,-2.3713,-3.6747,0.0,0.0,0.0,0.0,-3.6006,-3.6187,-3.6216,-3.6505,-3.6372,-3.586,-3.546,0.0,0.0,0.0,0.0,0.0,0.0,-3.1343,-3.0559,-3.0688,-3.056,-3.0126,-2.9783,-2.9516,-2.9414,-2.9033,-2.8856,-2.8805,-2.8997,-2.885,-2.8339,0.0,0.0,0.0,0.0,-2.8975,-2.9234,-2.946,-2.9613,-2.9639,-2.9793,-2.9871,-2.9858,-3.0139,-3.0381,-3.0595,-3.0502,-3.0305,-2.9902,-2.9432,0.0,0.0,0.0,0.0,0.0,0.0,0.0,0.0,0.0,0.0,0.0,0.0,0.0,0.0,0.0,0.0,0.0,0.0,0.0,-2.7903,-2.7399,-2.6688,0.0,0.0,0.0,0.0,0.0,0.0,0.0,0.0,0.0,-2.4296,-2.4627,-2.4925,0.0,0.0,-2.5738,-2.5738,-2.6036,-2.6343,-2.6517,-2.6487,0.0,-2.6631,-2.6558,-2.6472,-2.6374,-2.6132,-2.5973,-2.5932,-2.5675,-2.5417,-2.5365,-2.5128,-2.4866,-2.4516,-2.4049,-2.3681,-2.357,-2.3531,-2.3609,-2.3844,-2.4,-2.4227,-3.7668,-3.6497,-3.6627,-3.6461,-3.6156,-3.6634,-3.6785,-3.665,-3.6799,-3.6539,-3.5923,-3.5408,-3.4845,-3.421,-3.3505,0.0,0.0,0.0,-3.0687,-2.9689,-2.9818,-2.9663,-2.9236,-2.9106,-2.9,-2.891,-2.8803,-2.8736,-2.8724,-2.8736,-2.8565,-2.8235,0.0,0.0,-2.8805,-2.8728,-2.876,-2.8988,-2.904,-2.904,-2.904,-2.9145,-2.925,-2.9328,-2.9445,-2.9613,-2.9767,-2.9806,-2.9681,-2.9429,-2.9064,-2.8574,0.0,0.0,0.0,0.0,0.0,0.0,0.0,0.0,0.0,0.0,0.0,-2.6126,-2.5924,0.0,0.0,0.0,-2.7563,-2.7874,-2.7701,-2.7065,0.0,0.0,0.0,0.0,0.0,0.0,0.0,-2.3288,-2.3587,-2.3867,-2.3958,-2.4126,-2.4388,-2.4851,-2.502,-2.5105,-2.5094,0.0,-2.5401,-2.5516,-2.56,-2.5695,-2.5726,-2.5768,-2.5779,-2.5547,-2.5443,-2.538,-2.5475,-2.5369,-2.5274,-2.5242,-2.5147,-2.5031,-2.4775,-2.4367,-2.4094,-2.4094,-2.4094,-2.4165,-2.436,-2.4482,-2.4697,-3.8159,-3.8172,-3.8145,-3.7633,-3.6891,-3.7419,-3.7442,-3.7069,-3.6844,-3.6431,-3.5913,-3.5361,-3.4742,-3.4025,-3.3426,0.0,-3.0785,-3.0752,-3.01,-2.9013,-2.8803,-2.8605,-2.8419,-2.8471,-2.8351,-2.8167,-2.8179,-2.8179,-2.8179,-2.8179,-2.8259,-2.8483,-2.8816,-2.9013,-2.9052,-2.8882,-2.8764,-2.8764,-2.8578,-2.851,-2.851,-2.851,-2.8578,-2.8752,-2.8764,-2.8949,-2.9302,-2.917,-2.9131,-2.9289,-2.869,-2.8292,-2.8257,0.0,0.0,0.0,0.0,0.0,0.0,0.0,0.0,0.0,0.0,0.0,0.0,0.0,0.0,0.0,-2.7774,0.0,-2.6891,-2.6188,0.0,0.0,0.0,-2.3889,-2.3405,-2.3386,-2.3421,-2.3472,0.0,0.0,-2.3747,-2.3754,-2.3874,-2.4284,-2.4413,-2.4456,-2.4456,-2.4466,-2.4466,-2.4571,-2.4742,-2.4806,-2.4771,-2.4867,-2.4943,-2.4655,-2.4507,-2.4614,-2.4743,-2.4775,-2.4818,-2.4828,-2.4871,-2.4786,-2.4529,-2.4498,-2.4507,-2.4498,-2.4509,-2.4551,-2.4755,-2.483,-2.4988,-3.7949,-3.7949,-3.7753,-3.7757,-3.7882,-3.8007,-3.7979,-3.7881,-3.7356,-3.7079,-3.6858,-3.5228,-3.3552,-3.1905,-3.1453,-3.0726,-2.9729,-2.9438,-2.8965,-2.8419,-2.8231,-2.8082,-2.8054,-2.8042,-2.8002,-2.7962,-2.7962,-2.7962,-2.7962,-2.7962,-2.8002,-2.8042,-2.8151,-2.8323,-2.863,-2.8578,-2.8578,-2.8578,-2.851,-2.851,-2.851,-2.851,-2.855,-2.8578,-2.859,-2.8618,-2.8697,-2.8669,-2.8669,-2.8697,-2.8548,-2.8321,-2.8102,-2.7456,0.0,0.0,0.0,0.0,0.0,0.0,0.0,0.0,0.0,-2.6749,-2.642,0.0,-2.7966,0.0,-2.7283,-2.6933,-2.6404,-2.5764,0.0,0.0,-2.4011,-2.3639,-2.3042,-2.3227,-2.3442,-2.3313,-2.3403,-2.3418,-2.3299,-2.3144,-2.3013,-2.2906,-2.3517,-2.396,-2.396,-2.396,-2.4092,-2.4419,-2.4524,-2.4686,-2.4885,-2.5017,-2.4899,-2.4571,-2.451,-2.4409,-2.4107,-2.4046,-2.4143,-2.4325,-2.4368,-2.4411,-2.4464,-2.4507,-2.4507,-2.4507,-2.4507,-2.4497,-2.4583,-2.4743,-2.4956,-3.7822,-3.7752,-3.738,-3.74,-3.7627,-3.762,-3.7703,-3.7744,-3.7083,-3.6767,-3.6631,-3.4519,-3.2735,-3.141,-3.0878,-3.0286,-2.9658,-2.9359,-2.8992,-2.8539,-2.8468,-2.8355,-2.8261,-2.804,-2.7947,-2.7935,-2.7714,-2.7638,-2.7696,-2.7696,-2.7788,-2.7881,-2.7881,-2.8014,-2.8231,-2.8243,-2.8271,-2.8379,-2.8471,-2.851,-2.851,-2.851,-2.851,-2.851,-2.851,-2.851,-2.851,-2.8431,-2.8339,-2.8339,-2.8271,-2.814,-2.7948,-2.7445,-2.7064,0.0,0.0,0.0,0.0,0.0,0.0,0.0,0.0,0.0,0.0,0.0,-2.7952,-2.7259,-2.6751,-2.6207,-2.5505,-2.4946,-2.432,-2.3724,-2.3586,-2.3283,-2.2832,-2.302,-2.3094,-2.2869,-2.2964,-2.2969,-2.2784,-2.2706,-2.2574,-2.2441,-2.2828,-2.3232,-2.3319,-2.3363,-2.3495,-2.3811,-2.3894,-2.393,-2.4177,-2.4207,-2.4128,-2.3964,-2.386,-2.3815,-2.3717,-2.3667,-2.3754,-2.398,-2.4024,-2.4067,-2.4153,-2.4272,-2.4368,-2.4368,-2.4368,-2.4411,-2.4507,-2.4625,-2.47,-3.7576,-3.7536,-3.7057,-3.686,-3.6754,-3.6752,-3.6935,-3.7208,-3.6415,-3.5979,-3.5694,-3.3608,-3.2299,-3.1574,-3.0947,-3.0354,-2.9881,-2.9682,-2.9355,-2.8958,-2.8958,-2.8872,-2.8689,-2.8264,-2.8046,-2.8008,-2.7529,-2.7359,-2.7441,-2.7482,-2.7574,-2.7812,-2.78,-2.78,-2.78,-2.7812,-2.7921,-2.8139,-2.8351,-2.8443,-2.8431,-2.8431,-2.8431,-2.8431,-2.8431,-2.8443,-2.8443,-2.8271,-2.8167,-2.8139,-2.799,-2.7881,-2.7869,-2.7399,-2.7089,0.0,-2.66,0.0,0.0,0.0,0.0,0.0,0.0,0.0,0.0,-2.7467,-2.7435,-2.6768,-2.6113,-2.5348,-2.4456,-2.396,-2.3493,-2.3047,-2.3013,-2.2925,-2.2794,-2.2759,-2.2681,-2.2508,-2.2473,-2.2482,-2.2532,-2.2513,-2.2513,-2.2525,-2.2544,-2.2678,-2.2843,-2.2846,-2.2857,-2.3071,-2.3139,-2.3343,-2.3432,-2.3403,-2.3432,-2.3325,-2.3477,-2.3403,-2.3634,-2.3614,-2.3628,-2.3777,-2.3777,-2.3747,-2.3731,-2.3927,-2.411,-2.4077,-2.4067,-2.4196,-2.4411,-2.4411,-2.4411,-3.699,-3.6964,-3.687,-3.6551,-3.6111,-3.6075,-3.6442,-3.6956,-3.6297,-3.5382,-3.4259,-3.3456,-3.235,-3.1153,-3.0633,-3.002,-2.9172,-2.913,-2.9001,-2.8743,-2.8743,-2.8743,-2.8689,-2.8609,-2.8367,-2.7989,-2.7885,-2.7674,-2.7272,-2.7272,-2.726,-2.7353,-2.7353,-2.7353,-2.7353,0.0,0.0,0.0,-2.8002,-2.8002,-2.8002,-2.8002,-2.8014,-2.8002,-2.8002,0.0,-2.8002,-2.8002,-2.795,-2.7962,-2.7921,0.0,0.0,0.0,0.0,0.0,0.0,0.0,0.0,0.0,0.0,0.0,-2.6075,-2.6069,-2.649,-2.6696,-2.6498,-2.5821,-2.5147,-2.4466,-2.3744,-2.3276,-2.2891,-2.2564,-2.252,-2.252,-2.2476,-2.2476,-2.2555,-2.2841,-2.2879,-2.293,-2.3056,-2.314,-2.3038,-2.2815,-2.2815,-2.2908,-2.3168,-2.2796,-2.2647,-2.3021,-2.3372,-2.3647,-2.3859,-2.4137,-2.4193,-2.4234,-2.4482,-2.4502,-2.4255,-2.3994,-2.3868,-2.382,-2.3617,-2.3436,-2.33,-2.346,-2.3634,-2.3644,-2.3634,-2.3807,-2.4368,-2.4196,-2.3927,-3.6907,0.0,-3.659,-3.63,0.0,-3.598,-3.6194,-3.6462,-3.5814,-3.511,-3.4334,-3.3719,-3.2831,-3.1836,-3.1144,-3.0454,-2.9799,-2.9667,-2.9535,-2.9447,-2.9447,-2.9447,-2.9435,-2.9206,-2.8964,-2.8723,-2.8459,-2.8207,-2.7954,-2.7713,-2.7598,-2.7598,-2.7357,-2.719,-2.719,-2.719,-2.7383,-2.7696,-2.7829,-2.7881,-2.7881,-2.7881,-2.7881,-2.7881,-2.7881,0.0,0.0,0.0,0.0,0.0,0.0,0.0,0.0,-2.7313,0.0,-2.7174,-2.6918,-2.6767,-2.6727,-2.6569,-2.6405,-2.6287,-2.5719,-2.5513,-2.5954,-2.5804,-2.5527,-2.5052,-2.438,-2.3787,-2.3242,-2.275,-2.2353,-2.2087,-2.2043,-2.2043,-2.2043,-2.2043,-2.221,-2.2564,-2.2638,-2.276,-2.3037,-2.3101,-2.3054,-2.2913,-2.2913,-2.296,-2.3064,-2.2982,-2.2988,-2.336,-2.354,-2.3738,-2.386,-2.404,-2.4248,-2.4224,-2.4413,-2.4442,-2.4268,-2.4081,-2.389,-2.3515,-2.3283,-2.3149,-2.2855,-2.2969,-2.3144,-2.3154,-2.3057,-2.3101,-2.358,-2.3493,-2.3276,-3.7155,-3.7116,-3.6632,-3.6358,-3.6266,-3.6266,-3.6201,-3.6075,0.0,0.0,0.0,-3.4021,-3.33,-3.2581,-3.1737,-3.1071,-3.0532,-3.0295,-3.0216,-3.0216,-3.0216,-3.0216,-3.0193,-2.9814,-2.9573,-2.9481,-2.9056,-2.8792,-2.8677,-2.8299,-2.8115,-2.8069,-2.761,-2.7282,-2.7201,-2.719,-2.7301,-2.7452,-2.7679,-2.776,-2.776,-2.7771,-2.7771,-2.7771,-2.7771,-2.7771,-2.776,-2.7586,-2.7441,-2.7441,-2.7301,-2.719,-2.719,-2.719,-2.719,-2.719,-2.719,-2.719,-2.7149,-2.6933,-2.6592,-2.603,-2.5147,-2.4818,-2.5147,-2.4903,-2.4551,-2.4251,-2.3657,-2.311,-2.2706,-2.2318,-2.1963,-2.1741,-2.1687,-2.1687,-2.1687,-2.1687,-2.1887,-2.2245,-2.2318,-2.2437,-2.2849,-2.2913,-2.294,-2.2995,-2.3041,-2.305,-2.3125,-2.3175,-2.3215,-2.3439,-2.3458,-2.3533,-2.3636,-2.373,-2.3805,-2.4067,-2.4162,-2.4125,-2.4078,-2.4021,-2.3747,-2.2953,-2.2841,-2.2645,-2.2253,-2.2309,-2.2539,-2.2583,-2.2309,-2.2211,-2.2397,-2.2353,-2.2255,-3.7782,-3.7769,-3.7691,-3.7351,-3.6867,-3.6881,-3.6593,-3.6057,-3.5529,-3.4965,-3.4452,-3.3937,-3.3189,-3.2326,-3.1869,-3.1116,-3.0261,-3.0216,-3.0216,-3.0216,-3.0216,-3.0216,-3.0216,-3.0147,-2.9906,-2.9504,-2.9424,-2.9148,-2.8735,-2.8632,-2.8597,-2.854,-2.8115,-2.7656,-2.7224,-2.719,-2.7231,-2.726,-2.7272,-2.7313,-2.7301,-2.7313,-2.7313,-2.7313,-2.7313,-2.7313,-2.7301,-2.726,-2.7219,-2.7219,-2.719,-2.719,-2.719,-2.719,-2.719,-2.719,-2.719,-2.7108,-2.6944,-2.6704,-2.6102,-2.5158,-2.4229,-2.3797,-2.4003,-2.397,-2.3711,-2.3101,-2.2794,-2.2441,-2.223,-2.1919,-2.1741,-2.1687,-2.1687,-2.1687,-2.1687,-2.1687,-2.1842,-2.2272,-2.2327,-2.2437,-2.2821,-2.2913,-2.3023,-2.3297,-2.3325,-2.3499,-2.3694,-2.3391,-2.2997,-2.2998,-2.2998,-2.3101,-2.3401,-2.3653,-2.3916,-2.4231,-2.4496,-2.4551,-2.4298,-2.4152,-2.3593,-2.2526,-2.2326,-2.1964,-2.122,-2.1293,-2.1571,-2.1616,-2.1419,-2.1221,-2.1257,-2.0817,-2.0645,-3.79,-3.79,-3.79,-3.7756,-3.7495,-3.7482,-3.7155,-3.6593,-3.6332,-3.5874,-3.5282,-3.4414,-3.3626,-3.2908,-3.1902,-3.1116,-3.0397,-3.0261,-3.0216,-3.0216,-3.0216,-3.0216,-3.0216,-3.0216,-3.0089,-2.9894,-2.9883,-2.9757,-2.9515,-2.9263,-2.9137,-2.9079,-2.8367,-2.7862,-2.7633,-2.7369,-2.719,-2.719,-2.719,-2.719,-2.719,-2.719,-2.719,-2.719,-2.719,-2.719,-2.719,-2.719,-2.719,-2.719,-2.719,-2.719,-2.719,-2.719,-2.719,-2.719,-2.7108,-2.6974,-2.6891,-2.6207,-2.5359,-2.438,-2.3667,-2.3144,-2.2882,-2.2969,-2.2916,-2.2618,-2.2353,-2.2185,-2.2097,-2.1874,-2.1687,-2.1687,-2.1687,-2.1687,-2.1687,-2.1687,-2.1851,-2.2199,-2.2327,-2.2446,-2.2858,-2.2913,-2.2959,-2.3169,-2.3325,-2.3523,-2.3599,-2.3517,-2.3438,-2.3553,-2.3611,-2.365,-2.3756,-2.3943,-2.4112,-2.421,-2.4349,-2.4264,-2.3935,-2.3728,-2.305,-2.1874,-2.1644,-2.1332,-2.0466,-2.0564,-2.0753,-2.0753,-2.0464,-2.0275,-2.0175,-1.9729,-1.96,-3.79,-3.79,-3.79,-3.79,-3.79,-3.79,-3.7639,-3.7207,-3.7194,-3.6901,-3.6259,-3.5052,-3.4104,-3.3427,-3.2102,-3.1203,-3.0695,-3.0364,-3.0216,-3.0216,-3.0216,-3.0216,-3.0216,-3.0216,-3.0216,-3.0216,-3.0216,-3.0216,-3.017,-2.9837,-2.9596,-2.9435,-2.87,-2.8276,-2.8138,-2.7644,-2.7403,-2.7362,-2.7247,-2.719,-2.719,-2.719,-2.719,-2.719,-2.719,-2.719,-2.719,-2.719,-2.719,-2.719,-2.719,-2.719,-2.719,-2.719,-2.719,-2.7179,-2.7026,-2.6757,-2.6467,-2.5538,-2.4605,-2.3701,-2.3178,-2.2706,-2.2185,-2.2176,-2.222,-2.222,-2.2097,-2.2008,-2.1963,-2.183,-2.1687,-2.1687,-2.1687,-2.1687,-2.1687,-2.1687,-2.1797,-2.2099,-2.2144,-2.2263,-2.2538,-2.2629,-2.2648,-2.2776,-2.3114,-2.3247,-2.3109,-2.3304,-2.3533,-2.3768,-2.3939,-2.3958,-2.4003,-2.3985,-2.3926,-2.3886,-2.3827,-2.3529,-2.3129,-2.287,-2.2268,-2.1028,-2.078,-2.0512,-1.982,-1.9783,-1.9928,-1.9874,-1.9646,-1.9363,-1.9225,-1.8958,-1.8827,-3.79,-3.79,-3.79,-3.79,-3.79,-3.79,-3.7861,-3.7795,-3.7821,-3.7658,-3.7182,-3.5634,-3.4457,-3.3527,-3.2508,-3.1654,-3.0928,-3.0434,-3.0227,-3.0216,-3.0216,-3.0216,-3.0216,-3.0216,-3.0216,-3.0216,-3.0216,-3.0216,-3.0216,-3.0158,-2.9929,-2.9538,-2.9401,-2.9091,-2.8632,-2.8161,-2.792,-2.7897,-2.7419,-2.719,-2.719,-2.719,-2.719,-2.719,-2.719,-2.719,-2.719,-2.719,-2.719,-2.719,-2.719,-2.719,-2.719,-2.719,-2.719,-2.719,-2.6974,-2.6467,-2.5454,-2.47,-2.397,-2.3222,-2.275,-2.2353,-2.2097,-2.1919,-2.1776,-2.1776,-2.1776,-2.1731,-2.1741,-2.1731,-2.1687,-2.1687,-2.1687,-2.1687,-2.1687,-2.1687,-2.1705,-2.1742,-2.1787,-2.1769,-2.1879,-2.1906,-2.1998,-2.2309,-2.2702,-2.2855,-2.2618,-2.2527,-2.2456,-2.2659,-2.3049,-2.3402,-2.3429,-2.3447,-2.3338,-2.3138,-2.302,-2.2634,-2.2106,-2.161,-2.105,-1.9883,-1.9618,-1.9351,-1.8933,-1.8773,-1.8966,-1.8958,-1.8773,-1.8535,-1.8311,-1.8226,-1.8365,-3.79,-3.79,-3.79,-3.79,-3.79,-3.79,-3.79,-3.79,-3.79,-3.7749,-3.7361,-3.6299,-3.5167,-3.4032,-3.2861,-3.1844,-3.1008,-3.0778,-3.0514,-3.0239,-3.0216,-3.0216,-3.0216,-3.0216,-3.0216,-3.0216,-3.0216,-3.0216,-3.0216,-3.0216,-3.0112,-2.9906,-2.9653,-2.9389,-2.9137,-2.8666,-2.8402,-2.839,-2.7931,-2.7667,-2.7644,-2.738,-2.719,-2.719,-2.719,-2.719,-2.719,-2.719,-2.719,-2.719,-2.719,-2.719,-2.719,-2.719,-2.719,-2.7138,-2.6622,-2.5915,-2.5073,-2.4272,-2.3547,-2.2979,-2.2485,-2.2141,-2.1874,-2.1741,-2.1687,-2.1687,-2.1687,-2.1687,-2.1687,-2.1687,-2.1687,-2.1687,-2.1687,-2.1687,-2.1687,-2.1687,-2.1687,-2.1687,-2.1687,-2.1687,-2.1687,-2.1687,-2.176,-2.1961,-2.2282,-2.2427,-2.2073,-2.1978,-2.1904,-2.1667,-2.1644,-2.1965,-2.2581,-2.2878,-2.271,-2.2433,-2.2138,-2.1603,-2.0927,-2.0334,-1.9647,-1.8525,-1.8488,-1.8315,-1.7725,-1.7916,-1.8141,-1.8133,-1.8133,-1.7947,-1.7667,-1.7761,-1.7955,-3.79,-3.79,-3.79,-3.79,-3.79,-3.79,-3.79,-3.79,-3.79,-3.7762,-3.7446,-3.6794,-3.5849,-3.4649,-3.3339,-3.2253,-3.1457,-3.1134,-3.0813,-3.0434,-3.0296,-3.0216,-3.0216,-3.0216,-3.0216,-3.0216,-3.0216,-3.0216,-3.0216,-3.0216,-3.0216,-3.0158,-2.986,-2.9688,-2.9642,-2.9171,-2.8907,-2.8873,-2.8436,-2.8172,-2.8126,-2.7816,-2.7506,-2.7224,-2.719,-2.719,-2.719,-2.719,-2.719,-2.719,-2.719,-2.719,-2.719,-2.719,-2.7149,-2.6974,-2.6238,-2.5485,-2.4818,-2.3917,-2.3198,-2.2706,-2.2318,-2.2008,-2.1776,-2.1687,-2.1687,-2.1687,-2.1687,-2.1687,-2.1687,-2.1687,-2.1687,-2.1687,-2.1687,-2.1687,-2.1687,-2.1687,-2.1687,-2.1687,-2.1687,-2.1687,-2.1687,-2.1687,-2.1705,-2.1751,-2.1943,-2.198,-2.155,-2.1383,-2.1208,-2.0861,-2.0351,-2.054,-2.1578,-2.1761,-2.167,-2.1378,-2.0908,-2.039,-1.9744,-1.911,-1.8581,-1.7853,-1.764,-1.7467,-1.72,-1.7301,-1.7441,-1.7488,-1.7527,-1.7559,-1.738,-1.7475,-1.7448,-3.79,-3.79,-3.79,-3.79,-3.79,-3.79,-3.79,-3.79,-3.79,-3.7749,-3.7459,-3.6909,-3.6273,-3.5425,-3.4007,-3.2953,-3.2319,-3.1479,-3.1031,-3.0893,-3.048,-3.0227,-3.0216,-3.0216,-3.0216,-3.0216,-3.0216,-3.0216,-3.0216,-3.0216,-3.0216,-3.0204,-3.0158,-3.017,-3.0089,-2.9676,-2.9458,-2.9412,-2.8941,-2.8666,-2.8666,-2.8632,-2.8138,-2.7362,-2.7213,-2.7224,-2.719,-2.719,-2.719,-2.719,-2.719,-2.719,-2.719,-2.719,-2.7015,-2.6633,-2.5946,-2.5232,-2.4541,-2.3691,-2.2916,-2.2485,-2.222,-2.2008,-2.1731,-2.1687,-2.1687,-2.1687,-2.1687,-2.1687,-2.1687,-2.1687,-2.1687,-2.1687,-2.1687,-2.1687,-2.1687,-2.1687,-2.1687,-2.1687,-2.1687,-2.1687,-2.1687,-2.1687,-2.1687,-2.1687,-2.1723,-2.1616,-2.1185,-2.0741,-2.0457,-2.0118,-1.9668,-1.9351,-2.016,-2.041,-2.0076,-1.9856,-1.9699,-1.9151,-1.8511,-1.7966,-1.7527,-1.7183,-1.6933,-1.678,-1.6672,-1.6683,-1.6831,-1.6958,-1.7188,-1.7181,-1.7123,-1.7026,-1.7007,-3.79,-3.79,-3.79,-3.79,-3.79,-3.79,-3.79,-3.79,-3.79,-3.7854,-3.7657,-3.7168,-3.6628,-3.5976,-3.5004,-3.3861,-3.2758,-3.2195,-3.1616,-3.1065,-3.0813,-3.0549,-3.0239,-3.0216,-3.0216,-3.0216,-3.0216,-3.0216,-3.0216,-3.0216,-3.0216,-3.0216,-3.0216,-3.0216,-3.0193,-3.0044,-2.9952,-2.9894,-2.9458,-2.9206,-2.9171,-2.8884,-2.8505,-2.8195,-2.7862,-2.7552,-2.7201,-2.719,-2.719,-2.719,-2.719,-2.719,-2.719,-2.719,-2.7026,-2.6592,-2.5874,-2.5232,-2.4498,-2.3647,-2.2916,-2.2441,-2.223,-2.2008,-2.1785,-2.1687,-2.1687,-2.1687,-2.1687,-2.1687,-2.1687,-2.1687,-2.1687,-2.1687,-2.1687,-2.1687,-2.1687,-2.1687,-2.1687,-2.1687,-2.1687,-2.1687,-2.1687,-2.1687,-2.1687,-2.1687,-2.1687,-2.1508,-2.1096,-2.0736,-2.0406,-1.9812,-1.915,-1.8668,-1.8541,-1.9059,-1.912,-1.8912,-1.8622,-1.814,-1.7553,-1.7099,-1.6663,-1.6519,-1.6286,-1.6259,-1.6204,-1.6351,-1.6412,-1.6619,-1.6804,-1.6764,-1.6803,-1.6574,-1.6564,-3.79,-3.79,-3.79,-3.79,-3.79,-3.79,-3.79,-3.79,-3.79,-3.79,-3.7808,-3.74,-3.6968,-3.6474,-3.5775,-3.4836,-3.3596,-3.2948,-3.2218,-3.1502,-3.1169,-3.0824,-3.0491,-3.0296,-3.0216,-3.0216,-3.0216,-3.0216,-3.0216,-3.0216,-3.0216,-3.0216,-3.0216,-3.0216,-3.0216,-3.0216,-3.0216,-3.0147,-2.9894,-2.9734,-2.9676,-2.9378,-2.9102,-2.8941,-2.8632,-2.8149,-2.7518,-2.7472,-2.7339,-2.7224,-2.719,-2.719,-2.719,-2.719,-2.7026,-2.6592,-2.5999,-2.5359,-2.4637,-2.3744,-2.3057,-2.2662,-2.2318,-2.2008,-2.183,-2.1741,-2.1687,-2.1687,-2.1687,-2.1687,-2.1687,-2.1687,-2.1687,-2.1687,-2.1687,-2.1687,-2.1687,-2.1687,-2.1687,-2.1687,-2.1687,-2.1687,-2.1687,-2.1687,-2.1687,-2.1687,-2.1687,-2.1553,-2.1195,-2.0871,-2.0473,-1.9799,-1.9082,-1.8489,-1.8186,-1.8253,-1.8115,-1.7838,-1.7674,-1.7173,-1.6855,-1.6375,-1.6089,-1.5879,-1.5825,-1.5825,-1.5846,-1.5987,-1.6135,-1.6294,-1.6303,-1.6252,-1.619,-1.6077,-1.6037,-3.79,-3.79,-3.79,-3.79,-3.79,-3.79,-3.79,-3.79,-3.79,-3.79,-3.7854,-3.7611,-3.7366,-3.6968,-3.6345,-3.5667,-3.4921,-3.3729,-3.2829,-3.2319,-3.1513,-3.11,-3.0996,-3.0526,-3.0262,-3.0216,-3.0216,-3.0216,-3.0216,-3.0216,-3.0216,-3.0216,-3.0216,-3.0216,-3.0216,-3.0216,-3.0216,-3.0204,-3.0158,-3.017,-3.0204,-3.0112,-2.9894,-2.955,-2.9447,-2.8999,-2.8111,-2.7966,-2.7725,-2.7305,-2.7236,-2.7213,-2.7305,-2.7328,-2.7072,-2.667,-2.6188,-2.5633,-2.4903,-2.4067,-2.346,-2.3057,-2.2485,-2.2185,-2.2052,-2.1865,-2.1731,-2.1687,-2.1687,-2.1687,-2.1687,-2.1687,-2.1687,-2.1687,-2.1687,-2.1687,-2.1687,-2.1687,-2.1687,-2.1687,-2.1687,-2.1687,-2.1687,-2.1687,-2.1687,-2.1687,-2.1687,-2.1651,-2.1392,-2.1024,-2.0564,-1.9973,-1.9325,-1.8727,-1.8133,-1.7549,-1.7142,-1.6779,-1.6599,-1.6306,-1.6334,-1.6035,-1.5981,-1.5825,-1.5825,-1.5818,-1.5671,-1.5758,-1.5709,-1.5812,-1.5739,-1.5679,-1.5618,-1.5579,-1.5504,-3.79,-3.79,-3.79,-3.79,-3.79,-3.79,-3.79,-3.79,-3.79,-3.79,-3.79,-3.7808,-3.7598,-3.7353,-3.6909,-3.6392,-3.5715,-3.4824,-3.3896,-3.2855,-3.2252,-3.1823,-3.1479,-3.1008,-3.0583,-3.0273,-3.0216,-3.0216,-3.0216,-3.0216,-3.0216,-3.0216,-3.0216,-3.0216,-3.0216,-3.0216,-3.0216,-3.0216,-3.0216,-3.0216,-3.0216,-3.0216,-3.0135,-3.0009,-2.9998,-2.9676,-2.9045,-2.8356,-2.7931,-2.7736,-2.7748,-2.7897,-2.8149,-2.823,-2.7869,-2.7164,-2.6801,-2.6159,-2.52,-2.454,-2.3957,-2.346,-2.3023,-2.2574,-2.2185,-2.2008,-2.1874,-2.1731,-2.1687,-2.1687,-2.1687,-2.1687,-2.1687,-2.1687,-2.1687,-2.1687,-2.1687,-2.1687,-2.1687,-2.1687,-2.1687,-2.1687,-2.1687,-2.1687,-2.1696,-2.1687,-2.1687,-2.1607,-2.1437,-2.1257,-2.0888,-2.0292,-1.9646,-1.9088,-1.845,-1.7846,-1.7286,-1.6777,-1.6359,-1.6076,-1.5981,-1.5927,-1.5825,-1.5825,-1.5825,-1.5745,-1.5605,-1.5491,-1.5448,-1.5316,-1.5219,-1.517,-1.5131,-1.508,-1.5006,-3.79,-3.79,-3.79,-3.79,-3.79,-3.79,-3.79,-3.79,-3.79,-3.79,-3.79,-3.79,-3.7808,-3.7611,-3.7366,-3.6922,-3.6392,-3.5787,-3.4884,-3.3729,-3.2876,-3.245,-3.2032,-3.1525,-3.1008,-3.0549,-3.0514,-3.0399,-3.0216,-3.0216,-3.0216,-3.0216,-3.0216,-3.0216,-3.0216,-3.0216,-3.0216,-3.0216,-3.0216,-3.0216,-3.0216,-3.0216,-3.0216,-3.0216,-3.0216,-3.0055,-2.9722,-2.8964,-2.8356,-2.8069,-2.7989,-2.8218,-2.8643,-2.8666,-2.8391,-2.7874,-2.7516,-2.7081,-2.6098,-2.5475,-2.4735,-2.4116,-2.3451,-2.2838,-2.2309,-2.2141,-2.1963,-2.1731,-2.1687,-2.1687,-2.1687,-2.1687,-2.1651,-2.1607,-2.1642,-2.1642,-2.1607,-2.1607,-2.1562,-2.1562,-2.1651,-2.1696,-2.1687,-2.1607,-2.1651,-2.1651,-2.1651,-2.1607,-2.1482,-2.1446,-2.1024,-2.0609,-2.0155,-1.95,-1.8812,-1.8156,-1.7559,-1.6958,-1.6447,-1.6123,-1.5879,-1.5879,-1.5825,-1.5825,-1.5825,-1.5691,-1.5545,-1.5311,-1.5169,-1.4945,-1.4714,-1.4615,-1.4593,-1.4574,-1.4536,-3.79,-3.79,-3.79,-3.79,-3.79,-3.79,-3.79,-3.79,-3.79,-3.79,-3.79,-3.79,-3.7913,-3.7854,-3.7611,-3.7366,-3.7028,-3.6392,-3.5715,-3.4824,-3.3824,-3.2913,-3.24,-3.1961,-3.1525,-3.1111,-3.1054,-3.079,-3.0376,-3.0342,-3.0239,-3.0227,-3.0216,-3.0216,-3.0216,-3.0216,-3.0216,-3.0216,-3.017,-3.0182,-3.0182,-3.0182,-3.0182,-3.017,-3.017,-3.0193,-3.0078,-2.9563,-2.8932,-2.823,-2.8153,-2.8382,-2.8735,-2.8781,-2.8797,-2.8457,-2.8434,-2.8018,-2.736,-2.6464,-2.5672,-2.4938,-2.3953,-2.2964,-2.258,-2.2276,-2.2008,-2.1731,-2.1696,-2.1651,-2.1651,-2.1597,-2.1535,-2.1482,-2.1509,-2.1517,-2.1392,-2.1392,-2.1383,-2.1383,-2.1562,-2.1642,-2.1597,-2.1428,-2.1472,-2.1517,-2.1472,-2.1428,-2.1517,-2.1482,-2.1293,-2.097,-2.0564,-2.0102,-1.9409,-1.8758,-1.8156,-1.7552,-1.6918,-1.6407,-1.5974,-1.5879,-1.5825,-1.5825,-1.5745,-1.5618,-1.5404,-1.513,-1.485,-1.4599,-1.4372,-1.4142,-1.413,-1.4215,-1.4257,-3.79,-3.79,-3.79,-3.79,-3.79,-3.79,-3.79,-3.79,-3.79,-3.79,-3.79,-3.79,-3.79,-3.79,-3.7808,-3.7657,-3.732,-3.6968,-3.6285,-3.5463,-3.4703,-3.3605,-3.2693,-3.2363,-3.203,-3.1616,-3.1559,-3.1306,-3.0836,-3.0767,-3.0595,-3.0227,-3.0227,-3.0216,-3.0216,-3.0216,-3.0216,-3.0182,-3.0057,-2.9966,-2.9966,-2.9966,-2.9966,-2.9966,-3.0091,-3.017,-3.0125,-2.9555,-2.9224,-2.916,-2.8904,-2.9121,-2.9655,-2.9712,-2.9518,-2.9078,-2.8966,-2.8598,-2.7767,-2.7085,-2.6413,-2.5658,-2.4664,-2.3811,-2.2976,-2.2523,-2.2169,-2.1785,-2.1562,-2.1491,-2.1437,-2.1356,-2.1329,-2.1498,-2.1382,-2.1248,-2.1194,-2.1096,-2.1096,-2.1141,-2.1212,-2.1293,-2.1311,-2.123,-2.1176,-2.1221,-2.1203,-2.1195,-2.1383,-2.1437,-2.1248,-2.1248,-2.097,-2.0564,-2.0056,-1.9409,-1.8758,-1.8203,-1.752,-1.6798,-1.6312,-1.5927,-1.5879,-1.5825,-1.5631,-1.5484,-1.5157,-1.4843,-1.4549,-1.4322,-1.4195,-1.4088,-1.4088,-1.413,-1.413,-3.79,-3.79,-3.79,-3.79,-3.79,-3.79,-3.79,-3.79,-3.79,-3.79,-3.79,-3.79,-3.79,-3.79,-3.79,-3.7808,-3.7657,-3.74,-3.6862,-3.6203,-3.5235,-3.406,-3.3125,-3.2822,-3.2558,-3.211,-3.2076,-3.1777,-3.1352,-3.1134,-3.0836,-3.0572,-3.0319,-3.0227,-3.0216,-3.0216,-3.0136,-3.0102,-2.9977,-2.984,-2.9737,-2.9737,-2.9737,-2.9726,-2.9852,-2.9897,-2.9852,-2.9387,-2.9252,-2.9342,-2.9172,-2.9296,-2.9988,-3.0102,-2.9908,-2.9635,-2.9612,-2.9251,-2.8545,-2.792,-2.7173,-2.6274,-2.5355,-2.4465,-2.3621,-2.2943,-2.2348,-2.2178,-2.1725,-2.1536,-2.1545,-2.1433,-2.1452,-2.1582,-2.1395,-2.1208,-2.1309,-2.1391,-2.1355,-2.1347,-2.1401,-2.1448,-2.1439,-2.126,-2.1172,-2.1173,-2.1049,-2.1095,-2.1141,-2.1203,-2.1275,-2.1248,-2.1104,-2.0698,-2.0406,-1.9858,-1.9368,-1.8801,-1.8044,-1.733,-1.6644,-1.6103,-1.5879,-1.5772,-1.5545,-1.5304,-1.501,-1.4723,-1.4462,-1.4275,-1.4148,-1.4088,-1.4088,-1.4088,-1.4088,-3.79,-3.79,-3.79,-3.79,-3.79,-3.79,-3.79,-3.79,-3.79,-3.79,-3.79,-3.79,-3.79,-3.79,-3.79,-3.79,-3.7854,-3.7657,-3.7248,-3.6534,-3.5536,-3.4288,-3.3449,-3.3239,-3.2971,-3.2627,-3.2569,-3.2282,-3.1869,-3.141,-3.1123,-3.0858,-3.0468,-3.0239,-3.0159,-3.0136,-3.0,-2.9874,-2.9737,-2.9646,-2.9497,-2.9451,-2.9451,-2.9485,-2.9531,-2.9531,-2.9451,-2.9222,-2.9187,-2.9439,-2.8969,-2.9218,-2.9749,-2.984,-2.9909,-3.0,-2.9966,-2.9829,-2.9442,-2.8687,-2.7965,-2.6836,-2.586,-2.4973,-2.4183,-2.3369,-2.2804,-2.263,-2.1935,-2.1688,-2.1664,-2.1758,-2.1735,-2.1774,-2.1591,-2.1617,-2.1787,-2.1791,-2.1748,-2.1739,-2.1873,-2.1995,-2.1868,-2.1637,-2.1281,-2.1311,-2.1171,-2.1211,-2.1206,-2.1244,-2.1245,-2.122,-2.1066,-2.0804,-2.052,-2.028,-1.9857,-1.9383,-1.8539,-1.7757,-1.694,-1.6408,-1.6001,-1.5745,-1.5551,-1.5304,-1.5062,-1.473,-1.4436,-1.4229,-1.4108,-1.4088,-1.4088,-1.4088,-1.4088,-3.79,-3.79,-3.79,-3.79,-3.79,-3.79,-3.79,-3.79,-3.79,-3.79,-3.79,-3.79,-3.79,-3.79,-3.79,-3.79,-3.79,-3.7795,-3.7366,-3.638,-3.5596,-3.4677,-3.3904,-3.353,-3.3224,-3.3074,-3.3109,-3.2822,-3.2386,-3.2073,-3.1766,-3.1042,-3.0649,-3.0341,-3.0,-2.9794,-2.9623,-2.9542,-2.9416,-2.9266,-2.922,-2.9174,-2.9209,-2.9209,-2.9347,-2.9347,-2.922,-2.9128,-2.9082,-2.9013,-2.9028,-2.9168,-2.9509,-2.9588,-2.9634,-2.9726,-2.9874,-2.9737,-2.929,-2.896,-2.849,-2.739,-2.6485,-2.5568,-2.4657,-2.3926,-2.3299,-2.2898,-2.2348,-2.191,-2.1665,-2.1553,-2.1738,-2.1896,-2.1925,-2.2028,-2.2223,-2.1879,-2.1612,-2.1609,-2.1617,-2.1566,-2.1583,-2.1557,-2.1436,-2.1419,-2.1406,-2.1401,-2.1348,-2.1267,-2.1298,-2.1274,-2.1237,-2.1061,-2.0928,-2.0717,-2.0376,-1.9878,-1.9056,-1.8207,-1.7383,-1.6707,-1.6333,-1.592,-1.5578,-1.5304,-1.5062,-1.473,-1.4436,-1.4255,-1.4088,-1.4088,-1.4088,-1.4088,-1.4088,-3.79,-3.79,-3.79,-3.79,-3.79,-3.79,-3.79,-3.79,-3.79,-3.79,-3.79,-3.79,-3.79,-3.79,-3.79,-3.79,-3.79,-3.79,-3.7551,-3.6815,-3.6048,-3.5295,-3.4519,-3.3805,-3.3381,-3.3142,-3.2958,-3.2726,-3.251,-3.2237,-3.1814,-3.1303,-3.0742,-3.03,-3.0007,-2.9666,-2.9451,-2.9301,-2.9174,-2.9035,-2.8989,-2.8943,-2.8943,-2.8943,-2.9071,-2.9071,-2.8989,-2.8943,-2.8896,-2.885,-2.8885,-2.9071,-2.9255,-2.9312,-2.9347,-2.9531,-2.9588,-2.9508,-2.922,-2.9035,-2.8642,-2.7689,-2.6909,-2.6212,-2.5311,-2.445,-2.3824,-2.3418,-2.289,-2.2221,-2.1952,-2.208,-2.2203,-2.2225,-2.2252,-2.2405,-2.2474,-2.2225,-2.1944,-2.1993,-2.2036,-2.2036,-2.1936,-2.1773,-2.1687,-2.1767,-2.15,-2.1432,-2.1397,-2.1346,-2.1384,-2.1397,-2.1444,-2.1423,-2.1341,-2.1151,-2.087,-2.0346,-1.9653,-1.875,-1.7849,-1.7187,-1.6588,-1.6141,-1.5712,-1.5311,-1.5062,-1.473,-1.4462,-1.4229,-1.4095,-1.4088,-1.4088,-1.4088,-1.4088,-3.79,-3.79,-3.79,-3.79,-3.79,-3.79,-3.79,-3.79,-3.79,-3.79,-3.79,-3.79,-3.79,-3.79,-3.79,-3.79,-3.79,-3.79,-3.7657,-3.7307,-3.6615,-3.5906,-3.509,-3.4176,-3.3408,-3.293,-3.2667,-3.251,-3.2398,-3.2062,-3.1881,-3.1558,-3.0834,-3.0343,-3.0097,-2.9715,-2.9366,-2.9104,-2.9035,-2.8989,-2.8803,-2.8757,-2.871,-2.8757,-2.8757,-2.8803,-2.8803,-2.8803,-2.871,-2.8757,-2.8699,-2.8746,-2.8896,-2.9035,-2.9128,-2.9393,-2.9393,-2.9312,-2.9117,-2.9035,-2.871,-2.7783,-2.7278,-2.6744,-2.5972,-2.5006,-2.4362,-2.3932,-2.3437,-2.2768,-2.2556,-2.265,-2.2741,-2.2619,-2.2585,-2.2603,-2.2603,-2.2603,-2.2517,-2.2517,-2.2405,-2.2362,-2.2354,-2.2259,-2.2133,-2.2021,-2.1739,-2.1559,-2.1542,-2.1499,-2.1556,-2.1604,-2.1652,-2.1855,-2.1844,-2.1764,-2.1517,-2.0901,-2.0256,-1.9417,-1.8476,-1.7735,-1.7089,-1.6332,-1.5872,-1.5509,-1.5169,-1.4883,-1.4596,-1.4269,-1.4102,-1.4088,-1.4088,-1.4088,-1.413,-3.79,-3.79,-3.79,-3.79,-3.79,-3.79,-3.79,-3.79,-3.79,-3.79,-3.79,-3.79,-3.79,-3.79,-3.79,-3.79,-3.79,-3.79,-3.7749,-3.7459,-3.6909,-3.625,-3.5475,-3.4458,-3.3545,-3.2946,-3.2594,-3.2443,-3.2443,-3.2392,-3.1984,-3.166,-3.1256,-3.0747,-3.0123,-2.9653,-2.9305,-2.9017,-2.8929,-2.885,-2.8757,-2.8571,-2.8488,-2.8488,-2.8477,-2.8571,-2.8664,-2.8571,-2.8488,-2.8441,-2.8243,-2.8186,-2.8326,-2.8606,-2.8839,-2.8932,-2.9082,-2.9035,-2.8932,-2.8989,-2.8803,-2.8301,-2.7773,-2.7156,-2.6418,-2.5596,-2.4907,-2.4361,-2.3941,-2.3399,-2.2933,-2.3003,-2.2878,-2.2695,-2.2603,-2.2603,-2.2603,-2.2603,-2.2603,-2.2603,-2.2603,-2.2603,-2.2534,-2.25,-2.2431,-2.2362,-2.2242,-2.2139,-2.2156,-2.1996,-2.1942,-2.1942,-2.1901,-2.2165,-2.2379,-2.2321,-2.2155,-2.1562,-2.0899,-2.0238,-1.9293,-1.8349,-1.7577,-1.6892,-1.6278,-1.5878,-1.5521,-1.5134,-1.475,-1.4429,-1.4262,-1.4137,-1.4166,-1.4208,-1.4166,-3.79,-3.79,-3.79,-3.79,-3.79,-3.79,-3.79,-3.79,-3.79,-3.79,-3.79,-3.79,-3.79,-3.79,-3.79,-3.79,-3.79,-3.79,-3.7808,-3.7611,-3.7168,-3.6534,-3.5763,-3.4702,-3.372,-3.2935,-3.2432,-3.2179,-3.2037,-3.2015,-3.1882,-3.1644,-3.1262,-3.0855,-3.0394,-2.9803,-2.9412,-2.9106,-2.8899,-2.8721,-2.8581,-2.8337,-2.8196,-2.8196,-2.8196,-2.8243,-2.8337,-2.8279,-2.8196,-2.8196,-2.8092,-2.7987,-2.8092,-2.8186,-2.843,-2.8571,-2.8664,-2.8803,-2.8792,-2.8896,-2.8757,-2.8441,-2.8008,-2.7536,-2.6928,-2.6197,-2.5372,-2.4677,-2.4242,-2.3854,-2.3438,-2.3297,-2.3097,-2.2854,-2.2703,-2.2603,-2.2603,-2.2603,-2.2603,-2.2603,-2.2603,-2.2603,-2.2603,-2.2585,-2.2594,-2.2603,-2.2603,-2.2603,-2.2603,-2.2457,-2.2251,-2.2259,-2.2201,-2.2354,-2.2542,-2.2568,-2.2443,-2.1954,-2.1511,-2.0841,-2.014,-1.9159,-1.8297,-1.7438,-1.6911,-1.6405,-1.5775,-1.5388,-1.499,-1.4633,-1.4464,-1.4304,-1.4306,-1.4286,-1.4286,-3.79,-3.79,-3.79,-3.79,-3.79,-3.79,-3.79,-3.79,-3.79,-3.79,-3.79,-3.79,-3.79,-3.79,-3.79,-3.79,-3.79,-3.79,-3.79,-3.7808,-3.7413,-3.6781,-3.6048,-3.5126,-3.4103,-3.3085,-3.2533,-3.1964,-3.1721,-3.1669,-3.1618,-3.1549,-3.1192,-3.0913,-3.0651,-3.0101,-2.9698,-2.9226,-2.8998,-2.8618,-2.8265,-2.8055,-2.7904,-2.7904,-2.794,-2.7951,-2.8045,-2.7951,-2.7951,-2.7904,-2.7857,-2.7857,-2.7857,-2.7867,-2.7961,-2.8196,-2.8301,-2.8488,-2.8617,-2.871,-2.8664,-2.8535,-2.8186,-2.782,-2.7299,-2.6534,-2.5703,-2.4873,-2.4538,-2.4301,-2.3945,-2.3696,-2.3397,-2.3097,-2.2846,-2.2653,-2.2653,-2.2603,-2.2603,-2.2603,-2.2603,-2.2603,-2.2603,-2.2603,-2.2603,-2.2603,-2.2603,-2.2603,-2.2603,-2.2603,-2.2491,-2.2517,-2.2525,-2.2525,-2.2585,-2.2585,-2.2443,-2.2106,-2.1778,-2.1354,-2.0711,-1.9963,-1.9105,-1.8315,-1.771,-1.7152,-1.6387,-1.5707,-1.5383,-1.5059,-1.4697,-1.4514,-1.4488,-1.4496,-1.4531,-3.79,-3.79,-3.79,-3.79,-3.79,-3.79,-3.79,-3.79,-3.79,-3.79,-3.79,-3.79,-3.79,-3.79,-3.79,-3.79,-3.79,-3.79,-3.79,-3.7854,-3.7564,-3.7121,-3.6534,-3.5846,-3.4641,-3.3522,-3.2896,-3.2291,-3.1783,-3.1567,-3.1567,-3.1524,-3.1469,-3.1204,-3.0694,-3.0331,-2.9816,-2.9015,-2.8754,-2.8423,-2.7868,-2.771,-2.7631,-2.7631,-2.7678,-2.7726,-2.7857,-2.7773,-2.7678,-2.7631,-2.7489,-2.7394,-2.7394,-2.7347,-2.7499,-2.7689,-2.7914,-2.8196,-2.8384,-2.843,-2.8524,-2.8477,-2.8233,-2.7904,-2.7394,-2.6678,-2.5907,-2.5323,-2.5137,-2.4892,-2.4489,-2.4134,-2.3777,-2.3379,-2.3038,-2.2795,-2.2695,-2.2603,-2.2603,-2.2603,-2.2603,-2.2603,-2.2603,-2.2603,-2.2603,-2.2603,-2.2603,-2.2603,-2.2603,-2.2603,-2.2603,-2.2603,-2.2603,-2.2603,-2.2603,-2.2603,-2.2493,-2.2232,-2.2038,-2.1804,-2.1279,-2.0662,-2.007,-1.9316,-1.8659,-1.794,-1.7145,-1.6512,-1.5934,-1.55,-1.5239,-1.497,-1.4692,-1.472,-1.4888,-3.79,-3.79,-3.79,-3.79,-3.79,-3.79,-3.79,-3.79,-3.79,-3.79,-3.79,-3.79,-3.79,-3.79,-3.79,-3.79,-3.79,-3.79,-3.79,-3.7854,-3.7598,-3.7201,-3.6628,-3.5906,-3.4933,-3.393,-3.3097,-3.2331,-3.1823,-3.1567,-3.1567,-3.1578,-3.1476,-3.1246,-3.074,-3.0434,-3.0024,-2.9416,-2.8894,-2.8347,-2.7971,-2.7656,-2.7452,-2.7452,-2.7441,-2.7547,-2.7547,-2.7536,-2.7452,-2.7441,-2.7299,-2.7309,-2.7309,-2.7309,-2.7357,-2.7404,-2.7536,-2.7773,-2.8102,-2.8149,-2.8243,-2.8279,-2.8081,-2.7809,-2.7404,-2.6832,-2.6207,-2.581,-2.5616,-2.5372,-2.4971,-2.4578,-2.4084,-2.3628,-2.3288,-2.2946,-2.2745,-2.2653,-2.2603,-2.2603,-2.2603,-2.2603,-2.2603,-2.2603,-2.2603,-2.2603,-2.2603,-2.2603,-2.2603,-2.2603,-2.2603,-2.2603,-2.2603,-2.2603,-2.2603,-2.2603,-2.2603,-2.2443,-2.2443,-2.2164,-2.182,-2.1271,-2.0737,-2.024,-1.9667,-1.8895,-1.8035,-1.7206,-1.65,-1.6128,-1.5826,-1.5596,-1.5376,-1.551,-1.5587,-3.79,-3.79,-3.79,-3.79,-3.79,-3.79,-3.79,-3.79,-3.79,-3.79,-3.79,-3.79,-3.79,-3.79,-3.79,-3.7854,-3.7795,-3.7808,-3.7762,-3.7657,-3.7459,-3.7108,-3.6581,-3.5906,-3.509,-3.3991,-3.3296,-3.2533,-3.1924,-3.1567,-3.1424,-3.1424,-3.1178,-3.1002,-3.0865,-3.0508,-3.0069,-2.9653,-2.8851,-2.8345,-2.8077,-2.77,-2.7455,-2.7351,-2.732,-2.732,-2.732,-2.732,-2.7309,-2.7309,-2.7309,-2.732,-2.732,-2.7309,-2.7309,-2.7357,-2.7357,-2.7489,-2.7715,-2.7857,-2.794,-2.794,-2.7893,-2.7726,-2.7357,-2.688,-2.6592,-2.6352,-2.6159,-2.5907,-2.5567,-2.5118,-2.4677,-2.4134,-2.3587,-2.3147,-2.2804,-2.2703,-2.2603,-2.2603,-2.2603,-2.2603,-2.2603,-2.2603,-2.2603,-2.2603,-2.2603,-2.2603,-2.2603,-2.2603,-2.2603,-2.2603,-2.2603,-2.2603,-2.2603,-2.2603,-2.2603,-2.2603,-2.2603,-2.2526,-2.2173,-2.1862,-2.1445,-2.0966,-2.0499,-2.0022,-1.9295,-1.82,-1.7117,-1.6844,-1.6572,-1.6323,-1.6191,-1.6282,-1.6187,-3.79,-3.79,-3.79,-3.79,-3.79,-3.79,-3.79,-3.79,-3.79,-3.79,-3.79,-3.79,-3.7854,-3.7854,-3.7808,-3.7703,-3.7505,-3.7518,-3.7413,-3.7261,-3.7108,-3.6875,-3.6452,-3.5978,-3.5247,-3.4127,-3.3396,-3.2684,-3.1975,-3.1373,-3.1127,-3.0879,-3.0817,-3.0661,-3.0536,-3.039,-3.0025,-2.9578,-2.8936,-2.845,-2.818,-2.7872,-2.7665,-2.7413,-2.733,-2.732,-2.732,-2.732,-2.732,-2.732,-2.732,-2.732,-2.732,-2.732,-2.732,-2.732,-2.732,-2.7357,-2.7489,-2.7584,-2.7773,-2.7857,-2.7773,-2.7536,-2.7309,-2.732,-2.7081,-2.6842,-2.6699,-2.6602,-2.6294,-2.5897,-2.5265,-2.4578,-2.3935,-2.3338,-2.2946,-2.2695,-2.2644,-2.2603,-2.2603,-2.2603,-2.2603,-2.2603,-2.2603,-2.2603,-2.2603,-2.2603,-2.2603,-2.2603,-2.2603,-2.2603,-2.2603,-2.2603,-2.2603,-2.2603,-2.2603,-2.2603,-2.2603,-2.2603,-2.2518,-2.2206,-2.1954,-2.1686,-2.1238,-2.0941,-2.0508,-1.9431,-1.8472,-1.7766,-1.7304,-1.7131,-1.6844,-1.6718,-1.658,-3.79,-3.79,-3.79,-3.79,-3.79,-3.79,-3.79,-3.79,-3.79,-3.79,-3.7913,-3.7749,-3.7657,-3.7611,-3.7459,-3.7366,-3.7261,-3.7261,-3.7155,-3.7062,-3.6909,-3.6687,-3.6358,-3.5847,-3.5211,-3.4286,-3.3545,-3.2684,-3.1772,-3.127,-3.0713,-3.0464,-3.0516,-3.0505,-3.0401,-3.0245,-2.9964,-2.9725,-2.9301,-2.8907,-2.8731,-2.8152,-2.7841,-2.7696,-2.7382,-2.733,-2.732,-2.732,-2.732,-2.732,-2.732,-2.732,-2.732,-2.732,-2.732,-2.732,-2.732,-2.732,-2.732,-2.7404,-2.7499,-2.7499,-2.7441,-2.7404,-2.732,-2.732,-2.7262,-2.7177,-2.7129,-2.6986,-2.6747,-2.6245,-2.5654,-2.4922,-2.4282,-2.3687,-2.3188,-2.2896,-2.2644,-2.2594,-2.2603,-2.2603,-2.2603,-2.2603,-2.2603,-2.2603,-2.2603,-2.2603,-2.2603,-2.2603,-2.2603,-2.2603,-2.2603,-2.2603,-2.2603,-2.2603,-2.2603,-2.2603,-2.2603,-2.2603,-2.2603,-2.2585,-2.234,-2.2146,-2.192,-2.1569,-2.1131,-2.0549,-1.9782,-1.8894,-1.8341,-1.7971,-1.766,-1.7262,-1.7021,-3.79,-3.79,-3.79,-3.79,-3.79,-3.79,-3.79,-3.79,-3.79,-3.7854,-3.7749,-3.7598,-3.7459,-3.7353,-3.7201,-3.7062,-3.7015,-3.6956,-3.6922,-3.6828,-3.6675,-3.6452,-3.6133,-3.5704,-3.5187,-3.4347,-3.3545,-3.2684,-3.1772,-3.1127,-3.062,-3.036,-3.0203,-3.0245,-3.0245,-3.0088,-2.9994,-2.9901,-2.9735,-2.9394,-2.9208,-2.8731,-2.8235,-2.811,-2.7728,-2.7521,-2.7448,-2.7434,-2.732,-2.732,-2.732,-2.732,-2.732,-2.732,-2.732,-2.732,-2.732,-2.732,-2.732,-2.732,-2.732,-2.7357,-2.7357,-2.7309,-2.732,-2.732,-2.7272,-2.732,-2.7262,-2.7214,-2.6986,-2.6582,-2.6091,-2.546,-2.4735,-2.4084,-2.3438,-2.3038,-2.2787,-2.2594,-2.2594,-2.2603,-2.2603,-2.2603,-2.2603,-2.2603,-2.2603,-2.2603,-2.2603,-2.2603,-2.2603,-2.2603,-2.2603,-2.2603,-2.2603,-2.2603,-2.2603,-2.2603,-2.2603,-2.2603,-2.2603,-2.2603,-2.2603,-2.2416,-2.2256,-2.213,-2.1811,-2.1329,-2.0703,-1.9981,-1.9421,-1.8913,-1.8258,-1.785,-1.7552,-3.79,-3.79,-3.79,-3.79,-3.79,-3.79,-3.79,-3.79,-3.79,-3.7762,-3.7564,-3.7505,-3.7307,-3.7168,-3.7015,-3.6875,-3.6722,-3.6722,-3.6628,-3.6546,-3.6452,-3.6086,-3.586,-3.5524,-3.509,-3.4162,-3.3507,-3.2835,-3.1964,-3.123,-3.0724,-3.0349,-3.0193,-3.0047,-3.0047,-2.9994,-2.9994,-2.9994,-2.9953,-2.9704,-2.9435,-2.9187,-2.8876,-2.8587,-2.8152,-2.7914,-2.7728,-2.7521,-2.7434,-2.732,-2.732,-2.732,-2.732,-2.732,-2.732,-2.732,-2.732,-2.732,-2.732,-2.732,-2.732,-2.732,-2.732,-2.732,-2.732,-2.732,-2.732,-2.732,-2.732,-2.732,-2.7167,-2.6976,-2.6496,-2.5955,-2.5177,-2.4489,-2.3886,-2.3188,-2.2937,-2.2745,-2.2644,-2.2603,-2.2603,-2.2603,-2.2603,-2.2603,-2.2603,-2.2603,-2.2603,-2.2603,-2.2603,-2.2603,-2.2603,-2.2603,-2.2603,-2.2603,-2.2603,-2.2603,-2.2603,-2.2603,-2.2603,-2.2603,-2.2603,-2.2594,-2.2518,-2.2366,-2.2314,-2.2194,-2.1524,-2.0823,-2.0307,-1.9731,-1.9035,-1.8511,-1.8227,-3.79,-3.79,-3.79,-3.79,-3.79,-3.79,-3.79,-3.79,-3.79,-3.7762,-3.7505,-3.7353,-3.7062,-3.6862,-3.6734,-3.6593,-3.6546,-3.6499,-3.6417,-3.6417,-3.6288,-3.6098,-3.5812,-3.5524,-3.509,-3.4494,-3.3831,-3.3085,-3.2269,-3.1476,-3.0868,-3.0453,-3.0141,-2.9994,-2.9994,-2.9994,-2.9994,-2.9994,-2.9973,-2.9891,-2.9735,-2.9477,-2.9249,-2.9063,-2.8618,-2.8276,-2.8038,-2.781,-2.7603,-2.7413,-2.7372,-2.7351,-2.733,-2.732,-2.732,-2.732,-2.732,-2.732,-2.732,-2.732,-2.732,-2.732,-2.732,-2.732,-2.732,-2.732,-2.732,-2.732,-2.732,-2.732,-2.7262,-2.7034,-2.664,-2.6255,-2.5616,-2.4922,-2.4273,-2.3578,-2.3138,-2.2896,-2.2804,-2.2653,-2.2603,-2.2603,-2.2603,-2.2603,-2.2603,-2.2603,-2.2603,-2.2603,-2.2603,-2.2603,-2.2603,-2.2603,-2.2603,-2.2603,-2.2603,-2.2603,-2.2603,-2.2603,-2.2603,-2.2603,-2.2603,-2.2603,-2.2603,-2.2594,-2.2508,-2.2414,-2.2143,-2.168,-2.1107,-2.057,-1.9944,-1.9435,-1.9026,-3.79,-3.79,-3.79,-3.79,-3.79,-3.79,-3.79,-3.79,-3.79,-3.7703,-3.7353,-3.7155,-3.6922,-3.6628,-3.6499,-3.6417,-3.6417,-3.6417,-3.6417,-3.637,-3.6241,-3.6098,-3.5908,-3.5608,-3.5271,-3.4775,-3.4188,-3.3434,-3.2572,-3.1823,-3.1116,-3.0505,-3.0141,-3.0047,-2.9994,-2.9994,-2.9994,-2.9994,-2.9984,-2.9984,-2.988,-2.9746,-2.957,-2.9415,-2.9114,-2.8742,-2.8462,-2.8204,-2.7955,-2.7634,-2.7469,-2.7455,-2.7392,-2.732,-2.732,-2.732,-2.732,-2.732,-2.732,-2.732,-2.732,-2.732,-2.732,-2.732,-2.732,-2.732,-2.732,-2.732,-2.732,-2.732,-2.7272,-2.7034,-2.689,-2.6486,-2.6149,-2.546,-2.4815,-2.4125,-2.3529,-2.3288,-2.2904,-2.2754,-2.2603,-2.2603,-2.2603,-2.2603,-2.2603,-2.2603,-2.2603,-2.2603,-2.2603,-2.2603,-2.2603,-2.2603,-2.2603,-2.2603,-2.2603,-2.2603,-2.2603,-2.2603,-2.2603,-2.2603,-2.2603,-2.2603,-2.2603,-2.2603,-2.2603,-2.2508,-2.2329,-2.2177,-2.1866,-2.1337,-2.0825,-2.0302,-1.9799,-3.79,-3.79,-3.79,-3.79,-3.79,-3.79,-3.79,-3.79,-3.7854,-3.7564,-3.7108,-3.7108,-3.6828,-3.6512,-3.6417,-3.6417,-3.6417,-3.6417,-3.6417,-3.6417,-3.637,-3.6241,-3.6098,-3.5908,-3.556,-3.503,-3.4482,-3.388,-3.2924,-3.2117,-3.1362,-3.0599,-3.0245,-3.0099,-3.0047,-2.9994,-2.9994,-2.9994,-2.9994,-2.9994,-2.9953,-2.9953,-2.987,-2.9746,-2.9508,-2.927,-2.9032,-2.8804,-2.8411,-2.81,-2.7893,-2.7645,-2.7486,-2.732,-2.732,-2.732,-2.732,-2.732,-2.732,-2.732,-2.732,-2.732,-2.732,-2.732,-2.732,-2.732,-2.732,-2.732,-2.732,-2.732,-2.7272,-2.7214,-2.7119,-2.688,-2.6651,-2.6052,-2.545,-2.4805,-2.4174,-2.3687,-2.3197,-2.2896,-2.2653,-2.2603,-2.2653,-2.2603,-2.2603,-2.2603,-2.2603,-2.2603,-2.2603,-2.2603,-2.2603,-2.2603,-2.2603,-2.2603,-2.2603,-2.2603,-2.2603,-2.2603,-2.2603,-2.2603,-2.2603,-2.2603,-2.2603,-2.2603,-2.2603,-2.2603,-2.2577,-2.2424,-2.2212,-2.194,-2.134,-2.1021,-2.0538,-3.79,-3.79,-3.79,-3.79,-3.7854,-3.7703,-3.7703,-3.7854,-3.7518,-3.7214,-3.7095,-3.6909,-3.6675,-3.6405,-3.6417,-3.6417,-3.6417,-3.6417,-3.6417,-3.6417,-3.6417,-3.6358,-3.6228,-3.6098,-3.586,-3.5524,-3.4981,-3.4421,-3.3732,-3.2773,-3.1607,-3.0795,-3.0443,-3.0245,-3.0099,-2.9994,-2.9994,-2.9994,-2.9994,-2.9994,-2.9994,-2.9994,-2.9994,-2.9911,-2.9849,-2.9622,-2.9352,-2.9228,-2.8856,-2.8504,-2.81,-2.7821,-2.7779,-2.7506,-2.732,-2.732,-2.732,-2.732,-2.732,-2.732,-2.732,-2.732,-2.732,-2.732,-2.732,-2.732,-2.732,-2.732,-2.732,-2.732,-2.732,-2.7262,-2.7262,-2.7119,-2.689,-2.6544,-2.5945,-2.5499,-2.4815,-2.4134,-2.3646,-2.3097,-2.2846,-2.2653,-2.2703,-2.2653,-2.2603,-2.2603,-2.2603,-2.2603,-2.2603,-2.2603,-2.2603,-2.2603,-2.2603,-2.2603,-2.2603,-2.2603,-2.2603,-2.2603,-2.2603,-2.2603,-2.2603,-2.2603,-2.2603,-2.2603,-2.2603,-2.2603,-2.2603,-2.2603,-2.2449,-2.2218,-2.1921,-2.1616,-2.1196,-3.79,-3.79,-3.79,-3.7854,-3.7703,-3.7446,-3.7446,-3.7505,-3.7214,-3.7049,-3.6922,-3.6769,-3.6581,-3.6405,-3.6417,-3.6417,-3.6417,-3.6417,-3.6417,-3.6417,-3.6417,-3.6417,-3.6323,-3.6228,-3.6098,-3.5812,-3.5524,-3.5017,-3.4323,-3.3174,-3.1953,-3.1351,-3.0847,-3.0443,-3.0193,-3.0099,-2.9994,-2.9994,-2.9994,-2.9994,-2.9994,-2.9994,-2.9994,-2.9994,-2.9994,-2.9808,-2.9622,-2.9559,-2.9321,-2.897,-2.8545,-2.8245,-2.8028,-2.7521,-2.733,-2.732,-2.732,-2.732,-2.732,-2.732,-2.732,-2.732,-2.732,-2.732,-2.732,-2.732,-2.732,-2.732,-2.732,-2.732,-2.732,-2.732,-2.732,-2.732,-2.7129,-2.6938,-2.6544,-2.6091,-2.546,-2.4735,-2.4093,-2.3438,-2.3097,-2.2896,-2.2703,-2.2653,-2.2603,-2.2603,-2.2603,-2.2603,-2.2603,-2.2603,-2.2603,-2.2603,-2.2603,-2.2603,-2.2603,-2.2603,-2.2603,-2.2603,-2.2603,-2.2603,-2.2603,-2.2603,-2.2603,-2.2603,-2.2603,-2.2603,-2.2603,-2.2603,-2.2603,-2.2457,-2.2287,-2.2218,-2.1761,-3.79,-3.79,-3.79,-3.7749,-3.7459,-3.7214,-3.7108,-3.7015,-3.7015,-3.6922,-3.6709,-3.6675,-3.6534,-3.6417,-3.6417,-3.6417,-3.6417,-3.6417,-3.6417,-3.6417,-3.6417,-3.6417,-3.6417,-3.637,-3.6228,-3.6098,-3.5824,-3.5368,-3.4568,-3.3522,-3.2572,-3.2015,-3.1311,-3.0754,-3.0349,-3.0193,-3.0099,-2.9994,-2.9994,-2.9994,-2.9994,-2.9994,-2.9994,-2.9994,-2.9994,-2.9963,-2.9963,-2.9911,-2.9808,-2.9508,-2.9166,-2.8783,-2.8079,-2.7624,-2.7475,-2.732,-2.732,-2.732,-2.732,-2.732,-2.732,-2.732,-2.732,-2.732,-2.732,-2.732,-2.732,-2.732,-2.732,-2.732,-2.732,-2.732,-2.732,-2.732,-2.7225,-2.7129,-2.689,-2.6438,-2.5858,-2.5177,-2.4538,-2.3935,-2.3438,-2.3238,-2.2896,-2.2745,-2.2603,-2.2603,-2.2603,-2.2603,-2.2603,-2.2603,-2.2603,-2.2603,-2.2603,-2.2603,-2.2603,-2.2603,-2.2603,-2.2603,-2.2603,-2.2603,-2.2603,-2.2603,-2.2603,-2.2603,-2.2603,-2.2603,-2.2603,-2.2603,-2.2603,-2.2603,-2.2568,-2.2534,-2.2329,-3.79,-3.79,-3.79,-3.7657,-3.7214,-3.7108,-3.6875,-3.6593,-3.6546,-3.664,-3.6675,-3.6534,-3.6452,-3.6417,-3.6417,-3.6417,-3.6417,-3.6417,-3.6417,-3.6417,-3.6417,-3.6417,-3.6417,-3.6417,-3.631,-3.6275,-3.5991,-3.5572,-3.4823,-3.388,-3.3024,-3.2308,-3.1659,-3.1157,-3.0495,-3.0339,-3.0193,-3.0047,-2.9994,-2.9994,-2.9994,-2.9994,-2.9994,-2.9994,-2.9994,-2.9994,-2.9994,-2.9984,-2.9942,-2.9808,-2.9456,-2.8825,-2.7986,-2.7831,-2.7583,-2.7392,-2.734,-2.732,-2.732,-2.732,-2.732,-2.732,-2.732,-2.732,-2.732,-2.732,-2.732,-2.732,-2.732,-2.732,-2.732,-2.732,-2.732,-2.732,-2.732,-2.7272,-2.7177,-2.6736,-2.6255,-2.5664,-2.5079,-2.4578,-2.4026,-2.3578,-2.3188,-2.2937,-2.2695,-2.2603,-2.2644,-2.2644,-2.2603,-2.2603,-2.2603,-2.2603,-2.2603,-2.2603,-2.2603,-2.2603,-2.2603,-2.2603,-2.2603,-2.2603,-2.2603,-2.2603,-2.2603,-2.2603,-2.2603,-2.2603,-2.2603,-2.2603,-2.2603,-2.2603,-2.2603,-2.2568,-2.2551,-3.79,-3.79,-3.79,-3.7598,-3.7168,-3.7108,-3.6828,-3.6465,-3.6417,-3.6452,-3.6546,-3.6452,-3.6417,-3.6417,-3.6417,-3.6417,-3.6417,-3.6417,-3.6417,-3.6417,-3.6417,-3.6417,-3.6417,-3.6417,-3.6417,-3.6323,-3.5943,-3.5464,-3.5017,-3.4335,-3.3583,-3.2773,-3.2167,-3.1556,-3.0847,-3.0547,-3.0349,-3.0203,-3.0047,-2.9994,-2.9994,-2.9994,-2.9994,-2.9994,-2.9994,-2.9994,-2.9994,-2.9994,-2.9994,-2.987,-2.9528,-2.9218,-2.8556,-2.8152,-2.7831,-2.7583,-2.7465,-2.732,-2.732,-2.732,-2.732,-2.732,-2.732,-2.732,-2.732,-2.732,-2.732,-2.732,-2.732,-2.732,-2.732,-2.732,-2.732,-2.732,-2.732,-2.7272,-2.7272,-2.7071,-2.6688,-2.641,-2.5858,-2.5509,-2.5011,-2.448,-2.4026,-2.3529,-2.3238,-2.2896,-2.2846,-2.2745,-2.2695,-2.2603,-2.2653,-2.2603,-2.2603,-2.2603,-2.2603,-2.2603,-2.2603,-2.2603,-2.2603,-2.2603,-2.2603,-2.2603,-2.2603,-2.2603,-2.2603,-2.2603,-2.2603,-2.2603,-2.2603,-2.2603,-2.2603,-2.2603,-2.2585,-3.79,-3.79,-3.7854,-3.7564,-3.7108,-3.7062,-3.6781,-3.6452,-3.6417,-3.6417,-3.6417,-3.6417,-3.6417,-3.6417,-3.6417,-3.6417,-3.6417,-3.6417,-3.6417,-3.6417,-3.6417,-3.6417,-3.6417,-3.6417,-3.6417,-3.6275,-3.5943,-3.5716,-3.5464,-3.4738,-3.3991,-3.3296,-3.2633,-3.2066,-3.1322,-3.0817,-3.0495,-3.0349,-3.0193,-3.0047,-2.9994,-2.9994,-2.9994,-2.9994,-2.9994,-2.9994,-2.9994,-2.9994,-2.9994,-2.988,-2.9663,-2.9394,-2.9073,-2.8597,-2.8103,-2.7883,-2.7593,-2.7465,-2.734,-2.732,-2.732,-2.732,-2.732,-2.732,-2.732,-2.732,-2.732,-2.732,-2.732,-2.732,-2.732,-2.732,-2.732,-2.732,-2.732,-2.732,-2.7309,-2.7309,-2.7129,-2.69,-2.6602,-2.6245,-2.5849,-2.5314,-2.4824,-2.4273,-2.3877,-2.3479,-2.3188,-2.2987,-2.2896,-2.2745,-2.2644,-2.2644,-2.2603,-2.2603,-2.2603,-2.2603,-2.2603,-2.2603,-2.2603,-2.2603,-2.2603,-2.2603,-2.2603,-2.2603,-2.2603,-2.2603,-2.2603,-2.2603,-2.2603,-2.2603,-2.2603,-2.2603,-2.2603,-3.79,-3.7854,-3.767,-3.74,-3.7108,-3.6862,-3.6628,-3.6405,-3.6417,-3.6417,-3.6417,-3.6417,-3.6417,-3.6417,-3.6417,-3.6417,-3.6417,-3.6417,-3.6417,-3.6417,-3.6417,-3.6417,-3.6417,-3.6417,-3.6417,-3.6275,-3.6038,-3.5812,-3.556,-3.4981,-3.4335,-3.3496,-3.2996,-3.2342,-3.1629,-3.1116,-3.0817,-3.0557,-3.0297,-3.0141,-2.9994,-2.9994,-2.9994,-2.9994,-2.9994,-2.9994,-2.9994,-2.9994,-2.9994,-2.9963,-2.9891,-2.9653,-2.9373,-2.9052,-2.8649,-2.8134,-2.7883,-2.7593,-2.7469,-2.7372,-2.733,-2.732,-2.732,-2.732,-2.732,-2.732,-2.732,-2.732,-2.732,-2.732,-2.732,-2.732,-2.732,-2.732,-2.732,-2.732,-2.7309,-2.7309,-2.7225,-2.7081,-2.6938,-2.664,-2.639,-2.5955,-2.5509,-2.5011,-2.4618,-2.4223,-2.3926,-2.3538,-2.3138,-2.2987,-2.2837,-2.2644,-2.2603,-2.2603,-2.2603,-2.2603,-2.2603,-2.2603,-2.2603,-2.2603,-2.2603,-2.2603,-2.2603,-2.2603,-2.2603,-2.2603,-2.2603,-2.2603,-2.2603,-2.2603,-2.2603,-2.2603,-2.2603]},{"header":{"parameterUnit":"m.s-1","parameterCategory":1,"la1":31.0,"la2":29.5877,"lo1":-88.7671,"lo2":-86.6584,"dy":0.0162,"dx":0.0185,"nx":115,"ny":88,"refTime":"2024-04-28T12:00:00:Z","depth":0,"parameterNumber":3,"parameterNumberName":"V-component_of_WINDS"},"data":[0.0,0.0,0.0,0.0,0.0,0.0,0.0,0.0,0.0,0.0,0.0,0.0,0.0,0.0,0.0,0.0,0.0,0.0,0.0,0.0,0.0,0.0,0.0,0.0,0.0,0.0,0.0,0.0,0.0,0.0,0.0,0.0,0.0,0.0,0.0,0.0,0.0,0.0,0.0,0.0,0.0,0.0,0.0,0.0,0.0,0.0,0.0,0.0,0.0,0.0,0.0,0.0,0.0,0.0,0.0,0.0,0.0,0.0,0.0,0.0,0.0,0.0,0.0,0.0,0.0,0.0,0.0,0.0,0.0,0.0,0.0,0.0,0.0,0.0,0.0,0.0,0.0,0.0,0.0,0.0,0.0,0.0,0.0,0.0,0.0,0.0,0.0,0.0,0.0,0.0,0.0,0.0,0.0,0.0,0.0,0.0,0.0,0.0,0.0,0.0,0.0,0.0,0.0,0.0,0.0,0.0,0.0,0.0,0.0,0.0,0.0,0.0,0.0,0.0,0.0,0.0,0.0,0.0,0.0,0.0,0.0,0.0,0.0,0.0,0.0,0.0,0.0,0.0,0.0,0.0,0.0,0.0,0.0,0.0,0.0,0.0,0.0,0.0,0.0,0.0,0.0,0.0,0.0,0.0,0.0,0.0,0.0,0.0,0.0,0.0,0.0,0.0,0.0,0.0,0.0,0.0,0.0,0.0,0.0,0.0,0.0,0.0,0.0,0.0,0.0,0.0,0.0,0.0,0.0,0.0,0.0,0.0,0.0,0.0,0.0,0.0,0.0,0.0,0.0,0.0,0.0,0.0,0.0,0.0,0.0,0.0,0.0,0.0,0.0,0.0,0.0,0.0,0.0,0.0,0.0,0.0,0.0,0.0,0.0,0.0,0.0,0.0,0.0,0.0,0.0,0.0,0.0,0.0,0.0,0.0,0.0,0.0,0.0,0.0,0.0,0.0,0.0,0.0,0.0,0.0,0.0,0.0,0.0,0.0,0.0,0.0,0.0,0.0,0.0,0.0,0.0,0.0,0.0,0.0,0.0,0.0,0.0,0.0,0.0,0.0,0.0,0.0,0.0,0.0,0.0,0.0,0.0,0.0,0.0,0.0,0.0,0.0,0.0,0.0,0.0,0.0,0.0,0.0,0.0,0.0,0.0,0.0,0.0,0.0,0.0,0.0,0.0,0.0,0.0,0.0,0.0,0.0,0.0,0.0,0.0,0.0,0.0,0.0,0.0,0.0,0.0,0.0,0.0,0.0,0.0,0.0,0.0,0.0,0.0,0.0,0.0,0.0,0.0,0.0,0.0,0.0,0.0,0.0,0.0,0.0,0.0,0.0,0.0,0.0,0.0,0.0,0.0,0.0,0.0,0.0,0.0,0.0,0.0,0.0,0.0,0.0,0.0,0.0,0.0,0.0,0.0,0.0,0.0,0.0,0.0,0.0,0.0,0.0,0.0,0.0,0.0,0.0,0.0,0.0,0.0,0.0,0.0,0.0,0.0,0.0,0.0,0.0,0.0,0.0,0.0,0.0,0.0,0.0,0.0,0.0,0.0,0.0,0.0,0.0,0.0,0.0,0.0,0.0,0.0,0.0,0.0,0.0,0.0,0.0,0.0,0.0,0.0,0.0,0.0,0.0,0.0,0.0,0.0,0.0,0.0,0.0,0.0,0.0,0.0,0.0,0.0,0.0,0.0,0.0,0.0,0.0,0.0,0.0,0.0,0.0,0.0,0.0,0.0,0.0,0.0,0.0,0.0,0.0,0.0,0.0,0.0,0.0,0.0,0.0,0.0,0.0,0.0,0.0,0.0,0.0,0.0,0.0,0.0,0.0,0.0,0.0,0.0,0.0,0.0,0.0,0.0,0.0,0.0,0.0,0.0,0.0,0.0,0.0,0.0,0.0,0.0,0.0,0.0,0.0,0.0,0.0,0.0,0.0,0.0,0.0,0.0,0.0,0.0,0.0,0.0,0.0,0.0,0.0,0.0,0.0,0.0,0.0,0.0,0.0,0.0,0.0,0.0,0.0,0.0,0.0,0.0,0.0,0.0,0.0,0.0,0.0,0.0,0.0,0.0,0.0,0.0,0.0,0.0,0.0,0.0,0.0,0.0,0.0,0.0,0.0,0.0,0.0,0.0,0.0,0.0,0.0,0.0,0.0,0.0,0.0,0.0,0.0,0.0,0.0,0.0,0.0,0.0,0.0,0.0,0.0,0.0,0.0,0.0,0.0,0.0,0.0,0.0,0.0,0.0,0.0,0.0,0.0,0.0,0.0,0.0,0.0,0.0,0.0,0.0,0.0,0.0,0.0,0.0,0.0,0.0,0.0,0.0,0.0,0.0,0.0,0.0,0.0,0.0,0.0,0.0,0.0,0.0,0.0,0.0,0.0,0.0,0.0,0.0,0.0,0.0,0.0,0.0,0.0,0.0,0.0,0.0,0.0,0.0,0.0,0.0,0.0,0.0,0.0,0.0,0.0,0.0,0.0,0.0,0.0,0.0,0.0,0.0,0.0,0.0,0.0,0.0,0.0,0.0,0.0,0.0,0.0,0.0,0.0,0.0,0.0,0.0,0.0,0.0,0.0,0.0,0.0,0.0,0.0,0.0,0.0,0.0,0.0,0.0,0.0,0.0,0.0,0.0,0.0,0.0,0.0,0.0,0.0,0.0,0.0,0.0,0.0,0.0,0.0,0.0,0.0,0.0,0.0,0.0,0.0,0.0,0.0,0.0,0.0,0.0,0.0,0.0,0.0,0.0,0.0,0.0,0.0,0.0,0.0,0.0,0.0,0.0,0.0,0.0,0.0,0.0,0.0,0.0,0.0,0.0,0.0,0.0,0.0,0.0,0.0,0.0,0.0,0.0,0.0,0.0,0.0,0.0,0.0,0.0,0.0,0.0,0.0,0.0,0.0,0.0,0.0,0.0,0.0,0.0,0.0,0.0,0.0,0.0,0.0,0.0,0.0,0.0,0.0,0.0,0.0,0.0,0.0,0.0,0.0,0.0,0.0,0.0,0.0,0.0,0.0,0.0,0.0,0.0,0.0,0.0,0.0,0.0,0.0,0.0,0.0,0.0,0.0,0.0,0.0,0.0,0.0,0.0,0.0,0.0,0.0,0.0,0.0,0.0,0.0,0.0,0.0,0.0,0.0,0.0,0.0,0.0,0.0,0.0,0.0,0.0,0.0,0.0,0.0,0.0,0.0,0.0,0.0,0.0,0.0,0.0,0.0,0.0,0.0,0.0,0.0,0.0,0.0,0.0,0.0,0.0,0.0,0.0,0.0,0.0,0.0,0.0,0.0,0.0,0.0,0.0,0.0,0.0,0.0,0.0,0.0,0.0,0.0,0.0,0.0,0.0,0.0,0.0,0.0,0.0,0.0,0.0,0.0,0.0,0.0,0.0,0.0,0.0,0.0,0.0,0.0,0.0,0.0,0.0,0.0,0.0,0.0,0.0,0.0,0.0,0.0,0.0,0.0,0.0,0.0,0.0,0.0,0.0,0.0,0.0,0.0,0.0,0.0,0.0,0.0,0.0,0.0,0.0,0.0,0.0,0.0,0.0,0.0,0.0,0.0,0.0,0.0,0.0,0.0,0.0,0.0,0.0,0.0,0.0,0.0,0.0,0.0,0.0,0.0,0.0,0.0,0.0,0.0,0.0,0.0,0.0,0.0,0.0,0.0,0.0,0.0,0.0,0.0,0.0,0.0,0.0,0.0,0.0,0.0,0.0,0.0,0.0,0.0,0.0,0.0,0.0,0.0,0.0,0.0,0.0,0.0,0.0,0.0,0.0,0.0,0.0,0.0,0.0,0.0,0.0,0.0,0.0,0.0,0.0,0.0,0.0,0.0,0.0,0.0,0.0,0.0,0.0,0.0,0.0,0.0,0.0,0.0,0.0,0.0,0.0,0.0,0.0,0.0,0.0,0.0,0.0,0.0,0.0,0.0,0.0,0.0,0.0,0.0,0.0,0.0,0.0,0.0,0.0,0.0,0.0,0.0,0.0,0.0,0.0,0.0,0.0,0.0,0.0,0.0,0.0,0.0,0.0,0.0,0.0,0.0,0.0,0.0,0.0,0.0,0.0,0.0,0.0,0.0,0.0,0.0,0.0,0.0,0.0,0.0,0.0,0.0,0.0,0.0,0.0,0.0,0.0,0.0,0.0,0.0,0.0,0.0,0.0,0.0,0.0,0.0,0.0,0.0,0.0,0.0,0.0,0.0,0.0,0.0,0.0,0.0,0.0,0.0,0.0,0.0,0.0,0.0,0.0,0.0,1.6402,0.0,0.0,0.0,0.0,0.0,0.0,0.0,0.0,0.0,0.0,0.0,0.0,0.0,0.0,0.0,0.0,0.0,0.0,0.0,0.0,0.0,0.0,0.0,0.0,0.0,0.0,0.0,0.0,0.0,0.0,0.0,0.0,0.0,0.0,0.0,0.0,0.0,0.0,0.0,0.0,0.0,0.0,0.0,0.0,0.0,0.0,0.0,0.0,0.0,0.0,0.0,0.0,0.0,0.0,0.0,0.0,0.0,0.0,0.0,0.0,0.0,0.0,0.0,0.0,0.0,0.0,0.0,0.0,0.0,0.0,0.0,0.0,0.0,0.0,0.0,0.0,0.0,0.0,0.0,0.0,0.0,0.0,0.0,0.0,0.0,0.0,0.0,0.0,0.0,0.0,0.0,0.0,0.0,0.0,0.0,0.0,0.0,0.0,0.0,0.0,0.0,0.0,0.0,0.0,0.0,0.0,0.0,0.0,0.0,0.0,1.6402,1.6402,1.6402,1.6402,1.6402,0.0,0.0,0.0,0.0,0.0,0.0,0.0,0.0,0.0,0.0,0.0,0.0,0.0,0.0,0.0,0.0,0.0,0.0,0.0,0.0,0.0,0.0,0.0,0.0,0.0,0.0,0.0,0.0,0.0,0.0,0.0,0.0,0.0,0.0,0.0,0.0,0.0,0.0,0.0,0.0,0.0,0.0,0.0,0.0,0.0,0.0,0.0,0.0,0.0,0.0,0.0,0.0,0.0,0.0,0.0,0.0,0.0,0.0,0.0,0.0,0.0,0.0,0.0,0.0,0.0,0.0,0.0,0.0,0.0,0.0,0.0,0.0,0.0,0.0,0.0,0.0,0.0,0.0,0.0,0.0,0.0,0.0,0.0,0.0,0.0,0.0,0.0,0.0,0.0,0.0,0.0,0.0,0.0,0.0,0.0,0.0,0.0,0.0,0.0,0.0,0.0,0.0,0.0,0.0,0.0,0.0,0.0,0.0,0.0,0.0,0.0,0.0,1.6402,1.6402,1.6402,0.0,0.0,0.0,0.0,0.0,0.0,0.0,0.0,0.0,0.0,0.0,0.0,0.0,0.0,0.0,0.0,0.0,0.0,0.0,0.0,0.0,0.0,0.0,0.0,0.0,0.0,0.0,0.0,0.0,0.0,0.0,0.0,0.0,0.0,0.0,0.0,0.0,0.0,0.0,0.0,0.0,0.0,0.0,0.0,0.0,0.0,0.0,0.0,0.0,0.0,0.0,0.0,0.0,0.0,0.0,0.0,0.0,0.0,0.0,0.0,0.0,0.0,0.0,0.0,0.0,0.0,0.0,0.0,0.0,0.0,0.0,0.0,0.0,0.0,0.0,0.0,0.0,0.0,0.0,0.0,0.0,0.0,0.0,0.0,0.0,0.0,0.0,0.0,0.0,0.0,0.0,0.0,0.0,0.0,0.0,0.0,0.0,0.0,0.0,0.0,0.0,0.0,0.0,0.0,0.0,0.0,0.0,0.0,0.0,0.0,1.6402,1.6402,1.6402,0.0,1.6402,0.0,0.0,0.0,0.0,0.0,0.0,0.0,0.0,0.0,0.0,0.0,0.0,0.0,0.0,0.0,0.0,0.0,0.0,0.0,0.0,0.0,0.0,0.0,0.0,0.0,0.0,0.0,0.0,0.0,0.0,0.0,0.0,0.0,0.0,0.0,0.0,0.0,0.0,0.0,0.0,0.0,0.0,0.0,0.0,0.0,0.0,0.0,0.0,0.0,0.0,0.0,0.0,0.0,0.0,0.0,0.0,0.0,0.0,0.0,0.0,0.0,0.0,0.0,0.0,0.0,0.0,0.0,0.0,0.0,0.0,0.0,0.0,0.0,0.0,0.0,0.0,0.0,0.0,0.0,0.0,0.0,0.0,0.0,0.0,0.0,0.0,0.0,0.0,0.0,0.0,0.0,0.0,0.0,0.0,0.0,0.0,0.0,0.0,0.0,0.0,0.0,0.0,0.0,0.0,0.0,0.0,0.0,0.0,0.0,0.0,1.6402,1.6402,1.6402,1.6402,0.0,0.0,0.0,0.0,0.0,0.0,0.0,0.0,0.0,0.0,0.0,0.0,0.0,0.0,0.0,0.0,0.0,0.0,0.0,0.0,0.0,0.0,0.0,0.0,0.0,0.0,0.0,0.0,0.0,0.0,0.0,0.0,0.0,0.0,0.0,0.0,0.0,0.0,0.0,0.0,0.0,0.0,0.0,0.0,0.0,0.0,0.0,0.0,0.0,0.0,0.0,0.0,0.0,0.0,0.0,0.0,0.0,0.0,0.0,0.0,0.0,0.0,0.0,0.0,0.0,0.0,0.0,0.0,0.0,0.0,0.0,0.0,0.0,0.0,0.0,0.0,0.0,0.0,0.0,0.0,0.0,0.0,0.0,0.0,0.0,0.0,0.0,0.0,0.0,0.0,0.0,0.0,0.0,0.0,0.0,0.0,0.0,0.0,0.0,0.0,0.0,0.0,0.0,0.0,0.0,0.0,0.0,0.0,0.0,0.0,1.6758,1.6508,1.6413,1.6402,1.6402,1.6402,0.0,0.0,0.0,0.0,0.0,0.0,0.0,0.0,0.0,0.0,0.0,0.0,0.0,0.0,0.0,0.0,0.0,0.0,0.0,0.0,0.0,0.0,0.0,0.0,0.0,0.0,0.0,0.0,0.0,0.0,0.0,0.0,0.0,0.0,0.0,0.0,0.0,0.0,0.0,0.0,0.0,0.0,0.0,0.0,0.0,0.0,0.0,0.0,0.0,0.0,0.0,0.0,0.0,0.0,0.0,0.0,0.0,0.0,0.0,0.0,0.0,0.0,0.0,0.0,0.0,0.0,0.0,0.0,0.0,0.0,0.0,0.0,0.0,0.0,0.0,0.0,0.0,0.0,0.0,0.0,0.0,0.0,0.0,0.0,0.0,0.0,0.0,0.0,0.0,0.0,0.0,0.0,0.0,0.0,0.0,0.0,0.0,0.0,0.0,0.0,0.0,0.0,0.0,0.0,0.0,0.0,0.0,0.0,1.7678,1.7223,1.6789,1.6433,1.6402,1.6402,0.0,0.0,0.0,0.0,0.0,0.0,0.0,0.0,0.0,0.0,0.0,0.0,0.0,0.0,0.0,0.0,0.0,0.0,0.0,0.0,0.0,0.0,0.0,0.0,0.0,0.0,0.0,0.0,0.0,0.0,0.0,0.0,0.0,0.0,0.0,0.0,0.0,0.0,0.0,0.0,0.0,0.0,0.0,0.0,0.0,0.0,0.0,0.0,0.0,0.0,0.0,0.0,0.0,0.0,0.0,0.0,0.0,0.0,0.0,0.0,0.0,0.0,0.0,0.0,0.0,0.0,0.0,0.0,0.0,0.0,0.0,0.0,0.0,0.0,0.0,0.0,0.0,0.0,0.0,0.0,0.0,0.0,0.0,0.0,0.0,0.0,0.0,0.0,0.0,0.0,0.0,0.0,0.0,0.0,0.0,0.0,0.0,0.0,0.0,0.0,0.0,0.0,0.0,0.0,0.0,0.0,0.0,0.0,0.0,1.8133,1.7688,1.7244,1.68,1.6769,1.6645,0.0,0.0,0.0,0.0,0.0,0.0,0.0,0.0,0.0,0.0,0.0,0.0,0.0,0.0,0.0,0.0,0.0,0.0,0.0,0.0,0.0,0.0,0.0,0.0,0.0,0.0,0.0,0.0,0.0,0.0,0.0,0.0,0.0,0.0,0.0,0.0,0.0,0.0,0.0,0.0,0.0,0.0,0.0,0.0,0.0,0.0,0.0,0.0,0.0,0.0,0.0,0.0,0.0,0.0,0.0,0.0,0.0,0.0,0.0,0.0,0.0,0.0,0.0,0.0,0.0,0.0,0.0,0.0,0.0,0.0,0.0,0.0,0.0,0.0,0.0,0.0,0.0,0.0,0.0,0.0,0.0,0.0,0.0,0.0,0.0,0.0,0.0,0.0,0.0,0.0,0.0,0.0,0.0,0.0,0.0,0.0,0.0,0.0,0.0,0.0,0.0,0.0,0.0,0.0,0.0,0.0,0.0,0.0,0.0,1.8382,0.0,1.7699,1.7265,1.7234,1.7089,0.0,0.0,0.0,0.0,0.0,0.0,0.0,0.0,0.0,0.0,0.0,0.0,0.0,0.0,0.0,0.0,0.0,0.0,0.0,0.0,0.0,0.0,0.0,0.0,0.0,0.0,0.0,0.0,0.0,0.0,0.0,0.0,0.0,0.0,0.0,0.0,0.0,0.0,0.0,0.0,0.0,0.0,0.0,0.0,0.0,0.0,0.0,0.0,0.0,0.0,0.0,0.0,0.0,0.0,0.0,0.0,0.0,0.0,0.0,0.0,0.0,0.0,0.0,0.0,0.0,0.0,0.0,0.0,0.0,0.0,0.0,0.0,0.0,0.0,0.0,0.0,0.0,0.0,0.0,0.0,0.0,0.0,0.0,0.0,0.0,0.0,0.0,0.0,0.0,0.0,0.0,0.0,0.0,0.0,0.0,0.0,0.0,0.0,0.0,0.0,0.0,0.0,0.0,0.0,0.0,0.0,0.0,0.0,1.8891,1.8465,1.8465,1.8237,1.774,1.773,1.7709,0.0,0.0,0.0,0.0,0.0,0.0,0.0,0.0,0.0,0.0,0.0,0.0,0.0,0.0,0.0,0.0,0.0,0.0,0.0,0.0,0.0,0.0,0.0,0.0,0.0,0.0,0.0,0.0,0.0,0.0,0.0,0.0,0.0,0.0,0.0,0.0,0.0,0.0,0.0,0.0,0.0,0.0,0.0,0.0,0.0,0.0,0.0,0.0,0.0,0.0,0.0,0.0,0.0,0.0,0.0,0.0,0.0,0.0,0.0,0.0,0.0,0.0,0.0,0.0,0.0,0.0,0.0,0.0,0.0,0.0,0.0,0.0,0.0,0.0,0.0,0.0,0.0,0.0,0.0,0.0,0.0,0.0,0.0,0.0,0.0,0.0,0.0,0.0,0.0,0.0,0.0,0.0,0.0,0.0,0.0,0.0,0.0,0.0,0.0,0.0,0.0,0.0,0.0,0.0,0.0,0.0,0.0,0.0,0.0,1.9523,1.9805,1.9562,1.8692,1.8661,1.8361,0.0,0.0,0.0,0.0,0.0,0.0,0.0,0.0,0.0,0.0,0.0,0.0,0.0,0.0,0.0,0.0,0.0,0.0,0.0,0.0,0.0,0.0,0.0,0.0,0.0,0.0,0.0,0.0,0.0,0.0,0.0,0.0,0.0,0.0,0.0,0.0,0.0,0.0,0.0,0.0,0.0,0.0,0.0,0.0,0.0,0.0,0.0,0.0,0.0,0.0,0.0,0.0,0.0,0.0,0.0,0.0,0.0,0.0,0.0,0.0,0.0,0.0,0.0,0.0,0.0,0.0,0.0,0.0,0.0,0.0,0.0,0.0,0.0,0.0,0.0,0.0,0.0,0.0,0.0,0.0,0.0,0.0,0.0,0.0,0.0,0.0,0.0,0.0,0.0,0.0,0.0,0.0,0.0,0.0,0.0,0.0,0.0,0.0,0.0,0.0,0.0,0.0,0.0,0.0,0.0,0.0,0.0,0.0,0.0,2.1236,2.0878,2.0481,1.999,1.9734,1.9264,1.8591,0.0,0.0,0.0,0.0,0.0,0.0,0.0,0.0,0.0,0.0,0.0,0.0,0.0,0.0,0.0,0.0,0.0,0.0,0.0,0.0,0.0,0.0,0.0,0.0,0.0,0.0,0.0,0.0,0.0,0.0,0.0,0.0,0.0,0.0,0.0,0.0,0.0,0.0,0.0,0.0,0.0,0.0,0.0,0.0,0.0,0.0,0.0,0.0,0.0,0.0,0.0,0.0,0.0,0.0,0.0,0.0,0.0,0.0,0.0,0.0,0.0,0.0,0.0,0.0,0.0,0.0,0.0,0.0,0.0,0.0,0.0,0.0,0.0,0.0,0.0,0.0,0.0,0.0,0.0,0.0,0.0,0.0,0.0,0.0,0.0,0.0,0.0,0.0,0.0,0.0,0.0,0.0,0.0,0.0,0.0,0.0,0.0,0.0,0.0,0.0,0.0,0.0,0.0,0.0,0.0,0.0,0.0,0.0,2.3412,2.1811,2.118,2.1592,2.0922,2.0382,0.0,0.0,0.0,0.0,0.0,0.0,0.0,0.0,0.0,0.0,0.0,0.0,0.0,0.0,0.0,0.0,0.0,0.0,0.0,0.0,0.0,0.0,0.0,0.0,0.0,0.0,0.0,0.0,0.0,0.0,0.0,0.0,0.0,0.0,0.0,0.0,0.0,0.0,0.0,0.0,0.0,0.0,0.0,0.0,0.0,0.0,0.0,0.0,0.0,0.0,0.0,0.0,0.0,0.0,0.0,0.0,0.0,0.0,0.0,0.0,0.0,0.0,0.0,0.0,0.0,0.0,0.0,0.0,0.0,0.0,0.0,0.0,0.0,0.0,0.0,0.0,0.0,0.0,0.0,0.0,0.0,0.0,0.0,0.0,0.0,0.0,0.0,0.0,0.0,0.0,0.0,0.0,0.0,0.0,0.0,0.0,0.0,0.0,0.0,0.0,0.0,0.0,0.0,0.0,0.0,0.0,0.0,0.0,0.0,2.499,2.4334,2.3699,2.3188,2.2674,2.1973,0.0,0.0,0.0,0.0,0.0,0.0,0.0,0.0,0.0,0.0,0.0,0.0,0.0,0.0,0.0,0.0,0.0,0.0,0.0,0.0,0.0,0.0,0.0,0.0,0.0,0.0,0.0,0.0,0.0,0.0,0.0,0.0,0.0,0.0,0.0,0.0,0.0,0.0,0.0,0.0,0.0,0.0,0.0,0.0,0.0,0.0,0.0,0.0,0.0,0.0,0.0,0.0,0.0,0.0,0.0,0.0,0.0,0.0,0.0,0.0,0.0,0.0,0.0,0.0,0.0,0.0,0.0,0.0,0.0,0.0,0.0,0.0,0.0,0.0,0.0,0.0,0.0,0.0,0.0,0.0,0.0,0.0,0.0,0.0,0.0,0.0,0.0,0.0,0.0,0.0,0.0,0.0,0.0,0.0,0.0,0.0,0.0,0.0,0.0,0.0,0.0,0.0,0.0,0.0,0.0,0.0,0.0,0.0,2.5434,2.5962,2.6251,2.6124,2.5548,2.4137,2.3021,0.0,0.0,0.0,0.0,0.0,0.0,0.0,0.0,0.0,0.0,0.0,0.0,0.0,0.0,0.0,0.0,0.0,0.0,0.0,0.0,0.0,0.0,0.0,0.0,0.0,0.0,0.0,0.0,0.0,0.0,0.0,0.0,0.0,0.0,0.0,0.0,0.0,0.0,0.0,0.0,0.0,0.0,0.0,0.0,0.0,0.0,0.0,0.0,0.0,0.0,0.0,0.0,0.0,0.0,0.0,0.0,0.0,0.0,0.0,0.0,0.0,0.0,0.0,0.0,0.0,0.0,0.0,0.0,0.0,0.0,0.0,0.0,0.0,0.0,0.0,0.0,0.0,0.0,0.0,0.0,0.0,0.0,0.0,0.0,0.0,0.0,0.0,0.0,0.0,0.0,0.0,0.0,0.0,0.0,0.0,0.0,0.0,0.0,0.0,0.0,0.0,0.0,0.0,0.0,0.0,0.0,0.0,0.0,2.6607,2.6464,2.7628,2.8099,2.7846,2.5384,2.3873,0.0,0.0,0.0,0.0,0.0,0.0,0.0,0.0,0.0,0.0,0.0,0.0,0.0,0.0,0.0,0.0,0.0,0.0,0.0,0.0,0.0,0.0,0.0,0.0,0.0,0.0,0.0,0.0,0.0,0.0,0.0,0.0,0.0,0.0,0.0,0.0,0.0,0.0,0.0,0.0,0.0,0.0,0.0,0.0,0.0,0.0,0.0,0.0,0.0,0.0,0.0,0.0,0.0,0.0,0.0,0.0,0.0,0.0,0.0,0.0,0.0,0.0,0.0,0.0,0.0,0.0,0.0,0.0,0.0,0.0,0.0,0.0,0.0,0.0,0.0,0.0,0.0,0.0,0.0,0.0,0.0,0.0,0.0,0.0,0.0,0.0,0.0,0.0,0.0,0.0,0.0,0.0,0.0,0.0,0.0,0.0,0.0,0.0,0.0,0.0,0.0,0.0,0.0,0.0,0.0,0.0,0.0,0.0,2.7179,2.7382,2.8056,2.8271,2.7921,2.6508,2.5393,0.0,0.0,0.0,0.0,0.0,0.0,0.0,0.0,0.0,0.0,0.0,0.0,0.0,0.0,0.0,0.0,0.0,0.0,0.0,0.0,0.0,0.0,0.0,0.0,0.0,0.0,0.0,0.0,0.0,0.0,0.0,0.0,0.0,0.0,0.0,0.0,0.0,0.0,0.0,0.0,0.0,0.0,0.0,0.0,0.0,0.0,0.0,0.0,2.2432,0.0,0.0,0.0,0.0,0.0,0.0,0.0,0.0,0.0,0.0,0.0,0.0,0.0,0.0,0.0,0.0,0.0,0.0,0.0,0.0,0.0,0.0,0.0,0.0,0.0,0.0,0.0,0.0,0.0,0.0,0.0,0.0,0.0,0.0,0.0,0.0,0.0,0.0,0.0,0.0,0.0,0.0,0.0,0.0,0.0,0.0,0.0,0.0,0.0,0.0,0.0,0.0,0.0,0.0,0.0,0.0,0.0,0.0,0.0,2.7654,2.7975,2.8614,2.8788,2.8447,2.7666,2.6728,0.0,0.0,0.0,0.0,0.0,0.0,0.0,0.0,0.0,0.0,0.0,0.0,0.0,0.0,0.0,0.0,0.0,0.0,0.0,0.0,0.0,0.0,0.0,0.0,0.0,0.0,0.0,0.0,0.0,0.0,0.0,0.0,0.0,0.0,0.0,0.0,0.0,0.0,0.0,0.0,0.0,0.0,0.0,0.0,0.0,0.0,0.0,0.0,0.0,0.0,0.0,0.0,0.0,0.0,0.0,0.0,0.0,0.0,0.0,0.0,0.0,0.0,0.0,0.0,0.0,0.0,0.0,0.0,0.0,0.0,0.0,0.0,0.0,0.0,0.0,0.0,0.0,0.0,0.0,0.0,0.0,0.0,0.0,0.0,0.0,0.0,0.0,0.0,0.0,0.0,0.0,0.0,0.0,0.0,0.0,0.0,0.0,0.0,0.0,0.0,0.0,0.0,0.0,0.0,0.0,0.0,0.0,2.7295,2.8027,2.8468,2.9066,2.9302,2.9079,2.8676,2.7843,2.6534,0.0,0.0,0.0,0.0,0.0,0.0,0.0,0.0,0.0,0.0,0.0,0.0,0.0,0.0,0.0,0.0,0.0,0.0,0.0,0.0,0.0,0.0,0.0,0.0,0.0,0.0,0.0,0.0,0.0,0.0,0.0,0.0,0.0,0.0,0.0,0.0,0.0,0.0,2.1862,2.2511,0.0,0.0,0.0,0.0,0.0,0.0,0.0,0.0,2.474,0.0,0.0,0.0,0.0,0.0,0.0,0.0,0.0,0.0,0.0,0.0,0.0,0.0,0.0,0.0,0.0,0.0,0.0,0.0,0.0,0.0,0.0,0.0,0.0,0.0,0.0,0.0,0.0,0.0,0.0,0.0,0.0,0.0,0.0,0.0,0.0,0.0,0.0,0.0,0.0,0.0,0.0,0.0,0.0,0.0,0.0,0.0,0.0,0.0,0.0,0.0,0.0,0.0,0.0,0.0,0.0,2.7965,2.7863,2.8276,2.918,2.933,2.9302,2.9131,2.9188,2.8631,2.7335,0.0,0.0,0.0,0.0,0.0,0.0,0.0,0.0,0.0,0.0,0.0,0.0,0.0,0.0,0.0,0.0,0.0,0.0,0.0,0.0,0.0,0.0,0.0,0.0,0.0,0.0,0.0,0.0,0.0,0.0,0.0,0.0,0.0,0.0,0.0,0.0,0.0,0.0,0.0,2.4324,2.512,0.0,0.0,0.0,0.0,0.0,0.0,0.0,0.0,2.5233,0.0,0.0,0.0,0.0,0.0,0.0,0.0,0.0,0.0,0.0,0.0,0.0,0.0,0.0,0.0,0.0,0.0,0.0,0.0,0.0,0.0,0.0,0.0,0.0,0.0,0.0,0.0,0.0,0.0,0.0,0.0,0.0,0.0,0.0,0.0,0.0,0.0,0.0,0.0,0.0,0.0,0.0,0.0,0.0,0.0,0.0,0.0,0.0,0.0,0.0,0.0,0.0,0.0,0.0,0.0,2.8288,2.8496,2.8875,2.9561,2.9611,2.9573,2.9468,2.9247,2.8712,0.0,0.0,0.0,0.0,0.0,0.0,0.0,0.0,0.0,0.0,0.0,0.0,0.0,0.0,0.0,0.0,0.0,0.0,0.0,0.0,0.0,0.0,0.0,0.0,0.0,0.0,0.0,0.0,0.0,0.0,0.0,0.0,0.0,0.0,0.0,0.0,0.0,0.0,0.0,0.0,2.5011,2.6009,2.5536,0.0,0.0,0.0,0.0,0.0,0.0,2.6115,2.5754,0.0,0.0,0.0,0.0,0.0,0.0,0.0,0.0,0.0,0.0,0.0,0.0,0.0,0.0,0.0,0.0,0.0,0.0,0.0,0.0,0.0,0.0,0.0,0.0,0.0,0.0,0.0,0.0,0.0,0.0,0.0,0.0,0.0,0.0,0.0,0.0,0.0,0.0,0.0,0.0,0.0,0.0,0.0,0.0,0.0,0.0,0.0,0.0,0.0,0.0,0.0,0.0,0.0,0.0,0.0,2.8484,2.8983,2.9429,2.9844,2.983,2.9779,2.9779,2.9227,2.8624,0.0,0.0,0.0,0.0,0.0,0.0,0.0,0.0,0.0,0.0,0.0,0.0,0.0,0.0,0.0,0.0,0.0,0.0,0.0,0.0,0.0,0.0,0.0,0.0,0.0,0.0,0.0,0.0,0.0,0.0,0.0,0.0,0.0,0.0,0.0,0.0,0.0,0.0,0.0,0.0,0.0,2.653,2.6147,2.6647,0.0,0.0,0.0,0.0,2.7659,2.6864,0.0,0.0,0.0,0.0,0.0,0.0,0.0,0.0,0.0,0.0,0.0,0.0,0.0,0.0,0.0,0.0,0.0,0.0,0.0,0.0,0.0,0.0,0.0,0.0,0.0,0.0,0.0,0.0,0.0,0.0,0.0,0.0,0.0,0.0,0.0,0.0,0.0,0.0,0.0,0.0,0.0,0.0,0.0,0.0,0.0,0.0,0.0,0.0,0.0,0.0,0.0,0.0,0.0,0.0,0.0,0.0,2.8856,2.9094,2.9491,3.0011,2.9895,2.9779,2.9779,2.9227,2.8674,0.0,0.0,0.0,0.0,0.0,0.0,0.0,0.0,0.0,0.0,0.0,0.0,0.0,0.0,0.0,0.0,0.0,0.0,0.0,0.0,0.0,0.0,0.0,0.0,0.0,0.0,0.0,0.0,0.0,0.0,0.0,0.0,0.0,0.0,0.0,0.0,0.0,0.0,0.0,0.0,0.0,2.7409,2.6777,2.7464,2.7898,0.0,0.0,2.7686,2.8064,2.7865,0.0,0.0,0.0,0.0,0.0,0.0,0.0,0.0,0.0,0.0,0.0,0.0,0.0,0.0,0.0,0.0,0.0,0.0,0.0,0.0,0.0,0.0,0.0,0.0,0.0,0.0,0.0,0.0,0.0,0.0,0.0,0.0,0.0,0.0,0.0,0.0,0.0,0.0,0.0,0.0,0.0,0.0,0.0,0.0,0.0,0.0,0.0,0.0,0.0,0.0,0.0,0.0,0.0,0.0,0.0,2.8183,2.9003,2.9685,3.0138,3.0241,3.019,3.0152,3.0152,2.9555,2.8971,0.0,0.0,0.0,0.0,0.0,0.0,0.0,0.0,0.0,0.0,0.0,0.0,0.0,0.0,0.0,0.0,0.0,0.0,0.0,0.0,0.0,0.0,0.0,0.0,0.0,0.0,0.0,0.0,0.0,0.0,0.0,0.0,0.0,0.0,0.0,0.0,0.0,0.0,0.0,0.0,0.0,0.0,2.7252,2.8168,0.0,0.0,0.0,2.8618,2.8976,0.0,0.0,0.0,0.0,0.0,0.0,0.0,0.0,0.0,0.0,0.0,0.0,0.0,0.0,0.0,0.0,0.0,0.0,0.0,0.0,0.0,0.0,0.0,0.0,0.0,0.0,0.0,0.0,0.0,0.0,0.0,0.0,0.0,0.0,0.0,0.0,0.0,0.0,0.0,0.0,0.0,0.0,0.0,0.0,0.0,0.0,0.0,0.0,0.0,0.0,0.0,0.0,0.0,0.0,0.0,0.0,0.0,2.9087,3.0166,3.0609,3.0495,3.0444,3.0406,3.0394,2.9817,0.0,0.0,0.0,0.0,0.0,0.0,0.0,0.0,0.0,0.0,0.0,0.0,0.0,0.0,0.0,0.0,0.0,0.0,0.0,0.0,0.0,0.0,0.0,0.0,0.0,0.0,0.0,2.8107,0.0,0.0,0.0,0.0,0.0,0.0,0.0,0.0,0.0,0.0,0.0,0.0,0.0,0.0,2.7862,2.7914,2.8792,2.9477,0.0,0.0,2.9369,2.9696,2.9131,2.8596,0.0,0.0,0.0,0.0,0.0,0.0,0.0,0.0,0.0,0.0,0.0,0.0,0.0,0.0,0.0,0.0,0.0,0.0,0.0,0.0,0.0,0.0,0.0,0.0,0.0,0.0,0.0,0.0,0.0,0.0,0.0,0.0,0.0,0.0,0.0,0.0,0.0,0.0,0.0,0.0,0.0,0.0,0.0,0.0,0.0,0.0,0.0,0.0,0.0,0.0,0.0,0.0,0.0,0.0,0.0,2.9314,3.0227,3.0698,3.066,3.0482,3.0406,3.0394,2.9817,2.9279,0.0,0.0,0.0,0.0,0.0,0.0,0.0,0.0,0.0,0.0,0.0,0.0,0.0,0.0,0.0,0.0,0.0,0.0,0.0,0.0,0.0,0.0,0.0,0.0,0.0,0.0,0.0,0.0,0.0,0.0,0.0,0.0,0.0,0.0,0.0,0.0,0.0,0.0,0.0,0.0,0.0,2.8251,2.8981,2.9379,2.971,0.0,0.0,2.9822,3.0019,3.0021,2.9765,2.9211,0.0,0.0,0.0,0.0,0.0,0.0,0.0,0.0,0.0,0.0,0.0,0.0,0.0,0.0,0.0,0.0,0.0,0.0,0.0,0.0,0.0,0.0,0.0,0.0,0.0,0.0,0.0,0.0,0.0,0.0,0.0,0.0,0.0,0.0,0.0,0.0,0.0,0.0,0.0,0.0,0.0,0.0,0.0,0.0,0.0,0.0,0.0,0.0,0.0,0.0,0.0,0.0,0.0,2.9649,2.9627,3.0582,3.1099,3.1061,3.0861,3.0798,3.0748,3.0527,3.0164,0.0,0.0,0.0,0.0,0.0,0.0,0.0,0.0,0.0,0.0,0.0,0.0,0.0,0.0,0.0,0.0,0.0,0.0,0.0,0.0,0.0,0.0,0.0,0.0,0.0,0.0,0.0,0.0,3.2597,3.2585,3.1714,0.0,0.0,0.0,0.0,0.0,0.0,0.0,0.0,0.0,0.0,2.9246,2.9954,3.0513,0.0,0.0,3.084,3.0635,3.0429,3.0219,2.9988,2.9682,2.9305,0.0,0.0,0.0,0.0,0.0,0.0,0.0,0.0,0.0,0.0,0.0,0.0,0.0,0.0,0.0,0.0,0.0,0.0,0.0,0.0,0.0,0.0,0.0,0.0,0.0,0.0,0.0,0.0,0.0,0.0,0.0,0.0,0.0,0.0,0.0,0.0,0.0,0.0,0.0,0.0,0.0,0.0,0.0,0.0,0.0,0.0,0.0,0.0,0.0,0.0,0.0,0.0,3.0089,3.0067,3.1114,3.1593,3.1556,3.1421,3.131,3.131,3.1286,3.0972,0.0,0.0,0.0,0.0,0.0,0.0,0.0,0.0,0.0,0.0,0.0,0.0,0.0,0.0,0.0,0.0,0.0,0.0,0.0,0.0,0.0,0.0,0.0,0.0,0.0,0.0,0.0,0.0,3.3403,3.3247,3.2203,0.0,0.0,0.0,0.0,0.0,0.0,0.0,0.0,0.0,0.0,3.0368,3.1072,3.1701,3.2112,3.2112,3.1813,3.1444,3.1067,3.0683,3.045,3.0602,0.0,0.0,0.0,0.0,0.0,0.0,0.0,0.0,0.0,0.0,0.0,0.0,0.0,0.0,0.0,0.0,0.0,0.0,0.0,0.0,0.0,0.0,0.0,0.0,0.0,0.0,0.0,2.8922,0.0,0.0,2.7756,0.0,0.0,0.0,0.0,0.0,0.0,0.0,0.0,0.0,0.0,0.0,0.0,0.0,0.0,0.0,0.0,0.0,0.0,0.0,0.0,0.0,0.0,3.0793,3.0617,3.1779,3.2273,3.2092,3.2092,3.2055,3.2055,3.195,3.1594,3.0989,0.0,0.0,0.0,0.0,0.0,0.0,0.0,0.0,0.0,0.0,0.0,0.0,0.0,0.0,0.0,0.0,0.0,0.0,0.0,0.0,0.0,0.0,0.0,0.0,0.0,0.0,3.3981,3.4443,3.4353,0.0,0.0,0.0,0.0,0.0,0.0,0.0,0.0,0.0,0.0,3.0975,3.1588,3.2377,3.293,3.327,3.327,3.2719,3.2243,3.2017,3.1485,3.1353,0.0,0.0,0.0,0.0,0.0,0.0,0.0,0.0,0.0,0.0,0.0,0.0,0.0,0.0,0.0,0.0,0.0,0.0,0.0,0.0,0.0,0.0,0.0,0.0,0.0,0.0,0.0,3.0372,3.0147,0.0,0.0,0.0,0.0,0.0,0.0,0.0,0.0,0.0,0.0,0.0,3.123,3.1073,0.0,0.0,0.0,0.0,0.0,0.0,0.0,0.0,0.0,0.0,0.0,0.0,3.1659,3.2134,3.2709,3.2952,3.2881,3.2632,3.2489,3.2525,3.2453,3.2107,3.14,0.0,0.0,0.0,0.0,0.0,0.0,0.0,0.0,0.0,0.0,0.0,0.0,0.0,0.0,0.0,0.0,0.0,0.0,0.0,0.0,0.0,0.0,0.0,0.0,0.0,3.4134,0.0,0.0,0.0,0.0,0.0,0.0,0.0,0.0,0.0,0.0,0.0,3.2253,3.2908,3.3334,3.3822,3.4511,3.4713,3.4699,0.0,0.0,0.0,0.0,0.0,0.0,0.0,0.0,0.0,0.0,0.0,0.0,0.0,0.0,3.0489,2.9372,2.933,2.9491,2.9571,0.0,0.0,0.0,0.0,0.0,0.0,0.0,0.0,0.0,0.0,0.0,0.0,0.0,0.0,3.1969,0.0,3.1757,0.0,0.0,0.0,0.0,0.0,0.0,0.0,0.0,3.2803,3.2823,3.2397,3.2467,3.2562,0.0,3.273,3.1784,0.0,0.0,0.0,0.0,0.0,0.0,0.0,0.0,3.276,3.3295,3.3734,3.3948,3.3845,3.3575,3.3485,3.3451,3.3346,3.2968,3.2194,3.1951,3.1413,0.0,0.0,0.0,0.0,0.0,0.0,0.0,0.0,0.0,0.0,0.0,0.0,0.0,0.0,0.0,0.0,0.0,0.0,0.0,0.0,0.0,0.0,0.0,3.4997,0.0,0.0,0.0,0.0,0.0,0.0,0.0,0.0,0.0,3.2956,3.3482,3.4081,3.4565,3.4999,3.5451,3.5904,0.0,0.0,0.0,0.0,0.0,0.0,0.0,3.412,3.4662,3.4554,3.4429,3.4692,3.4588,3.4357,3.4029,0.0,0.0,3.2149,3.1953,3.2094,3.2203,3.2228,3.2178,3.1871,3.1845,3.1838,0.0,0.0,0.0,0.0,0.0,0.0,0.0,0.0,3.3459,3.3562,0.0,3.3661,0.0,0.0,0.0,0.0,0.0,3.3797,0.0,0.0,3.4065,3.4153,3.4081,3.3684,3.3685,3.4026,3.3609,3.3452,3.3515,3.2895,0.0,0.0,0.0,0.0,0.0,0.0,3.4041,3.41,3.4792,3.5088,3.4924,3.4876,3.4924,3.4876,3.4576,3.4085,3.3381,3.2982,3.269,3.243,3.1484,0.0,0.0,0.0,0.0,0.0,0.0,0.0,0.0,0.0,0.0,0.0,0.0,0.0,0.0,0.0,0.0,0.0,0.0,0.0,0.0,3.4565,0.0,0.0,0.0,0.0,0.0,0.0,0.0,0.0,0.0,0.0,3.4514,3.5031,3.5463,3.5538,0.0,0.0,0.0,0.0,3.7387,3.7222,3.6554,3.6043,3.5982,3.5303,3.5145,3.6108,0.0,0.0,3.5301,3.5522,3.5771,3.5849,3.6169,3.5882,3.4317,3.396,3.3972,3.419,3.4257,3.4182,3.3963,3.3845,3.3944,3.5331,0.0,0.0,0.0,0.0,3.3871,3.4191,3.4218,3.4793,3.4819,3.4478,3.402,0.0,0.0,0.0,0.0,0.0,0.0,3.5117,3.4846,3.5459,3.5466,3.5041,3.5026,3.5098,3.5209,3.522,3.524,3.5256,3.5098,3.4382,3.3254,0.0,0.0,0.0,0.0,3.4838,3.5384,3.5501,3.5527,3.5479,3.535,3.5285,3.527,3.5055,3.4872,3.4658,3.4401,3.4028,3.3576,3.334,0.0,0.0,0.0,0.0,0.0,0.0,0.0,0.0,0.0,0.0,0.0,0.0,0.0,0.0,0.0,0.0,0.0,0.0,0.0,3.5875,3.636,3.6232,0.0,0.0,0.0,0.0,0.0,0.0,0.0,0.0,0.0,3.6969,3.7031,3.7302,0.0,0.0,3.7979,3.7979,3.806,3.8062,3.787,3.7652,0.0,3.7335,3.7147,3.7112,3.7492,3.7495,3.7439,3.7468,3.7621,3.7772,3.7783,3.7965,3.7927,3.7572,3.6594,3.5948,3.595,3.5976,3.5925,3.5769,3.5665,3.5582,3.7017,3.5477,3.5371,3.498,3.4536,3.5223,3.5291,3.5008,3.5614,3.5517,3.4918,3.4719,3.4317,3.3765,3.3725,0.0,0.0,0.0,3.5692,3.5539,3.6092,3.6144,3.5863,3.5943,3.6053,3.6101,3.6211,3.6289,3.6274,3.6289,3.5751,3.4713,0.0,0.0,3.5256,3.5319,3.5595,3.6038,3.6022,3.6022,3.6022,3.5911,3.58,3.5737,3.564,3.5527,3.5397,3.5365,3.5138,3.4686,3.456,3.4129,0.0,0.0,0.0,0.0,0.0,0.0,0.0,0.0,0.0,0.0,0.0,3.1694,3.1658,0.0,0.0,0.0,3.5199,3.6244,3.7012,3.7166,0.0,0.0,0.0,0.0,0.0,0.0,0.0,3.6644,3.7564,3.8288,3.8622,3.8609,3.8652,3.8914,3.8898,3.8843,3.8827,0.0,3.865,3.8551,3.8495,3.8455,3.8411,3.8383,3.8399,3.8507,3.8623,3.8711,3.8672,3.8694,3.8733,3.8777,3.8816,3.8914,3.9077,3.8342,3.7729,3.7729,3.7729,3.766,3.7511,3.7431,3.7313,3.8242,3.8256,3.8228,3.7469,3.6331,3.6852,3.6634,3.5953,3.6128,3.5879,3.5292,3.5515,3.5276,3.4776,3.5378,0.0,3.4568,3.561,3.6112,3.6068,3.6211,3.6367,3.6538,3.6523,3.6616,3.6708,3.6723,3.6723,3.6723,3.6723,3.6662,3.6538,3.6226,3.6068,3.6037,3.6148,3.6242,3.6242,3.6414,3.6492,3.6492,3.6492,3.6414,3.6227,3.6242,3.607,3.5784,3.5941,3.5973,3.5769,3.535,3.5094,3.4972,0.0,0.0,0.0,0.0,0.0,0.0,0.0,0.0,0.0,0.0,0.0,0.0,0.0,0.0,0.0,3.6443,0.0,3.77,3.7313,0.0,0.0,0.0,3.6698,3.6916,3.6975,3.7391,3.8302,0.0,0.0,3.962,3.9729,3.9635,3.9339,3.9259,3.9232,3.9232,3.9249,3.9249,3.9322,3.9214,3.922,3.945,3.9412,3.9341,3.9361,3.9315,3.9295,3.9121,3.9077,3.905,3.9067,3.904,3.9094,3.9255,3.9206,3.9315,3.9206,3.9222,3.9195,3.8951,3.8881,3.8756,3.8449,3.8449,3.867,3.8338,3.7717,3.7841,3.7814,3.7552,3.7194,3.6918,3.6697,3.5537,3.4745,3.4288,3.4703,3.5037,3.5429,3.595,3.6332,3.6538,3.6708,3.6847,3.6893,3.6877,3.6908,3.6938,3.6938,3.6938,3.6938,3.6938,3.6908,3.6877,3.677,3.6662,3.6398,3.6414,3.6414,3.6414,3.6492,3.6492,3.6492,3.6492,3.646,3.6414,3.6429,3.6383,3.632,3.6367,3.6367,3.632,3.6213,3.5845,3.5171,3.4363,0.0,0.0,0.0,0.0,0.0,0.0,0.0,0.0,0.0,3.3553,3.3215,0.0,3.5876,0.0,3.6787,3.7671,3.7972,3.8197,0.0,0.0,3.7781,3.7647,3.7236,3.7719,3.816,3.8513,3.9143,3.9656,3.9952,4.0087,4.0163,4.0179,3.9825,3.9582,3.9582,3.9582,3.98,4.0241,4.0314,4.0581,4.1009,4.1226,4.0932,4.0491,4.0391,4.0224,3.963,3.953,3.9494,3.9405,3.9379,3.9352,3.9342,3.9315,3.9315,3.9315,3.9315,3.9299,3.9245,3.9121,3.8985,3.9337,3.935,3.9219,3.8984,3.871,3.8199,3.7868,3.7744,3.7245,3.7009,3.6952,3.5902,3.549,3.5502,3.5914,3.6415,3.6953,3.7241,3.7528,3.7873,3.7951,3.8059,3.8105,3.7807,3.7682,3.7666,3.7368,3.7181,3.7089,3.7089,3.7044,3.6999,3.6999,3.6923,3.6708,3.6724,3.6677,3.6569,3.6523,3.6492,3.6492,3.6492,3.6492,3.6492,3.6492,3.6492,3.6492,3.6554,3.66,3.66,3.6677,3.6507,3.6014,3.5366,3.4796,0.0,0.0,0.0,0.0,0.0,0.0,0.0,0.0,0.0,0.0,0.0,3.6676,3.6587,3.7417,3.8132,3.8535,3.8969,3.911,3.8904,3.8964,3.8941,3.8664,3.8984,3.9303,3.9412,3.9876,4.0188,4.0271,4.0337,4.0412,4.0485,4.0246,4.0037,3.9986,3.9961,4.0087,4.0422,4.0464,4.0624,4.1045,4.1096,4.0961,4.0581,4.0507,4.0329,3.9865,3.9781,3.9729,3.9616,3.959,3.9563,3.9511,3.9415,3.9379,3.9379,3.9379,3.9352,3.9315,3.9218,3.9148,4.0296,4.0253,3.9739,3.9441,3.9327,3.8225,3.7667,3.7534,3.7137,3.6853,3.6721,3.6517,3.6749,3.7297,3.7793,3.8246,3.8592,3.877,3.9043,3.9314,3.9314,3.9377,3.9487,3.8902,3.8602,3.8461,3.7891,3.7484,3.7254,3.7224,3.718,3.7076,3.706,3.706,3.706,3.7076,3.6969,3.6754,3.6616,3.6569,3.6554,3.6554,3.6554,3.6554,3.6554,3.6569,3.6569,3.6677,3.6708,3.6754,3.6892,3.6999,3.6984,3.636,3.603,0.0,3.5299,0.0,0.0,0.0,0.0,0.0,0.0,0.0,0.0,3.6699,3.7331,3.7788,3.8173,3.8662,3.9232,3.9582,3.9884,4.0121,4.0163,4.0213,4.0288,4.033,4.0396,4.0605,4.0646,4.0664,4.0859,4.0825,4.0825,4.0952,4.0986,4.0912,4.0686,4.0483,4.0297,4.0265,4.0383,4.0739,4.0688,4.0637,4.0688,4.0502,4.0663,4.0434,4.0323,4.0289,4.0213,3.9966,3.9966,3.9915,3.9789,3.9625,3.9537,3.958,3.9563,3.9484,3.9352,3.9352,3.9352,3.9667,3.9639,3.9539,3.9196,3.8725,3.8517,3.8655,3.9029,3.8416,3.7695,3.698,3.7157,3.7379,3.7624,3.7998,3.851,3.9155,3.9187,3.9282,3.9471,3.9471,3.9471,3.9487,3.9376,3.9044,3.8523,3.8381,3.8003,3.745,3.745,3.7435,3.7391,3.7391,3.7391,3.7391,0.0,0.0,0.0,3.6908,3.6908,3.6908,3.6908,3.6923,3.6908,3.6908,0.0,3.6908,3.6908,3.6923,3.6938,3.6969,0.0,0.0,0.0,0.0,0.0,0.0,0.0,0.0,0.0,0.0,0.0,3.6388,3.6464,3.6377,3.7168,3.7931,3.8371,3.8816,3.9249,3.9713,4.0011,4.0255,4.0395,4.0419,4.0419,4.0444,4.0444,4.069,4.1313,4.1381,4.1688,4.2354,4.2508,4.2541,4.2573,4.2684,4.2634,4.2449,4.1338,4.0751,4.1213,4.1733,4.2116,4.2064,4.2445,4.2436,4.2187,4.2405,4.2439,4.1905,4.1875,4.1654,4.105,4.101,4.0798,4.0155,3.9926,3.9824,3.984,3.9824,3.972,3.9379,3.9484,3.9625,4.0277,0.0,3.9931,3.9614,0.0,3.9351,3.9499,3.9704,3.8574,3.7816,3.7469,3.7945,3.8356,3.8706,3.9241,3.9778,4.0271,4.0369,4.0465,4.053,4.053,4.053,4.0514,4.0198,3.9866,3.9534,3.9171,3.8823,3.8476,3.8144,3.7986,3.7986,3.7654,3.751,3.751,3.751,3.7345,3.7089,3.7014,3.6999,3.6999,3.6999,3.6999,3.6999,3.6999,0.0,0.0,0.0,0.0,0.0,0.0,0.0,0.0,3.6911,0.0,3.6723,3.6378,3.6173,3.6203,3.6319,3.6679,3.7195,3.7685,3.7825,3.75,3.8076,3.8567,3.8854,3.9302,3.9687,4.0054,4.0313,4.0534,4.068,4.0704,4.0704,4.0704,4.0704,4.1013,4.1665,4.1803,4.2137,4.2986,4.3106,4.3131,4.3207,4.3207,4.3182,4.3037,4.2327,4.1901,4.2142,4.2467,4.2714,4.2714,4.2926,4.3078,4.2598,4.2715,4.2765,4.246,4.2454,4.2226,4.1563,4.1469,4.1231,4.05,4.0188,4.0087,4.0104,4.0138,4.0113,3.9833,3.9884,4.0011,4.1265,4.1221,4.0684,4.0379,4.0278,4.0278,4.0205,3.9977,0.0,0.0,0.0,3.8538,3.9162,3.9788,4.0439,4.0953,4.1357,4.1507,4.1588,4.1588,4.1588,4.1588,4.1557,4.1035,4.0704,4.0577,3.9993,3.9629,3.9471,3.895,3.8697,3.8634,3.8002,3.7636,3.7526,3.751,3.7405,3.727,3.7151,3.709,3.709,3.7106,3.7106,3.7106,3.7106,3.7106,3.709,3.7195,3.7254,3.7254,3.7405,3.751,3.751,3.751,3.751,3.751,3.751,3.751,3.7539,3.7671,3.7889,3.823,3.8816,3.905,3.8816,3.8996,3.9195,3.9382,3.9764,4.013,4.0337,4.0576,4.0769,4.0888,4.0894,4.0894,4.0894,4.0894,4.1164,4.1836,4.1974,4.2309,4.3086,4.3207,4.3258,4.3362,4.3448,4.3465,4.3492,4.3244,4.2868,4.2834,4.2869,4.2894,4.286,4.3031,4.2945,4.2866,4.2925,4.2968,4.2994,4.3003,4.2731,4.2165,4.1959,4.1599,4.0878,4.0558,4.0453,4.0429,4.0558,4.059,4.051,4.0534,4.0566,4.1961,4.1947,4.186,4.1482,4.0945,4.096,4.0641,4.0046,3.9286,3.8663,3.8179,3.8612,3.9205,3.992,4.0335,4.0919,4.1555,4.1588,4.1588,4.1588,4.1588,4.1588,4.1588,4.1494,4.1162,4.0609,4.0498,4.0119,3.955,3.9408,3.936,3.9281,3.8697,3.8065,3.7557,3.751,3.748,3.7435,3.745,3.7421,3.7405,3.7421,3.7421,3.7421,3.7421,3.7421,3.7405,3.7435,3.7464,3.7464,3.751,3.751,3.751,3.751,3.751,3.751,3.751,3.7569,3.7687,3.7786,3.8157,3.8832,3.9441,3.9703,3.9556,3.9599,3.9755,4.0113,4.0288,4.0485,4.0624,4.0793,4.0888,4.0894,4.0894,4.0894,4.0894,4.0894,4.1188,4.1888,4.1992,4.2309,4.3034,4.3207,4.3414,4.3931,4.3983,4.4311,4.4561,4.3992,4.3251,4.3139,4.3139,4.3106,4.3211,4.3563,4.382,4.3714,4.4192,4.4519,4.4635,4.4714,4.4371,4.3388,4.3117,4.2645,4.1534,4.1123,4.1,4.0976,4.1035,4.1094,4.1053,4.13,4.1408,4.2092,4.2092,4.2092,4.1932,4.1642,4.1628,4.1265,4.0641,4.035,3.9842,3.9271,3.9415,3.9808,4.0277,4.0558,4.0919,4.1456,4.1555,4.1588,4.1588,4.1588,4.1588,4.1588,4.1588,4.1415,4.1146,4.113,4.0956,4.0625,4.0277,4.0103,4.0024,3.9044,3.8349,3.8033,3.767,3.751,3.751,3.751,3.751,3.751,3.751,3.751,3.751,3.751,3.751,3.751,3.751,3.751,3.751,3.751,3.751,3.751,3.751,3.751,3.751,3.7569,3.7642,3.77,3.8132,3.8678,3.9302,3.9781,4.0087,4.0238,4.0188,4.0196,4.0387,4.0534,4.0648,4.0697,4.0817,4.0894,4.0894,4.0894,4.0894,4.0894,4.0894,4.1205,4.1861,4.1992,4.2327,4.3103,4.3207,4.3293,4.369,4.3983,4.4475,4.4854,4.4699,4.4431,4.4414,4.4406,4.4363,4.4328,4.4561,4.4758,4.4705,4.4963,4.5275,4.5494,4.558,4.5117,4.4113,4.3769,4.3139,4.1845,4.1471,4.1398,4.1398,4.1498,4.1569,4.1596,4.1831,4.1913,4.2092,4.2092,4.2092,4.2092,4.2092,4.2092,4.1802,4.1323,4.1308,4.1073,4.0625,4.0412,4.0554,4.0913,4.0997,4.1221,4.1576,4.1601,4.1588,4.1588,4.1588,4.1588,4.1588,4.1588,4.1588,4.1588,4.1588,4.1588,4.1525,4.1067,4.0735,4.0514,3.9503,3.8918,3.8728,3.8049,3.7717,3.7747,3.7589,3.751,3.751,3.751,3.751,3.751,3.751,3.751,3.751,3.751,3.751,3.751,3.751,3.751,3.751,3.751,3.751,3.7494,3.7628,3.7772,3.7976,3.8583,3.9185,3.9738,4.0045,4.0337,4.0648,4.0631,4.0607,4.0607,4.0697,4.0745,4.0769,4.084,4.0894,4.0894,4.0894,4.0894,4.0894,4.0894,4.1101,4.1671,4.1757,4.1981,4.2499,4.2672,4.2706,4.2948,4.3586,4.4068,4.4273,4.4766,4.5087,4.5295,4.5381,4.5416,4.5502,4.5468,4.5477,4.552,4.5529,4.5684,4.5887,4.5995,4.553,4.4587,4.4185,4.3491,4.2263,4.1827,4.178,4.1784,4.1892,4.2002,4.2065,4.2207,4.2287,4.2092,4.2092,4.2092,4.2092,4.2092,4.2092,4.2049,4.1976,4.2005,4.2099,4.2026,4.1355,4.143,4.1961,4.1795,4.2006,4.2471,4.1889,4.1604,4.1588,4.1588,4.1588,4.1588,4.1588,4.1588,4.1588,4.1588,4.1588,4.1588,4.1509,4.1193,4.0656,4.0467,4.004,3.9408,3.876,3.8428,3.8397,3.7826,3.751,3.751,3.751,3.751,3.751,3.751,3.751,3.751,3.751,3.751,3.751,3.751,3.751,3.751,3.751,3.751,3.751,3.7642,3.7976,3.8639,3.9148,3.9599,4.002,4.0313,4.0534,4.0697,4.0793,4.0847,4.0847,4.0847,4.0871,4.0888,4.0871,4.0894,4.0894,4.0894,4.0894,4.0894,4.0894,4.0929,4.0998,4.1084,4.105,4.1257,4.1309,4.1481,4.2068,4.281,4.3326,4.345,4.3739,4.4192,4.4833,4.5359,4.5683,4.5735,4.577,4.5803,4.5905,4.592,4.6024,4.6216,4.6342,4.6191,4.4789,4.4586,4.3978,4.2902,4.229,4.2225,4.2207,4.229,4.2374,4.2492,4.255,4.249,4.2092,4.2092,4.2092,4.2092,4.2092,4.2092,4.2092,4.2092,4.2092,4.2201,4.2415,4.2406,4.2567,4.2784,4.2633,4.2645,4.2679,4.2363,4.1999,4.162,4.1588,4.1588,4.1588,4.1588,4.1588,4.1588,4.1588,4.1588,4.1588,4.1588,4.1446,4.1162,4.0814,4.0451,4.0103,3.9455,3.9092,3.9076,3.8444,3.8081,3.8049,3.7686,3.751,3.751,3.751,3.751,3.751,3.751,3.751,3.751,3.751,3.751,3.751,3.751,3.751,3.7524,3.7844,3.8331,3.8887,3.9415,3.9875,4.0205,4.0461,4.0673,4.0817,4.0888,4.0894,4.0894,4.0894,4.0894,4.0894,4.0894,4.0894,4.0894,4.0894,4.0894,4.0894,4.0894,4.0894,4.0894,4.0894,4.0894,4.0894,4.0894,4.1032,4.1412,4.2016,4.2514,4.2742,4.3252,4.3814,4.4302,4.4747,4.5286,4.5789,4.6013,4.6052,4.6123,4.5897,4.5806,4.6054,4.5806,4.5319,4.4586,4.4496,4.4081,4.3057,4.2724,4.2607,4.2589,4.2589,4.2668,4.2785,4.2746,4.2686,4.2092,4.2092,4.2092,4.2092,4.2092,4.2092,4.2092,4.2092,4.2092,4.2216,4.2418,4.2985,4.3296,4.3365,4.335,4.329,4.3197,4.2853,4.241,4.1889,4.1699,4.1588,4.1588,4.1588,4.1588,4.1588,4.1588,4.1588,4.1588,4.1588,4.1588,4.1509,4.1099,4.0862,4.0798,4.0151,3.9787,3.974,3.9139,3.8776,3.8713,3.8286,3.7859,3.7557,3.751,3.751,3.751,3.751,3.751,3.751,3.751,3.751,3.751,3.751,3.7539,3.7642,3.8087,3.8595,3.905,3.9609,4.0079,4.0337,4.0576,4.0745,4.0847,4.0894,4.0894,4.0894,4.0894,4.0894,4.0894,4.0894,4.0894,4.0894,4.0894,4.0894,4.0894,4.0894,4.0894,4.0894,4.0894,4.0894,4.0894,4.0894,4.0929,4.1015,4.1378,4.1778,4.2067,4.2655,4.3243,4.3737,4.4019,4.4556,4.5494,4.5623,4.5817,4.5846,4.5483,4.5397,4.5681,4.5294,4.4859,4.4607,4.4355,4.392,4.3248,4.2955,4.2899,4.2879,4.2842,4.2787,4.2881,4.2716,4.2516,4.2092,4.2092,4.2092,4.2092,4.2092,4.2092,4.2092,4.2092,4.2092,4.2201,4.2433,4.2835,4.3324,4.3844,4.392,4.423,4.4382,4.3327,4.271,4.2521,4.1952,4.1604,4.1588,4.1588,4.1588,4.1588,4.1588,4.1588,4.1588,4.1588,4.1588,4.1573,4.1509,4.1525,4.1415,4.0846,4.0546,4.0482,3.9835,3.9455,3.9455,3.9408,3.8728,3.7747,3.7541,3.7557,3.751,3.751,3.751,3.751,3.751,3.751,3.751,3.751,3.7612,3.786,3.8286,3.8761,3.9179,3.9722,4.0196,4.0461,4.0607,4.0745,4.0871,4.0894,4.0894,4.0894,4.0894,4.0894,4.0894,4.0894,4.0894,4.0894,4.0894,4.0894,4.0894,4.0894,4.0894,4.0894,4.0894,4.0894,4.0894,4.0894,4.0894,4.0894,4.0963,4.1086,4.1354,4.16,4.2176,4.29,4.3408,4.3849,4.4365,4.4916,4.4959,4.4993,4.5169,4.4979,4.5247,4.5319,4.4925,4.4618,4.44,4.3999,4.3433,4.3178,4.3142,4.305,4.2811,4.2793,4.2648,4.214,4.1831,4.2092,4.2092,4.2092,4.2092,4.2092,4.2092,4.2092,4.2092,4.2092,4.2133,4.2284,4.2662,4.3076,4.3545,4.4006,4.4328,4.4472,4.411,4.3516,4.2758,4.241,4.2047,4.162,4.1588,4.1588,4.1588,4.1588,4.1588,4.1588,4.1588,4.1588,4.1588,4.1588,4.1588,4.1557,4.1351,4.1225,4.1146,4.0546,4.0198,4.0151,3.9756,3.9234,3.8807,3.8349,3.7923,3.7526,3.751,3.751,3.751,3.751,3.751,3.751,3.751,3.7628,3.7889,3.8359,3.8761,3.9206,3.9747,4.0196,4.0485,4.0624,4.0745,4.0864,4.0894,4.0894,4.0894,4.0894,4.0894,4.0894,4.0894,4.0894,4.0894,4.0894,4.0894,4.0894,4.0894,4.0894,4.0894,4.0894,4.0894,4.0894,4.0894,4.0894,4.0894,4.0894,4.0989,4.118,4.1363,4.1722,4.2245,4.2635,4.2933,4.3286,4.436,4.4908,4.4826,4.482,4.4617,4.4705,4.4399,4.398,4.4035,4.3997,4.3923,4.3339,4.3159,4.3177,4.3014,4.2796,4.2287,4.225,4.1542,4.1126,4.2092,4.2092,4.2092,4.2092,4.2092,4.2092,4.2092,4.2092,4.2092,4.2092,4.2175,4.2459,4.2809,4.318,4.3786,4.4189,4.4382,4.4526,4.4141,4.3358,4.29,4.2426,4.1968,4.1699,4.1588,4.1588,4.1588,4.1588,4.1588,4.1588,4.1588,4.1588,4.1588,4.1588,4.1588,4.1588,4.1588,4.1494,4.1146,4.0925,4.0846,4.0435,4.0056,3.9835,3.9408,3.8744,3.7875,3.7812,3.7715,3.7557,3.751,3.751,3.751,3.751,3.7628,3.7889,3.8274,3.8678,3.9142,3.9713,4.0138,4.0362,4.0576,4.0745,4.084,4.0888,4.0894,4.0894,4.0894,4.0894,4.0894,4.0894,4.0894,4.0894,4.0894,4.0894,4.0894,4.0894,4.0894,4.0894,4.0894,4.0894,4.0894,4.0894,4.0894,4.0894,4.0894,4.0965,4.1152,4.1295,4.1515,4.1862,4.2237,4.2521,4.2843,4.3662,4.4142,4.415,4.43,4.4161,4.4053,4.3651,4.3465,4.348,4.3479,4.3479,4.3388,4.3191,4.3011,4.2867,4.2194,4.1523,4.1232,4.0815,4.0453,4.2092,4.2092,4.2092,4.2092,4.2092,4.2092,4.2092,4.2092,4.2092,4.2092,4.2133,4.2325,4.2514,4.2809,4.3314,4.3849,4.4197,4.4355,4.4468,4.4382,4.3374,4.2805,4.2663,4.2015,4.1652,4.1588,4.1588,4.1588,4.1588,4.1588,4.1588,4.1588,4.1588,4.1588,4.1588,4.1588,4.1588,4.1573,4.1509,4.1525,4.1573,4.1446,4.1146,4.0672,4.053,3.9914,3.8603,3.8491,3.816,3.7668,3.7573,3.7541,3.7668,3.77,3.7692,3.8001,3.8193,3.8544,3.8996,3.9563,3.9926,4.0138,4.0461,4.0648,4.0721,4.0799,4.0871,4.0894,4.0894,4.0894,4.0894,4.0894,4.0894,4.0894,4.0894,4.0894,4.0894,4.0894,4.0894,4.0894,4.0894,4.0894,4.0894,4.0894,4.0894,4.0894,4.0894,4.0935,4.1093,4.1261,4.1471,4.1758,4.204,4.231,4.2589,4.2897,4.3103,4.3287,4.3524,4.3614,4.3687,4.3465,4.3464,4.3479,4.3479,4.3461,4.3057,4.2859,4.244,4.2151,4.1406,4.0844,4.0554,4.0192,3.9739,4.2092,4.2092,4.2092,4.2092,4.2092,4.2092,4.2092,4.2092,4.2092,4.2092,4.2092,4.2175,4.231,4.25,4.2835,4.3275,4.381,4.4174,4.4375,4.44,4.4189,4.3801,4.3327,4.2679,4.2094,4.1667,4.1588,4.1588,4.1588,4.1588,4.1588,4.1588,4.1588,4.1588,4.1588,4.1588,4.1588,4.1588,4.1588,4.1588,4.1588,4.1588,4.1478,4.1304,4.1288,4.0846,3.9977,3.9029,3.8444,3.8175,3.8191,3.8397,3.8744,3.8855,3.8802,3.8704,3.8814,3.8873,3.8898,3.9272,3.9675,3.9926,4.018,4.0412,4.0648,4.0745,4.0817,4.0871,4.0894,4.0894,4.0894,4.0894,4.0894,4.0894,4.0894,4.0894,4.0894,4.0894,4.0894,4.0894,4.0894,4.0894,4.0894,4.0894,4.0912,4.0894,4.0894,4.0959,4.107,4.1163,4.133,4.1604,4.1892,4.2127,4.2432,4.2689,4.2919,4.3142,4.3323,4.3429,4.3464,4.3463,4.3479,4.3479,4.3479,4.3259,4.2873,4.2416,4.2016,4.1377,4.0705,4.0306,4.007,3.9672,3.9219,4.2092,4.2092,4.2092,4.2092,4.2092,4.2092,4.2092,4.2092,4.2092,4.2092,4.2092,4.2092,4.2175,4.2325,4.2514,4.285,4.3275,4.3801,4.4151,4.4355,4.4531,4.4358,4.3987,4.339,4.2679,4.2143,4.1999,4.1841,4.1588,4.1588,4.1588,4.1588,4.1588,4.1588,4.1588,4.1588,4.1588,4.1588,4.1588,4.1588,4.1588,4.1588,4.1588,4.1588,4.1588,4.1367,4.0909,3.9866,3.9029,3.8634,3.8523,3.8839,3.9424,3.9455,3.9437,3.935,3.9388,3.9403,3.943,3.9511,3.968,4.0036,4.0112,4.0263,4.0558,4.0673,4.0769,4.0871,4.0894,4.0894,4.0894,4.0894,4.0935,4.0959,4.0918,4.0918,4.0959,4.0959,4.0982,4.0982,4.0935,4.0912,4.0894,4.0959,4.0935,4.0935,4.0935,4.0959,4.1047,4.1087,4.1261,4.1448,4.167,4.1938,4.2251,4.2516,4.2787,4.305,4.3269,4.3411,4.348,4.348,4.3479,4.3479,4.3479,4.3112,4.2708,4.2066,4.1535,4.0785,4.0017,3.9617,3.9292,3.9111,3.875,4.2092,4.2092,4.2092,4.2092,4.2092,4.2092,4.2092,4.2092,4.2092,4.2092,4.2092,4.2092,4.2107,4.2133,4.2325,4.2514,4.2784,4.3275,4.381,4.4174,4.4381,4.4479,4.4492,4.399,4.339,4.2821,4.2742,4.2378,4.181,4.1762,4.162,4.1604,4.1588,4.1588,4.1588,4.1588,4.1588,4.1588,4.1621,4.1637,4.1637,4.1637,4.1637,4.1621,4.1621,4.1557,4.1399,4.0783,3.9913,3.8855,3.8838,3.9154,3.955,3.9613,3.9818,3.9895,3.9863,4.0014,4.0278,4.0078,4.0104,4.0496,4.0361,4.0281,4.0631,4.071,4.0745,4.0871,4.0912,4.0935,4.0935,4.0942,4.1041,4.1157,4.1099,4.1006,4.1093,4.1093,4.1076,4.1076,4.0982,4.0918,4.0942,4.1053,4.1029,4.1006,4.1029,4.1053,4.1006,4.1047,4.1123,4.1267,4.1471,4.1675,4.198,4.2254,4.2516,4.2769,4.3087,4.3305,4.3445,4.348,4.3479,4.3479,4.3259,4.291,4.2323,4.157,4.0799,3.9976,3.9352,3.8854,3.8692,3.8661,3.8645,4.2092,4.2092,4.2092,4.2092,4.2092,4.2092,4.2092,4.2092,4.2092,4.2092,4.2092,4.2092,4.2092,4.2092,4.2175,4.2284,4.2555,4.2809,4.3339,4.3989,4.4418,4.4596,4.4689,4.4543,4.4085,4.3516,4.3437,4.309,4.2442,4.2347,4.211,4.1604,4.1604,4.1588,4.1588,4.1588,4.1588,4.1637,4.1752,4.1817,4.1817,4.1817,4.1817,4.1817,4.1703,4.1621,4.1558,4.1054,4.0594,4.0135,4.0151,4.0452,4.091,4.0989,4.0815,4.0579,4.0515,4.0465,4.0401,4.044,4.0672,4.1061,4.0846,4.083,4.1238,4.0842,4.0724,4.0864,4.0982,4.1064,4.107,4.1134,4.1412,4.1852,4.1626,4.1256,4.1262,4.118,4.118,4.1157,4.1186,4.1233,4.1267,4.1221,4.1227,4.1204,4.1169,4.1152,4.1076,4.107,4.1146,4.1146,4.1267,4.1471,4.1697,4.198,4.2254,4.2496,4.2824,4.3196,4.334,4.3463,4.348,4.3479,4.2947,4.2543,4.1644,4.0781,3.9974,3.935,3.9001,3.8707,3.8707,3.8692,3.8692,4.2092,4.2092,4.2092,4.2092,4.2092,4.2092,4.2092,4.2092,4.2092,4.2092,4.2092,4.2092,4.2092,4.2092,4.2092,4.2175,4.2284,4.2459,4.2875,4.3433,4.4197,4.4791,4.5074,4.5175,4.4812,4.4196,4.4148,4.3737,4.3153,4.2853,4.2442,4.2078,4.1731,4.1604,4.1588,4.1588,4.167,4.1719,4.1833,4.1931,4.198,4.198,4.198,4.1964,4.1851,4.1818,4.1754,4.1582,4.139,4.1231,4.1087,4.1167,4.1656,4.1719,4.1546,4.1165,4.1133,4.1103,4.1051,4.1007,4.1249,4.1642,4.1477,4.1533,4.175,4.1391,4.116,4.1274,4.1183,4.1261,4.1608,4.1951,4.2445,4.2818,4.2562,4.2306,4.2277,4.2323,4.2254,4.2236,4.223,4.2207,4.219,4.1952,4.1777,4.1667,4.1423,4.129,4.1157,4.1169,4.1198,4.1256,4.1308,4.1513,4.1722,4.1986,4.2622,4.2854,4.303,4.3301,4.336,4.3502,4.348,4.3332,4.2708,4.2047,4.124,4.0451,3.9735,3.9221,3.8872,3.8707,3.8707,3.8707,3.8707,4.2092,4.2092,4.2092,4.2092,4.2092,4.2092,4.2092,4.2092,4.2092,4.2092,4.2092,4.2092,4.2092,4.2092,4.2092,4.2092,4.2133,4.2284,4.2566,4.3155,4.3981,4.4887,4.5515,4.5645,4.5381,4.4907,4.4828,4.4433,4.3864,4.3232,4.2837,4.257,4.2033,4.1716,4.1702,4.167,4.1768,4.1882,4.198,4.2045,4.2125,4.2158,4.2158,4.2109,4.2077,4.2077,4.2158,4.2221,4.2269,4.2142,4.1565,4.1534,4.19,4.1931,4.1834,4.1672,4.1625,4.1723,4.1949,4.1642,4.1754,4.2327,4.2199,4.2186,4.2419,4.2159,4.1891,4.2007,4.1581,4.1886,4.2404,4.3166,4.3593,4.3792,4.3904,4.3956,4.3938,4.3827,4.3739,4.3722,4.3633,4.3637,4.3504,4.3161,4.2684,4.2626,4.2346,4.2195,4.1957,4.1806,4.1696,4.1534,4.1568,4.1613,4.184,4.2044,4.2827,4.3408,4.3542,4.3677,4.356,4.3596,4.3519,4.3259,4.2727,4.2047,4.1242,4.0469,3.9662,3.9093,3.8762,3.8707,3.8707,3.8707,3.8707,4.2092,4.2092,4.2092,4.2092,4.2092,4.2092,4.2092,4.2092,4.2092,4.2092,4.2092,4.2092,4.2092,4.2092,4.2092,4.2092,4.2092,4.216,4.2514,4.326,4.3957,4.4685,4.53,4.5625,4.5728,4.5523,4.557,4.5175,4.4575,4.4246,4.3722,4.2823,4.2673,4.2341,4.1961,4.1963,4.2013,4.2093,4.2206,4.2286,4.2318,4.2349,4.2302,4.2302,4.2206,4.2206,4.2318,4.2381,4.2413,4.2412,4.2236,4.2045,4.2045,4.2061,4.2029,4.1964,4.1882,4.198,4.2222,4.2236,4.2437,4.2993,4.28,4.2763,4.325,4.2833,4.2689,4.2839,4.293,4.3001,4.3453,4.3705,4.4202,4.4646,4.4828,4.5038,4.5313,4.4611,4.4067,4.3939,4.3956,4.3851,4.3886,4.3834,4.3588,4.3553,4.3407,4.3279,4.2935,4.2539,4.237,4.2207,4.2248,4.2357,4.2554,4.2831,4.3448,4.3871,4.3957,4.3956,4.3848,4.3524,4.3395,4.3153,4.28,4.2047,4.1242,4.0469,3.9662,3.9166,3.8707,3.8707,3.8707,3.8707,3.8707,4.2092,4.2092,4.2092,4.2092,4.2092,4.2092,4.2092,4.2092,4.2092,4.2092,4.2092,4.2092,4.2092,4.2092,4.2092,4.2092,4.2092,4.2092,4.2351,4.2915,4.3536,4.4174,4.4783,4.5373,4.5735,4.5932,4.5992,4.5774,4.5472,4.5091,4.4601,4.3886,4.3398,4.2874,4.2459,4.2269,4.2158,4.2238,4.2349,4.2445,4.2476,4.2508,4.2508,4.2508,4.2397,4.2397,4.2476,4.2508,4.2539,4.2571,4.2523,4.2397,4.227,4.2254,4.2206,4.2077,4.2061,4.2141,4.2318,4.2445,4.2664,4.3358,4.3273,4.3516,4.373,4.3547,4.3425,4.3468,4.3506,4.361,4.427,4.4773,4.5148,4.5442,4.5624,4.581,4.5951,4.5442,4.4992,4.4968,4.5056,4.5056,4.4975,4.4641,4.4466,4.4383,4.384,4.3699,4.3629,4.3285,4.3244,4.315,4.3127,4.3203,4.3395,4.3728,4.4251,4.4387,4.4271,4.4173,4.404,4.3631,4.3214,4.3029,4.2876,4.2066,4.1242,4.0469,3.9735,3.9093,3.8726,3.8707,3.8707,3.8707,3.8707,4.2092,4.2092,4.2092,4.2092,4.2092,4.2092,4.2092,4.2092,4.2092,4.2092,4.2092,4.2092,4.2092,4.2092,4.2092,4.2092,4.2092,4.2092,4.2284,4.2541,4.3061,4.3654,4.4312,4.5046,4.5667,4.606,4.6223,4.6214,4.6055,4.5789,4.532,4.5069,4.4241,4.3536,4.3183,4.2735,4.243,4.2445,4.2445,4.2476,4.2602,4.2634,4.2665,4.2634,4.2634,4.2602,4.2602,4.2602,4.2665,4.2634,4.2649,4.2618,4.2539,4.2445,4.2381,4.2174,4.2174,4.2254,4.2365,4.2445,4.2665,4.3298,4.3549,4.3856,4.4091,4.4198,4.4177,4.4078,4.4078,4.4208,4.4995,4.5428,4.5863,4.6119,4.6179,4.6214,4.6214,4.6214,4.6039,4.6039,4.581,4.5723,4.5705,4.5512,4.5378,4.515,4.4571,4.4202,4.4167,4.4079,4.4073,4.405,4.4026,4.4318,4.4541,4.4624,4.5112,4.5078,4.4836,4.4524,4.4331,4.3896,4.3523,4.3249,4.2879,4.218,4.1535,4.0891,4.0102,3.9203,3.8744,3.8707,3.8707,3.8707,3.8692,4.2092,4.2092,4.2092,4.2092,4.2092,4.2092,4.2092,4.2092,4.2092,4.2092,4.2092,4.2092,4.2092,4.2092,4.2092,4.2092,4.2092,4.2092,4.2201,4.2433,4.2835,4.3394,4.4004,4.4805,4.5541,4.5977,4.6227,4.6333,4.6333,4.6154,4.5891,4.5426,4.516,4.4633,4.383,4.3347,4.3041,4.2717,4.2588,4.2571,4.2634,4.2759,4.2837,4.2837,4.2821,4.2759,4.2696,4.2759,4.2837,4.2868,4.2976,4.299,4.2898,4.2711,4.2555,4.2492,4.2413,4.2445,4.2492,4.2476,4.2602,4.2961,4.3281,4.3671,4.4076,4.4445,4.4589,4.4868,4.5027,4.5311,4.5745,4.5885,4.6013,4.6147,4.6214,4.6214,4.6214,4.6214,4.6214,4.6214,4.6214,4.6214,4.6074,4.6003,4.5863,4.5723,4.5477,4.5267,4.5302,4.5098,4.4863,4.4863,4.4904,4.5319,4.5758,4.5765,4.5932,4.5847,4.5595,4.5058,4.477,4.4299,4.3918,4.3579,4.3249,4.2752,4.2072,4.1299,4.0524,3.9643,3.9184,3.871,3.8658,3.8643,3.8658,4.2092,4.2092,4.2092,4.2092,4.2092,4.2092,4.2092,4.2092,4.2092,4.2092,4.2092,4.2092,4.2092,4.2092,4.2092,4.2092,4.2092,4.2092,4.2175,4.2325,4.2662,4.3155,4.3771,4.4617,4.5363,4.5961,4.6317,4.6493,4.6615,4.6582,4.6389,4.615,4.5914,4.5317,4.4639,4.3978,4.3605,4.3152,4.2844,4.2681,4.2775,4.2914,4.3007,4.3007,4.3007,4.2976,4.2914,4.2929,4.3007,4.3007,4.3052,4.3096,4.3052,4.299,4.2852,4.2759,4.2696,4.2602,4.2586,4.2539,4.2634,4.2868,4.3129,4.3432,4.3835,4.4253,4.4731,4.5096,4.5353,4.5581,4.5752,4.5846,4.5947,4.609,4.6165,4.6214,4.6214,4.6214,4.6214,4.6214,4.6214,4.6214,4.6214,4.6179,4.6196,4.6214,4.6214,4.6214,4.6214,4.5916,4.5495,4.5512,4.5519,4.5705,4.6091,4.6144,4.627,4.6288,4.613,4.56,4.5102,4.4594,4.4173,4.3847,4.3488,4.3159,4.2332,4.1434,4.0769,4.0068,3.9339,3.8774,3.8648,3.8593,3.8593,4.2092,4.2092,4.2092,4.2092,4.2092,4.2092,4.2092,4.2092,4.2092,4.2092,4.2092,4.2092,4.2092,4.2092,4.2092,4.2092,4.2092,4.2092,4.2092,4.2175,4.2474,4.297,4.3536,4.4259,4.5052,4.5853,4.6246,4.6617,4.6807,4.6842,4.6876,4.6664,4.6245,4.5938,4.5549,4.4837,4.4237,4.3636,4.3296,4.3033,4.3008,4.3099,4.3174,4.3174,4.3127,4.3143,4.3082,4.3143,4.3143,4.3174,4.3204,4.3204,4.3204,4.3221,4.316,4.3007,4.2961,4.2837,4.2728,4.2665,4.2696,4.2806,4.299,4.3251,4.3582,4.4051,4.4519,4.4988,4.5194,4.5344,4.5511,4.5641,4.5795,4.5947,4.6073,4.6189,4.6189,4.6214,4.6214,4.6214,4.6214,4.6214,4.6214,4.6214,4.6214,4.6214,4.6214,4.6214,4.6214,4.6214,4.5986,4.6039,4.6056,4.6056,4.6179,4.6179,4.627,4.6346,4.6177,4.5793,4.5315,4.4839,4.4468,4.4081,4.3696,4.3267,4.2413,4.1732,4.1144,4.041,3.944,3.8821,3.8622,3.8515,3.8481,4.2092,4.2092,4.2092,4.2092,4.2092,4.2092,4.2092,4.2092,4.2092,4.2092,4.2092,4.2092,4.2092,4.2092,4.2092,4.2092,4.2092,4.2092,4.2092,4.2133,4.2366,4.2703,4.3155,4.3678,4.4639,4.551,4.6012,4.6439,4.6789,4.6911,4.6911,4.6846,4.6765,4.659,4.6155,4.5717,4.5261,4.4361,4.4066,4.3768,4.3429,4.3391,4.3372,4.3372,4.3342,4.3312,4.3204,4.3281,4.3342,4.3372,4.3462,4.3522,4.3522,4.3552,4.3479,4.3358,4.319,4.3007,4.2883,4.2852,4.279,4.2821,4.2959,4.3174,4.3522,4.3964,4.4423,4.4759,4.4886,4.5022,4.522,4.5389,4.5555,4.576,4.5955,4.6097,4.6147,4.6214,4.6214,4.6214,4.6214,4.6214,4.6214,4.6214,4.6214,4.6214,4.6214,4.6214,4.6214,4.6214,4.6214,4.6214,4.6214,4.6214,4.6214,4.6214,4.6246,4.635,4.6205,4.597,4.5634,4.5209,4.4684,4.4291,4.3958,4.3581,4.2975,4.2323,4.1646,4.0912,4.0092,3.9254,3.8524,3.8471,3.8532,4.2092,4.2092,4.2092,4.2092,4.2092,4.2092,4.2092,4.2092,4.2092,4.2092,4.2092,4.2092,4.2092,4.2092,4.2092,4.2092,4.2092,4.2092,4.2092,4.2133,4.231,4.2607,4.3076,4.3654,4.4412,4.5231,4.5868,4.6388,4.6738,4.6911,4.6911,4.6927,4.6996,4.6984,4.6664,4.642,4.6012,4.5405,4.4813,4.4282,4.4012,4.3726,4.3509,4.3509,4.3492,4.3449,4.3449,4.3432,4.3509,4.3492,4.3582,4.3598,4.3598,4.3598,4.3568,4.3539,4.3432,4.3281,4.3068,4.3037,4.2976,4.2929,4.3035,4.3235,4.3539,4.3894,4.427,4.448,4.4592,4.4731,4.4934,4.515,4.5415,4.5632,4.5829,4.6023,4.6122,4.6189,4.6214,4.6214,4.6214,4.6214,4.6214,4.6214,4.6214,4.6214,4.6214,4.6214,4.6214,4.6214,4.6214,4.6214,4.6214,4.6214,4.6214,4.6214,4.6214,4.627,4.627,4.6079,4.6005,4.5616,4.511,4.48,4.4564,4.4112,4.3541,4.272,4.1887,4.134,4.0829,3.9976,3.916,3.8876,3.8824,4.2092,4.2092,4.2092,4.2092,4.2092,4.2092,4.2092,4.2092,4.2092,4.2092,4.2092,4.2092,4.2092,4.2092,4.2092,4.2133,4.216,4.2175,4.2216,4.2284,4.2433,4.2688,4.3115,4.3654,4.4312,4.521,4.5724,4.6246,4.6668,4.6911,4.703,4.703,4.7217,4.7286,4.7189,4.6979,4.6635,4.6322,4.5397,4.4816,4.45,4.4114,4.383,4.3664,4.3615,4.3615,4.3615,4.3615,4.3598,4.3598,4.3598,4.3615,4.3615,4.3598,4.3598,4.3568,4.3568,4.3462,4.3295,4.3204,4.3127,4.3127,4.3157,4.3312,4.3568,4.3864,4.4039,4.4184,4.4298,4.4423,4.462,4.4852,4.5096,4.5389,4.5675,4.5922,4.6115,4.6165,4.6214,4.6214,4.6214,4.6214,4.6214,4.6214,4.6214,4.6214,4.6214,4.6214,4.6214,4.6214,4.6214,4.6214,4.6214,4.6214,4.6214,4.6214,4.6214,4.6214,4.6214,4.6186,4.6097,4.5964,4.5599,4.5349,4.5112,4.4577,4.3981,4.3007,4.2102,4.156,4.1017,4.0528,3.9949,3.9553,3.8958,4.2092,4.2092,4.2092,4.2092,4.2092,4.2092,4.2092,4.2092,4.2092,4.2092,4.2092,4.2092,4.2133,4.2133,4.2175,4.2242,4.2392,4.2407,4.2474,4.2581,4.2688,4.289,4.325,4.3645,4.4212,4.5083,4.5651,4.614,4.6633,4.7064,4.7251,4.7436,4.7454,4.7554,4.7588,4.7473,4.7243,4.6878,4.6083,4.5419,4.4989,4.4605,4.4274,4.3764,4.3631,4.3615,4.3615,4.3615,4.3615,4.3615,4.3615,4.3615,4.3615,4.3615,4.3615,4.3615,4.3615,4.3568,4.3462,4.3402,4.3281,4.3204,4.3281,4.3432,4.3598,4.3615,4.3763,4.391,4.3998,4.4056,4.4196,4.4406,4.4769,4.515,4.5494,4.5803,4.6023,4.6147,4.6172,4.6214,4.6214,4.6214,4.6214,4.6214,4.6214,4.6214,4.6214,4.6214,4.6214,4.6214,4.6214,4.6214,4.6214,4.6214,4.6214,4.6214,4.6214,4.6214,4.6214,4.6214,4.6168,4.6038,4.5899,4.5723,4.5416,4.4908,4.4485,4.39,4.3124,4.1981,4.1265,4.0977,4.0293,3.9625,3.8941,4.2092,4.2092,4.2092,4.2092,4.2092,4.2092,4.2092,4.2092,4.2092,4.2092,4.2107,4.2201,4.2284,4.2325,4.2433,4.2514,4.2581,4.2581,4.2648,4.2729,4.2835,4.305,4.3329,4.3778,4.4266,4.4986,4.5541,4.614,4.6772,4.7132,4.7521,4.7704,4.7671,4.7654,4.7721,4.782,4.772,4.7455,4.6891,4.6262,4.598,4.5052,4.4556,4.4324,4.3714,4.3631,4.3615,4.3615,4.3615,4.3615,4.3615,4.3615,4.3615,4.3615,4.3615,4.3615,4.3615,4.3615,4.3615,4.3539,4.3479,4.3479,4.3492,4.3539,4.3615,4.3615,4.3628,4.3704,4.3734,4.3822,4.3969,4.4224,4.4547,4.4961,4.531,4.5624,4.5879,4.6048,4.6172,4.6196,4.6214,4.6214,4.6214,4.6214,4.6214,4.6214,4.6214,4.6214,4.6214,4.6214,4.6214,4.6214,4.6214,4.6214,4.6214,4.6214,4.6214,4.6214,4.6214,4.6214,4.6214,4.6179,4.6059,4.5914,4.5828,4.5476,4.5186,4.496,4.4171,4.2941,4.2181,4.1703,4.0858,3.9818,3.9028,4.2092,4.2092,4.2092,4.2092,4.2092,4.2092,4.2092,4.2092,4.2092,4.2133,4.2201,4.231,4.2433,4.25,4.2607,4.2729,4.2769,4.2795,4.285,4.293,4.3036,4.325,4.3542,4.3895,4.4335,4.4964,4.5541,4.614,4.6772,4.7251,4.7604,4.777,4.7869,4.782,4.782,4.7919,4.8001,4.7852,4.7587,4.704,4.6742,4.598,4.5185,4.4986,4.4373,4.4042,4.3926,4.3797,4.3615,4.3615,4.3615,4.3615,4.3615,4.3615,4.3615,4.3615,4.3615,4.3615,4.3615,4.3615,4.3615,4.3568,4.3568,4.3598,4.3615,4.3615,4.3645,4.3615,4.3628,4.3658,4.3822,4.4023,4.4293,4.4659,4.5086,4.5415,4.5752,4.5955,4.608,4.6196,4.6196,4.6214,4.6214,4.6214,4.6214,4.6214,4.6214,4.6214,4.6214,4.6214,4.6214,4.6214,4.6214,4.6214,4.6214,4.6214,4.6214,4.6214,4.6214,4.6214,4.6214,4.6214,4.6214,4.6088,4.6013,4.6009,4.5729,4.5352,4.4653,4.3845,4.3113,4.2356,4.1129,4.0092,3.9306,4.2092,4.2092,4.2092,4.2092,4.2092,4.2092,4.2092,4.2092,4.2092,4.2216,4.2366,4.2392,4.2541,4.2662,4.2769,4.289,4.2996,4.2996,4.3076,4.317,4.325,4.3581,4.3793,4.4065,4.4412,4.5129,4.5594,4.6032,4.6617,4.7183,4.7537,4.7754,4.7853,4.7968,4.7968,4.8001,4.8001,4.8001,4.7934,4.7537,4.7106,4.6709,4.6212,4.5748,4.5052,4.4671,4.4373,4.4042,4.3797,4.3615,4.3615,4.3615,4.3615,4.3615,4.3615,4.3615,4.3615,4.3615,4.3615,4.3615,4.3615,4.3615,4.3615,4.3615,4.3615,4.3615,4.3615,4.3615,4.3615,4.3615,4.3687,4.3805,4.4097,4.4395,4.4841,4.522,4.552,4.5879,4.6005,4.6122,4.6172,4.6214,4.6214,4.6214,4.6214,4.6214,4.6214,4.6214,4.6214,4.6214,4.6214,4.6214,4.6214,4.6214,4.6214,4.6214,4.6214,4.6214,4.6214,4.6214,4.6214,4.6214,4.6214,4.6196,4.6168,4.6112,4.5877,4.5631,4.5,4.4403,4.3674,4.28,4.1529,4.0501,3.988,4.2092,4.2092,4.2092,4.2092,4.2092,4.2092,4.2092,4.2092,4.2092,4.2216,4.2392,4.25,4.2729,4.2875,4.301,4.313,4.317,4.321,4.3305,4.3305,4.3438,4.3596,4.3832,4.4065,4.4412,4.4852,4.5305,4.5853,4.6407,4.6996,4.742,4.7688,4.7886,4.8001,4.8001,4.8001,4.8001,4.8001,4.7968,4.7835,4.7587,4.7173,4.6808,4.651,4.5798,4.5251,4.487,4.4506,4.4175,4.3764,4.3698,4.3664,4.3631,4.3615,4.3615,4.3615,4.3615,4.3615,4.3615,4.3615,4.3615,4.3615,4.3615,4.3615,4.3615,4.3615,4.3615,4.3615,4.3615,4.3615,4.3628,4.3793,4.401,4.4241,4.4592,4.4961,4.5292,4.5658,4.5905,4.6048,4.6115,4.6189,4.6214,4.6214,4.6214,4.6214,4.6214,4.6214,4.6214,4.6214,4.6214,4.6214,4.6214,4.6214,4.6214,4.6214,4.6214,4.6214,4.6214,4.6214,4.6214,4.6214,4.6214,4.6214,4.6214,4.6196,4.6021,4.5828,4.5526,4.4947,4.4377,4.3615,4.2528,4.1559,4.0801,4.2092,4.2092,4.2092,4.2092,4.2092,4.2092,4.2092,4.2092,4.2092,4.2242,4.25,4.2648,4.285,4.3076,4.321,4.3305,4.3305,4.3305,4.3305,4.3344,4.3478,4.3596,4.3754,4.3972,4.4243,4.461,4.5061,4.5599,4.6195,4.6738,4.7235,4.7654,4.7886,4.7968,4.8001,4.8001,4.8001,4.8001,4.7984,4.7984,4.7819,4.7603,4.7322,4.7073,4.6593,4.5997,4.5549,4.5135,4.4738,4.4224,4.3959,4.383,4.3731,4.3615,4.3615,4.3615,4.3615,4.3615,4.3615,4.3615,4.3615,4.3615,4.3615,4.3615,4.3615,4.3615,4.3615,4.3615,4.3615,4.3615,4.3645,4.3793,4.3881,4.408,4.4281,4.4659,4.4998,4.5372,4.5684,4.5829,4.6065,4.614,4.6214,4.6214,4.6214,4.6214,4.6214,4.6214,4.6214,4.6214,4.6214,4.6214,4.6214,4.6214,4.6214,4.6214,4.6214,4.6214,4.6214,4.6214,4.6214,4.6214,4.6214,4.6214,4.6214,4.6214,4.6214,4.6021,4.5782,4.5596,4.5334,4.4483,4.3538,4.2683,4.1862,4.2092,4.2092,4.2092,4.2092,4.2092,4.2092,4.2092,4.2092,4.2133,4.2366,4.2688,4.2688,4.293,4.3225,4.3305,4.3305,4.3305,4.3305,4.3305,4.3305,4.3344,4.3478,4.3596,4.3754,4.4011,4.4435,4.4836,4.5268,4.5945,4.6512,4.7048,4.7571,4.782,4.7935,4.7968,4.8001,4.8001,4.8001,4.8001,4.8001,4.7934,4.7934,4.7802,4.7603,4.7222,4.6841,4.646,4.6096,4.5467,4.497,4.4638,4.4241,4.388,4.3615,4.3615,4.3615,4.3615,4.3615,4.3615,4.3615,4.3615,4.3615,4.3615,4.3615,4.3615,4.3615,4.3615,4.3615,4.3615,4.3615,4.3645,4.3658,4.3717,4.3864,4.4027,4.4338,4.4642,4.4981,4.5345,4.5624,4.5897,4.6048,4.6189,4.6214,4.6189,4.6214,4.6214,4.6214,4.6214,4.6214,4.6214,4.6214,4.6214,4.6214,4.6214,4.6214,4.6214,4.6214,4.6214,4.6214,4.6214,4.6214,4.6214,4.6214,4.6214,4.6214,4.6214,4.6214,4.6161,4.5975,4.5796,4.5233,4.4243,4.3703,4.2938,4.2092,4.2092,4.2092,4.2092,4.2133,4.2242,4.2242,4.2133,4.2407,4.2622,4.2673,4.2835,4.3036,4.329,4.3305,4.3305,4.3305,4.3305,4.3305,4.3305,4.3305,4.3329,4.3463,4.3596,4.3793,4.4065,4.4473,4.4858,4.5379,4.6052,4.686,4.7421,4.7671,4.782,4.7935,4.8001,4.8001,4.8001,4.8001,4.8001,4.8001,4.8001,4.8001,4.7868,4.7769,4.7404,4.6974,4.6775,4.6179,4.5616,4.497,4.4522,4.4456,4.3913,4.3615,4.3615,4.3615,4.3615,4.3615,4.3615,4.3615,4.3615,4.3615,4.3615,4.3615,4.3615,4.3615,4.3615,4.3615,4.3615,4.3615,4.3628,4.3628,4.3717,4.3881,4.4068,4.4378,4.4614,4.4998,4.5389,4.5667,4.5947,4.6073,4.6189,4.6165,4.6189,4.6214,4.6214,4.6214,4.6214,4.6214,4.6214,4.6214,4.6214,4.6214,4.6214,4.6214,4.6214,4.6214,4.6214,4.6214,4.6214,4.6214,4.6214,4.6214,4.6214,4.6214,4.6214,4.6214,4.6214,4.6028,4.5554,4.5069,4.4566,4.3944,4.2092,4.2092,4.2092,4.2133,4.2242,4.2418,4.2418,4.2392,4.2622,4.2714,4.285,4.2955,4.3115,4.329,4.3305,4.3305,4.3305,4.3305,4.3305,4.3305,4.3305,4.3305,4.3384,4.3463,4.3596,4.3832,4.4065,4.4419,4.4933,4.5765,4.6601,4.7032,4.7387,4.7671,4.7853,4.7935,4.8001,4.8001,4.8001,4.8001,4.8001,4.8001,4.8001,4.8001,4.8001,4.7703,4.7404,4.7305,4.6924,4.6361,4.5682,4.5202,4.4854,4.4042,4.3631,4.3615,4.3615,4.3615,4.3615,4.3615,4.3615,4.3615,4.3615,4.3615,4.3615,4.3615,4.3615,4.3615,4.3615,4.3615,4.3615,4.3615,4.3615,4.3615,4.3734,4.3852,4.4068,4.4293,4.4659,4.5086,4.5432,4.5752,4.5947,4.6048,4.6165,4.6189,4.6214,4.6214,4.6214,4.6214,4.6214,4.6214,4.6214,4.6214,4.6214,4.6214,4.6214,4.6214,4.6214,4.6214,4.6214,4.6214,4.6214,4.6214,4.6214,4.6214,4.6214,4.6214,4.6214,4.6214,4.6214,4.5916,4.5694,4.5554,4.4864,4.2092,4.2092,4.2092,4.2201,4.2433,4.2622,4.2688,4.2769,4.2769,4.285,4.2981,4.3036,4.3155,4.3305,4.3305,4.3305,4.3305,4.3305,4.3305,4.3305,4.3305,4.3305,4.3305,4.3344,4.3463,4.3596,4.3847,4.4166,4.4746,4.551,4.6195,4.6582,4.7082,4.7471,4.7754,4.7853,4.7935,4.8001,4.8001,4.8001,4.8001,4.8001,4.8001,4.8001,4.8001,4.7951,4.7951,4.7868,4.7703,4.7222,4.6676,4.6063,4.4937,4.4208,4.3863,4.3615,4.3615,4.3615,4.3615,4.3615,4.3615,4.3615,4.3615,4.3615,4.3615,4.3615,4.3615,4.3615,4.3615,4.3615,4.3615,4.3615,4.3615,4.3615,4.3674,4.3734,4.3881,4.4109,4.4452,4.4841,4.5194,4.5494,4.5752,4.5854,4.6048,4.6122,4.6214,4.6214,4.6214,4.6214,4.6214,4.6214,4.6214,4.6214,4.6214,4.6214,4.6214,4.6214,4.6214,4.6214,4.6214,4.6214,4.6214,4.6214,4.6214,4.6214,4.6214,4.6214,4.6214,4.6214,4.6214,4.6214,4.6144,4.6074,4.5782,4.2092,4.2092,4.2092,4.2284,4.2622,4.2688,4.289,4.313,4.317,4.309,4.3036,4.3155,4.325,4.3305,4.3305,4.3305,4.3305,4.3305,4.3305,4.3305,4.3305,4.3305,4.3305,4.3305,4.3369,4.3423,4.366,4.4026,4.4572,4.5268,4.5873,4.6356,4.6825,4.7184,4.7638,4.7737,4.7853,4.7968,4.8001,4.8001,4.8001,4.8001,4.8001,4.8001,4.8001,4.8001,4.8001,4.7984,4.7918,4.7703,4.7139,4.6129,4.4787,4.4539,4.4141,4.3731,4.3648,4.3615,4.3615,4.3615,4.3615,4.3615,4.3615,4.3615,4.3615,4.3615,4.3615,4.3615,4.3615,4.3615,4.3615,4.3615,4.3615,4.3615,4.3615,4.3645,4.3704,4.3952,4.4241,4.4564,4.4896,4.515,4.5424,4.5658,4.5879,4.6005,4.6147,4.6214,4.6172,4.6172,4.6214,4.6214,4.6214,4.6214,4.6214,4.6214,4.6214,4.6214,4.6214,4.6214,4.6214,4.6214,4.6214,4.6214,4.6214,4.6214,4.6214,4.6214,4.6214,4.6214,4.6214,4.6214,4.6214,4.6144,4.6109,4.2092,4.2092,4.2092,4.231,4.2662,4.2688,4.293,4.3265,4.3305,4.325,4.317,4.325,4.3305,4.3305,4.3305,4.3305,4.3305,4.3305,4.3305,4.3305,4.3305,4.3305,4.3305,4.3305,4.3305,4.3384,4.3699,4.4089,4.4419,4.4949,4.5489,4.6052,4.6477,4.6894,4.7387,4.7605,4.7754,4.7869,4.7968,4.8001,4.8001,4.8001,4.8001,4.8001,4.8001,4.8001,4.8001,4.8001,4.8001,4.7802,4.7255,4.6758,4.5698,4.5052,4.4539,4.4141,4.3847,4.3615,4.3615,4.3615,4.3615,4.3615,4.3615,4.3615,4.3615,4.3615,4.3615,4.3615,4.3615,4.3615,4.3615,4.3615,4.3615,4.3615,4.3615,4.3645,4.3645,4.3747,4.3981,4.4172,4.4452,4.4631,4.4889,4.5203,4.5424,4.5684,4.5854,4.6048,4.6073,4.6122,4.6147,4.6214,4.6189,4.6214,4.6214,4.6214,4.6214,4.6214,4.6214,4.6214,4.6214,4.6214,4.6214,4.6214,4.6214,4.6214,4.6214,4.6214,4.6214,4.6214,4.6214,4.6214,4.6214,4.6214,4.6179,4.2092,4.2092,4.2133,4.2366,4.2688,4.2729,4.297,4.325,4.3305,4.3305,4.3305,4.3305,4.3305,4.3305,4.3305,4.3305,4.3305,4.3305,4.3305,4.3305,4.3305,4.3305,4.3305,4.3305,4.3305,4.3423,4.3699,4.391,4.4089,4.4663,4.521,4.5724,4.6175,4.6547,4.7098,4.7454,4.7638,4.7754,4.7853,4.7968,4.8001,4.8001,4.8001,4.8001,4.8001,4.8001,4.8001,4.8001,4.8001,4.7819,4.7471,4.704,4.6527,4.5765,4.5083,4.4622,4.4158,4.3847,4.3648,4.3615,4.3615,4.3615,4.3615,4.3615,4.3615,4.3615,4.3615,4.3615,4.3615,4.3615,4.3615,4.3615,4.3615,4.3615,4.3615,4.3615,4.3598,4.3598,4.3734,4.3898,4.4056,4.4224,4.4435,4.4742,4.5015,4.5292,4.5503,4.5709,4.5879,4.598,4.6048,4.6122,4.6172,4.6172,4.6214,4.6214,4.6214,4.6214,4.6214,4.6214,4.6214,4.6214,4.6214,4.6214,4.6214,4.6214,4.6214,4.6214,4.6214,4.6214,4.6214,4.6214,4.6214,4.6214,4.6214,4.2092,4.2133,4.2298,4.2459,4.2688,4.2875,4.3076,4.329,4.3305,4.3305,4.3305,4.3305,4.3305,4.3305,4.3305,4.3305,4.3305,4.3305,4.3305,4.3305,4.3305,4.3305,4.3305,4.3305,4.3305,4.3423,4.3621,4.3832,4.4011,4.4473,4.4949,4.5578,4.5941,4.6404,4.6892,4.7235,4.7454,4.7621,4.7787,4.7886,4.8001,4.8001,4.8001,4.8001,4.8001,4.8001,4.8001,4.8001,4.8001,4.7951,4.7835,4.7454,4.7007,4.6493,4.5847,4.5133,4.4622,4.4158,4.3959,4.3698,4.3631,4.3615,4.3615,4.3615,4.3615,4.3615,4.3615,4.3615,4.3615,4.3615,4.3615,4.3615,4.3615,4.3615,4.3615,4.3615,4.3598,4.3598,4.3674,4.3763,4.3852,4.401,4.4138,4.4395,4.4631,4.4889,4.5106,4.5319,4.5477,4.5701,4.5905,4.598,4.6055,4.6172,4.6214,4.6214,4.6214,4.6214,4.6214,4.6214,4.6214,4.6214,4.6214,4.6214,4.6214,4.6214,4.6214,4.6214,4.6214,4.6214,4.6214,4.6214,4.6214,4.6214,4.6214]}]]